[[{"header":{"parameterUnit":"m.s-1","parameterCategory":1,"la1":30.6,"la2":28.766,"lo1":-90.7593,"lo2":-88.6598,"dy":0.0162,"dx":0.0183,"nx":116,"ny":114,"refTime":"2024-04-04T00:00:00:Z","depth":0,"parameterNumber":2,"parameterNumberName":"U-component_of_WINDS"},"data":[0.0,0.0,0.0,0.0,0.0,0.0,0.0,0.0,0.0,0.0,0.0,0.0,0.0,0.0,0.0,0.0,0.0,0.0,0.0,0.0,0.0,0.0,0.0,0.0,0.0,0.0,0.0,0.0,0.0,0.0,0.0,0.0,0.0,0.0,0.0,0.0,0.0,0.0,0.0,0.0,0.0,0.0,0.0,0.0,0.0,0.0,0.0,0.0,0.0,0.0,0.0,0.0,0.0,0.0,0.0,0.0,0.0,0.0,0.0,0.0,0.0,0.0,0.0,0.0,0.0,0.0,0.0,0.0,0.0,0.0,0.0,0.0,0.0,0.0,0.0,0.0,0.0,0.0,0.0,0.0,0.0,0.0,0.0,0.0,0.0,0.0,0.0,0.0,0.0,0.0,0.0,0.0,0.0,0.0,0.0,0.0,0.0,0.0,0.0,0.0,0.0,0.0,0.0,0.0,0.0,0.0,0.0,0.0,0.0,0.0,0.0,0.0,0.0,0.0,0.0,0.0,0.0,0.0,0.0,0.0,0.0,0.0,0.0,0.0,0.0,0.0,0.0,0.0,0.0,0.0,0.0,0.0,0.0,0.0,0.0,0.0,0.0,0.0,0.0,0.0,0.0,0.0,0.0,0.0,0.0,0.0,0.0,0.0,0.0,0.0,0.0,0.0,0.0,0.0,0.0,0.0,0.0,0.0,0.0,0.0,0.0,0.0,0.0,0.0,0.0,0.0,0.0,0.0,0.0,0.0,0.0,0.0,0.0,0.0,0.0,0.0,0.0,0.0,0.0,0.0,0.0,0.0,0.0,0.0,0.0,0.0,0.0,0.0,0.0,0.0,0.0,0.0,0.0,0.0,0.0,0.0,0.0,0.0,0.0,0.0,0.0,0.0,0.0,0.0,0.0,0.0,0.0,0.0,0.0,0.0,0.0,0.0,0.0,0.0,0.0,0.0,0.0,0.0,0.0,0.0,0.0,0.0,0.0,0.0,0.0,0.0,0.0,0.0,0.0,0.0,0.0,0.0,0.0,0.0,0.0,0.0,0.0,0.0,0.0,0.0,0.0,0.0,0.0,0.0,0.0,0.0,0.0,0.0,0.0,0.0,0.0,0.0,0.0,0.0,0.0,0.0,0.0,0.0,0.0,0.0,0.0,0.0,0.0,0.0,0.0,0.0,0.0,0.0,0.0,0.0,0.0,0.0,0.0,0.0,0.0,0.0,0.0,0.0,0.0,0.0,0.0,0.0,0.0,0.0,0.0,0.0,0.0,0.0,0.0,0.0,0.0,0.0,0.0,0.0,0.0,0.0,0.0,0.0,0.0,0.0,0.0,0.0,0.0,0.0,0.0,0.0,0.0,0.0,0.0,0.0,0.0,0.0,0.0,0.0,0.0,0.0,0.0,0.0,0.0,0.0,0.0,0.0,0.0,0.0,0.0,0.0,0.0,0.0,0.0,0.0,0.0,0.0,0.0,0.0,0.0,0.0,0.0,0.0,0.0,0.0,0.0,0.0,0.0,0.0,0.0,0.0,0.0,0.0,0.0,0.0,0.0,0.0,0.0,0.0,0.0,0.0,0.0,0.0,0.0,0.0,0.0,0.0,0.0,0.0,0.0,0.0,0.0,0.0,0.0,0.0,0.0,0.0,0.0,0.0,0.0,0.0,0.0,0.0,0.0,0.0,0.0,0.0,0.0,0.0,0.0,0.0,0.0,0.0,0.0,0.0,0.0,0.0,0.0,0.0,0.0,0.0,0.0,0.0,0.0,0.0,0.0,0.0,0.0,0.0,0.0,0.0,0.0,0.0,0.0,0.0,0.0,0.0,0.0,0.0,0.0,0.0,0.0,0.0,0.0,0.0,0.0,0.0,0.0,0.0,0.0,0.0,0.0,0.0,0.0,0.0,0.0,0.0,0.0,0.0,0.0,0.0,0.0,0.0,0.0,0.0,0.0,0.0,0.0,0.0,0.0,0.0,0.0,0.0,0.0,0.0,0.0,0.0,0.0,0.0,0.0,0.0,0.0,0.0,0.0,0.0,0.0,0.0,0.0,0.0,0.0,0.0,0.0,0.0,0.0,0.0,0.0,0.0,0.0,0.0,0.0,0.0,0.0,0.0,0.0,0.0,0.0,0.0,0.0,0.0,0.0,0.0,0.0,0.0,0.0,0.0,0.0,0.0,0.0,0.0,0.0,0.0,0.0,0.0,0.0,0.0,0.0,0.0,0.0,0.0,0.0,0.0,0.0,0.0,0.0,0.0,0.0,0.0,0.0,0.0,0.0,0.0,0.0,0.0,0.0,0.0,0.0,0.0,0.0,0.0,0.0,0.0,0.0,0.0,0.0,0.0,0.0,0.0,0.0,0.0,0.0,0.0,0.0,0.0,0.0,0.0,0.0,0.0,0.0,0.0,0.0,0.0,0.0,0.0,0.0,0.0,0.0,0.0,0.0,0.0,0.0,0.0,0.0,0.0,0.0,0.0,0.0,0.0,0.0,0.0,0.0,0.0,0.0,0.0,0.0,0.0,0.0,0.0,0.0,0.0,0.0,0.0,0.0,0.0,0.0,0.0,0.0,0.0,0.0,0.0,0.0,0.0,0.0,0.0,0.0,0.0,0.0,0.0,0.0,0.0,0.0,0.0,0.0,0.0,0.0,0.0,0.0,0.0,0.0,0.0,0.0,0.0,0.0,0.0,0.0,0.0,0.0,0.0,0.0,0.0,0.0,0.0,0.0,0.0,0.0,0.0,0.0,0.0,0.0,0.0,0.0,0.0,0.0,0.0,0.0,0.0,0.0,0.0,0.0,0.0,0.0,0.0,0.0,0.0,0.0,0.0,0.0,0.0,0.0,0.0,0.0,0.0,0.0,0.0,0.0,0.0,0.0,0.0,0.0,0.0,0.0,0.0,0.0,0.0,0.0,0.0,0.0,0.0,0.0,0.0,0.0,0.0,0.0,0.0,0.0,0.0,0.0,0.0,0.0,0.0,0.0,0.0,0.0,0.0,0.0,0.0,0.0,0.0,0.0,0.0,0.0,0.0,0.0,0.0,0.0,0.0,0.0,0.0,0.0,0.0,0.0,0.0,0.0,0.0,0.0,0.0,0.0,0.0,0.0,0.0,0.0,0.0,0.0,0.0,0.0,0.0,0.0,0.0,0.0,0.0,0.0,0.0,0.0,0.0,0.0,0.0,0.0,0.0,0.0,0.0,0.0,0.0,0.0,0.0,0.0,0.0,0.0,0.0,0.0,0.0,0.0,0.0,0.0,0.0,0.0,0.0,0.0,0.0,0.0,0.0,0.0,0.0,0.0,0.0,0.0,0.0,0.0,0.0,0.0,0.0,0.0,0.0,0.0,0.0,0.0,0.0,0.0,0.0,0.0,0.0,0.0,0.0,0.0,0.0,0.0,0.0,0.0,0.0,0.0,0.0,0.0,0.0,0.0,0.0,0.0,0.0,0.0,0.0,0.0,0.0,0.0,0.0,0.0,0.0,0.0,0.0,0.0,0.0,0.0,0.0,0.0,0.0,0.0,0.0,0.0,0.0,0.0,0.0,0.0,0.0,0.0,0.0,0.0,0.0,0.0,0.0,0.0,0.0,0.0,0.0,0.0,0.0,0.0,0.0,0.0,0.0,0.0,0.0,0.0,0.0,0.0,0.0,0.0,0.0,0.0,0.0,0.0,0.0,0.0,0.0,0.0,0.0,0.0,0.0,0.0,0.0,0.0,0.0,0.0,0.0,0.0,0.0,0.0,0.0,0.0,0.0,0.0,0.0,0.0,0.0,0.0,0.0,0.0,0.0,0.0,0.0,0.0,0.0,0.0,0.0,0.0,0.0,0.0,0.0,0.0,0.0,0.0,0.0,0.0,0.0,0.0,0.0,0.0,0.0,0.0,0.0,0.0,0.0,0.0,0.0,0.0,0.0,0.0,0.0,0.0,0.0,0.0,0.0,0.0,0.0,0.0,0.0,0.0,0.0,0.0,0.0,0.0,0.0,0.0,0.0,0.0,0.0,0.0,0.0,0.0,0.0,0.0,0.0,0.0,0.0,0.0,0.0,0.0,0.0,0.0,0.0,0.0,0.0,0.0,0.0,0.0,0.0,0.0,0.0,0.0,0.0,0.0,0.0,0.0,0.0,0.0,0.0,0.0,0.0,0.0,0.0,0.0,0.0,0.0,0.0,0.0,0.0,0.0,0.0,0.0,0.0,0.0,0.0,0.0,0.0,0.0,0.0,0.0,0.0,0.0,0.0,0.0,0.0,0.0,0.0,0.0,0.0,0.0,0.0,0.0,0.0,0.0,0.0,0.0,0.0,0.0,0.0,0.0,0.0,0.0,0.0,0.0,0.0,0.0,0.0,0.0,0.0,0.0,0.0,0.0,0.0,0.0,0.0,0.0,0.0,0.0,0.0,0.0,0.0,0.0,0.0,0.0,0.0,0.0,0.0,0.0,0.0,0.0,0.0,0.0,0.0,0.0,0.0,0.0,0.0,0.0,0.0,0.0,0.0,0.0,0.0,0.0,0.0,0.0,0.0,0.0,0.0,0.0,0.0,0.0,0.0,0.0,0.0,0.0,0.0,0.0,0.0,0.0,0.0,0.0,0.0,0.0,0.0,0.0,0.0,0.0,0.0,0.0,0.0,0.0,0.0,0.0,0.0,0.0,0.0,0.0,0.0,0.0,0.0,0.0,0.0,0.0,0.0,0.0,0.0,0.0,0.0,0.0,0.0,0.0,0.0,0.0,0.0,0.0,0.0,0.0,0.0,0.0,0.0,0.0,0.0,0.0,0.0,0.0,0.0,0.0,0.0,0.0,0.0,0.0,0.0,0.0,0.0,0.0,0.0,0.0,0.0,0.0,0.0,0.0,0.0,0.0,0.0,0.0,0.0,0.0,0.0,0.0,0.0,0.0,0.0,0.0,0.0,0.0,0.0,0.0,0.0,0.0,0.0,0.0,0.0,0.0,0.0,0.0,0.0,0.0,0.0,0.0,0.0,0.0,0.0,0.0,0.0,0.0,0.0,0.0,0.0,0.0,0.0,0.0,0.0,0.0,0.0,0.0,0.0,0.0,0.0,0.0,0.0,0.0,0.0,0.0,0.0,0.0,0.0,0.0,0.0,0.0,0.0,0.0,0.0,0.0,0.0,0.0,0.0,0.0,0.0,0.0,0.0,0.0,0.0,0.0,0.0,0.0,0.0,0.0,0.0,0.0,0.0,0.0,0.0,0.0,0.0,0.0,0.0,0.0,0.0,0.0,0.0,0.0,0.0,0.0,0.0,0.0,0.0,0.0,0.0,0.0,0.0,0.0,0.0,0.0,0.0,0.0,0.0,0.0,0.0,0.0,0.0,0.0,0.0,0.0,0.0,0.0,0.0,0.0,0.0,0.0,0.0,0.0,0.0,0.0,0.0,0.0,0.0,0.0,0.0,0.0,0.0,0.0,0.0,0.0,0.0,0.0,0.0,0.0,0.0,0.0,0.0,0.0,0.0,0.0,0.0,0.0,0.0,0.0,0.0,0.0,0.0,0.0,0.0,0.0,0.0,0.0,0.0,0.0,0.0,0.0,0.0,0.0,0.0,0.0,0.0,0.0,0.0,0.0,0.0,0.0,0.0,0.0,0.0,0.0,0.0,0.0,0.0,0.0,0.0,0.0,0.0,0.0,0.0,0.0,0.0,0.0,0.0,0.0,0.0,0.0,0.0,0.0,0.0,0.0,0.0,0.0,0.0,0.0,0.0,0.0,0.0,0.0,0.0,0.0,0.0,0.0,0.0,0.0,0.0,0.0,0.0,0.0,0.0,0.0,0.0,0.0,0.0,0.0,0.0,0.0,0.0,0.0,0.0,0.0,0.0,0.0,0.0,0.0,0.0,0.0,0.0,0.0,0.0,0.0,0.0,0.0,0.0,0.0,0.0,0.0,0.0,0.0,0.0,0.0,0.0,0.0,0.0,0.0,0.0,0.0,0.0,0.0,0.0,0.0,0.0,0.0,0.0,0.0,0.0,0.0,0.0,0.0,0.0,0.0,0.0,0.0,0.0,0.0,0.0,0.0,0.0,0.0,0.0,0.0,0.0,0.0,0.0,0.0,0.0,0.0,0.0,0.0,0.0,2.6122,0.0,0.0,0.0,0.0,0.0,0.0,0.0,0.0,0.0,0.0,0.0,0.0,0.0,0.0,0.0,0.0,0.0,0.0,0.0,0.0,0.0,0.0,0.0,0.0,0.7155,0.7536,0.7584,0.8341,0.8716,0.8521,0.0,0.0,0.0,0.0,0.0,0.8685,0.9134,0.9886,1.1023,1.209,1.3782,1.6087,1.5909,1.526,1.4141,0.0,0.0,0.0,0.0,0.0,0.0,0.0,0.0,0.0,0.0,0.0,0.0,0.0,0.0,0.0,0.0,0.0,0.0,0.0,0.0,0.0,0.0,0.0,0.0,0.0,0.0,0.0,0.0,0.0,0.0,0.0,0.0,0.0,0.0,0.0,0.0,0.0,0.0,0.0,0.0,0.0,0.0,0.0,0.0,0.0,0.0,0.0,0.0,0.0,0.0,0.0,0.0,0.0,0.0,0.0,0.0,0.0,0.0,0.0,0.0,0.0,0.0,0.0,0.0,0.0,0.0,0.0,0.0,0.0,0.0,0.0,2.773,0.0,0.0,0.0,0.0,0.0,0.0,0.0,0.0,0.0,0.0,0.0,0.0,0.0,0.0,0.0,0.0,0.0,0.0,0.0,0.0,0.0,0.6704,0.7082,0.7948,0.8537,0.8683,0.9171,0.9353,0.9048,0.8773,0.8657,0.8657,0.8657,0.8798,0.9106,0.9676,1.0704,1.2261,1.4047,1.6559,1.9794,2.022,1.9275,0.0,0.0,0.0,0.0,0.0,0.0,0.0,0.0,0.0,0.0,0.0,0.0,0.0,0.0,0.0,0.0,0.0,0.0,0.0,0.0,0.0,0.0,0.0,0.0,0.0,0.0,0.0,0.0,0.0,0.0,0.0,0.0,0.0,0.0,0.0,0.0,0.0,0.0,0.0,0.0,0.0,0.0,0.0,0.0,0.0,0.0,0.0,0.0,0.0,0.0,0.0,0.0,0.0,0.0,0.0,0.0,0.0,0.0,0.0,0.0,0.0,0.0,0.0,0.0,0.0,0.0,3.2065,3.3072,3.3427,3.4254,3.5276,3.2879,3.2287,3.2826,0.0,0.0,0.0,0.0,0.0,0.0,0.0,0.0,0.0,0.0,0.0,0.0,0.0,0.0,0.0,0.0,0.0,0.0,0.0,0.0,0.6692,0.7577,0.819,0.884,0.9726,0.9821,0.9956,1.0245,0.9668,0.9308,0.937,0.9308,0.9489,0.9939,1.084,1.1959,1.3289,1.7071,1.9727,2.1325,2.2607,0.0,0.0,0.0,0.0,0.0,0.0,0.0,0.0,0.0,0.0,0.0,0.0,0.0,0.0,0.0,0.0,0.0,0.0,0.0,0.0,0.0,0.0,0.0,0.0,0.0,0.0,0.0,0.0,0.0,0.0,0.0,0.0,0.0,0.0,0.0,0.0,0.0,0.0,0.0,0.0,0.0,0.0,0.0,0.0,0.0,0.0,2.1623,2.3617,0.0,0.0,0.0,0.0,0.0,0.0,0.0,0.0,0.0,0.0,0.0,0.0,0.0,0.0,2.982,3.2625,3.3828,3.3521,3.6485,3.7636,3.7296,3.8331,3.9147,3.9808,3.9576,0.0,3.4463,3.3299,0.0,0.0,0.0,0.0,0.0,0.0,0.0,0.0,0.0,0.0,0.0,0.0,0.0,0.0,0.0,0.0,0.0,0.0,0.0,0.0,0.0,0.9576,1.0598,1.1081,1.2028,1.224,1.1404,1.1132,1.0582,0.9684,0.956,0.978,1.0305,1.1765,1.4256,1.7752,2.1293,2.3566,2.4573,2.6025,0.0,0.0,0.0,0.0,0.0,0.0,0.0,0.0,0.0,0.0,0.0,0.0,0.0,0.0,0.0,0.0,0.0,0.0,0.0,0.0,0.0,0.0,0.0,0.0,0.0,0.0,0.0,0.0,0.0,0.0,0.0,0.0,0.0,0.0,0.0,0.0,0.0,0.0,0.0,0.0,0.0,0.0,0.0,0.0,0.0,2.1231,2.3667,2.4269,2.4317,2.3893,0.0,0.0,0.0,0.0,0.0,0.0,0.0,0.0,0.0,3.1957,3.2889,3.3956,3.5336,3.6924,3.7812,3.795,3.9786,4.0427,4.0204,4.131,4.1651,4.1508,4.1824,4.0793,3.8658,3.6983,3.4583,3.1782,0.0,0.0,0.0,0.0,0.0,3.0334,0.0,0.0,0.0,0.0,0.0,0.0,0.0,0.0,0.0,0.0,0.0,0.0,0.9249,1.1118,1.2513,1.2953,1.4119,1.4311,1.3102,1.2541,1.1714,1.0582,1.0173,1.027,1.0914,1.3435,1.6958,2.1598,2.4402,2.6229,0.0,0.0,0.0,0.0,0.0,0.0,0.0,0.0,0.0,0.0,0.0,0.0,0.0,0.0,0.0,0.0,0.0,0.0,0.0,0.0,0.0,0.0,0.0,0.0,0.0,0.0,0.0,0.0,0.0,0.0,0.0,0.0,0.0,0.0,0.0,0.0,0.0,0.0,0.0,0.0,0.0,0.0,0.0,0.0,0.0,0.0,0.0,2.3336,2.557,2.5261,2.633,2.6301,0.0,0.0,0.0,0.0,0.0,0.0,3.0853,3.1653,3.3202,3.5696,3.6879,3.8141,3.9513,4.0193,4.0822,4.1288,4.2076,4.2351,4.2471,4.3426,4.3547,4.3009,4.3378,4.3223,4.2495,4.0043,3.7745,3.5511,3.4109,3.2767,3.1637,3.2811,3.3587,3.4288,0.0,0.0,0.0,0.0,0.0,0.0,0.0,0.0,0.0,0.0,0.0,0.9353,1.0914,1.2474,1.4065,1.558,1.5286,1.5309,1.5757,1.3672,1.2389,1.2439,1.1595,1.1453,1.2074,1.6547,2.0251,2.2969,2.5325,0.0,0.0,0.0,0.0,0.0,0.0,0.0,0.0,0.0,0.0,0.0,0.0,0.0,0.0,0.0,0.0,0.0,0.0,0.0,0.0,0.0,0.0,0.0,0.0,0.0,0.0,0.0,0.0,0.0,0.0,0.0,0.0,0.0,0.0,0.0,0.0,0.0,0.0,0.0,0.0,0.0,0.0,0.0,0.0,0.0,0.0,0.0,0.0,0.0,0.0,2.7958,2.9656,0.0,0.0,0.0,0.0,2.946,3.0378,3.2191,3.5035,3.509,3.6136,3.847,3.9547,4.0121,4.0201,4.1635,4.235,4.2474,4.3585,4.4081,4.4081,4.4952,4.5299,4.5271,4.5271,4.5108,4.4522,4.1959,3.9467,3.732,3.6636,3.5239,3.3728,3.4982,3.6129,3.7128,0.0,0.0,0.0,0.0,0.0,0.5214,0.5061,0.5757,0.638,0.666,0.8427,1.0135,1.1527,1.3359,1.5111,1.6648,1.699,1.6976,1.6485,1.498,1.3913,1.3577,1.2661,1.3667,1.6828,1.9725,2.2565,2.5315,2.6695,0.0,0.0,0.0,0.0,0.0,0.0,0.0,0.0,0.0,0.0,0.0,0.0,0.0,0.0,0.0,0.0,0.0,0.0,0.0,0.0,0.0,0.0,0.0,0.0,0.0,0.0,0.0,0.0,0.0,0.0,0.0,0.0,0.0,0.0,0.0,0.0,0.0,0.0,0.0,0.0,0.0,0.0,0.0,0.0,0.0,0.0,0.0,0.0,0.0,0.0,3.0627,3.251,0.0,0.0,3.1712,3.2826,3.323,3.4553,3.6133,3.8128,3.7971,3.8815,4.0882,4.1266,4.1852,4.2498,4.3024,4.3339,4.3365,4.413,4.4441,4.4192,4.5064,4.522,4.4993,4.5266,4.5228,4.4952,4.3748,4.2368,4.0887,4.0152,3.9329,3.8638,3.9247,3.9864,4.056,0.0,0.0,0.0,0.0,0.4812,0.5137,0.5113,0.5761,0.6453,0.7001,0.9032,1.0951,1.2416,1.4381,1.6137,1.7387,1.7934,1.7854,1.7048,1.5842,1.4961,1.4556,1.415,1.5922,2.0201,2.1853,2.3962,2.6586,0.0,0.0,0.0,0.0,0.0,0.0,0.0,0.0,0.0,0.0,0.0,0.0,0.0,0.0,1.9596,0.0,0.0,0.0,0.0,0.0,0.0,0.0,0.0,0.0,0.0,0.0,0.0,0.0,0.0,0.0,0.0,0.0,0.0,0.0,0.0,0.0,0.0,0.0,0.0,0.0,0.0,0.0,0.0,0.0,0.0,0.0,0.0,0.0,0.0,0.0,3.2181,3.2345,3.4566,3.5278,3.3322,3.4711,3.587,3.6241,3.7358,3.8451,3.9585,3.9754,4.0421,4.1987,4.2383,4.2963,4.3833,4.4148,4.4334,4.4546,4.505,4.5341,4.5259,4.606,4.6139,4.5573,4.5858,4.5847,4.5438,4.5011,4.4429,4.363,4.2698,4.1948,4.1505,4.1859,4.2121,4.242,0.0,0.0,0.0,0.4404,0.4912,0.5285,0.5285,0.57,0.6471,0.7822,0.973,1.1753,1.3688,1.5595,1.7016,1.7754,1.7916,1.7787,1.7448,1.6159,1.5351,1.5358,1.6142,1.8261,2.1726,2.299,2.4527,2.6655,2.7355,0.0,0.0,0.0,0.0,0.0,0.0,0.0,0.0,0.0,0.0,0.0,0.0,0.0,2.2935,0.0,0.0,0.0,0.0,0.0,0.0,0.0,0.0,0.0,0.0,0.0,0.0,0.0,0.0,0.0,0.0,0.0,0.0,0.0,0.0,0.0,0.0,0.0,0.0,0.0,0.0,0.0,0.0,0.0,0.0,0.0,0.0,0.0,2.8844,3.1143,3.3001,3.3382,3.5987,3.7175,3.5667,3.7248,3.8316,3.8291,3.8666,3.9133,3.9671,4.0235,4.0927,4.1802,4.2889,4.3566,4.3938,4.4702,4.5497,4.5967,4.6296,4.6807,4.7367,4.7814,4.7873,4.7314,4.7287,4.6865,4.6323,4.57,4.5411,4.5255,4.4098,4.2912,4.1948,4.2527,4.2703,4.2598,0.0,0.0,0.4442,0.4404,0.4788,0.5067,0.4937,0.555,0.6397,0.75,0.9813,1.2041,1.3814,1.5378,1.672,1.7599,1.7379,1.705,1.6649,1.5455,1.5335,1.6329,1.8597,2.0744,2.29,2.4173,2.5544,2.69,2.6988,0.0,0.0,0.0,0.0,0.0,0.0,0.0,0.0,0.0,0.0,0.0,0.0,0.0,2.4215,0.0,0.0,0.0,0.0,0.0,0.0,0.0,0.0,0.0,0.0,0.0,0.0,0.0,0.0,0.0,0.0,0.0,0.0,0.0,0.0,0.0,0.0,0.0,0.0,0.0,0.0,0.0,0.0,0.0,0.0,0.0,0.0,3.2383,3.2768,3.4339,3.5982,3.7739,3.8751,3.911,3.8675,3.9337,3.9953,4.0171,4.0438,4.0901,4.1335,4.154,4.1977,4.2648,4.3367,4.3932,4.448,4.4745,4.5219,4.5987,4.5709,4.6009,4.7007,4.6769,4.6667,4.6727,4.6275,4.6009,4.5768,4.5388,4.5245,4.5159,4.5239,4.4936,4.4373,4.4566,4.4343,4.3835,0.0,0.4109,0.4404,0.4404,0.4665,0.4921,0.5004,0.5471,0.6379,0.8021,0.997,1.198,1.405,1.5332,1.6172,1.6698,1.6756,1.6338,1.5377,1.5278,1.6123,1.8103,2.0116,2.2008,2.3795,2.4729,2.5662,2.6611,2.6594,2.7073,0.0,0.0,0.0,0.0,0.0,0.0,0.0,0.0,0.0,0.0,0.0,0.0,2.5886,2.5098,2.4234,2.3436,2.3003,2.2774,2.2727,2.2529,0.0,0.0,0.0,0.0,0.0,0.0,0.0,0.0,0.0,0.0,0.0,0.0,0.0,0.0,0.0,0.0,0.0,0.0,0.0,0.0,0.0,0.0,0.0,0.0,3.3193,3.5644,3.676,3.7337,3.8201,3.9981,4.0376,4.0525,4.0659,4.0795,4.0927,4.1105,4.1203,4.1428,4.1732,4.1986,4.2474,4.3118,4.3704,4.4377,4.5053,4.5078,4.5474,4.6128,4.6047,4.6404,4.7293,4.7328,4.7284,0.0,4.6901,4.6451,4.6058,4.5688,4.5421,0.0,0.0,0.0,0.0,0.0,4.4924,4.4484,0.0,0.4235,0.4414,0.4433,0.4642,0.4914,0.5208,0.5462,0.645,0.8779,1.0118,1.1741,1.422,1.5151,1.5589,1.5411,1.5825,1.5511,1.4206,1.5511,1.7409,1.9925,2.1018,2.2448,2.4306,2.4827,2.5408,2.5961,2.6083,2.6222,0.0,0.0,0.0,0.0,0.0,0.0,0.0,0.0,0.0,0.0,0.0,0.0,2.7652,2.6683,2.5894,2.5261,2.4437,2.4009,2.3931,2.4044,0.0,0.0,0.0,0.0,0.0,0.0,0.0,0.0,0.0,0.0,0.0,0.0,0.0,0.0,0.0,0.0,0.0,0.0,0.0,0.0,0.0,0.0,0.0,0.0,3.603,3.8549,4.0389,3.995,3.9917,4.0898,4.1235,4.1409,4.1681,4.1732,4.1676,4.143,4.143,4.148,4.1605,0.0,0.0,0.0,0.0,4.4789,4.5502,4.5502,4.5809,4.6513,4.6695,4.7043,4.7703,4.8551,4.859,4.8094,4.8015,4.7529,4.6757,4.6288,4.5817,4.5662,4.5678,4.537,4.4983,4.513,4.4975,0.0,0.0,0.4333,0.4519,0.4614,0.482,0.4967,0.4978,0.5414,0.6455,0.8302,0.9712,1.1288,1.3285,1.4102,1.4608,1.4826,1.4758,1.4832,1.5171,1.638,1.7803,1.9462,2.1145,2.2483,2.3369,2.4452,2.5162,2.5349,2.5594,2.6003,0.0,0.0,0.0,0.0,0.0,0.0,0.0,0.0,0.0,0.0,0.0,0.0,2.8088,2.7642,2.7689,2.7721,2.7214,2.7495,2.7989,2.7185,2.6013,2.4845,2.4468,0.0,0.0,0.0,0.0,0.0,0.0,0.0,0.0,0.0,0.0,0.0,0.0,0.0,0.0,0.0,0.0,0.0,0.0,0.0,0.0,3.5326,3.8196,4.064,4.167,4.1843,4.1813,4.1559,4.1635,4.1631,4.1732,4.1732,4.1828,4.2309,4.2116,4.2384,4.3288,4.3438,0.0,4.4407,4.4986,4.5338,4.5557,4.5557,4.5952,4.6747,0.0,0.0,4.7677,4.7484,4.7392,4.7466,4.7022,4.6682,4.6533,4.6178,4.6033,4.5901,4.5899,4.6079,4.6332,4.569,4.5403,4.5266,0.0,0.4567,0.4665,0.469,0.489,0.507,0.5225,0.5524,0.6394,0.8213,0.9114,1.0359,1.214,1.2737,1.2975,1.2867,1.3121,1.399,0.0,1.686,1.825,2.0228,2.1489,2.2413,2.3103,2.39,2.4487,2.461,2.498,2.5402,2.5878,0.0,0.0,0.0,0.0,0.0,0.0,0.0,0.0,0.0,0.0,0.0,2.7791,2.7835,2.7861,2.774,2.7986,2.8305,2.8492,2.8431,2.7657,2.6604,2.6141,2.4564,2.2621,0.0,0.0,0.0,0.0,0.0,0.0,0.0,0.0,0.0,0.0,0.0,0.0,0.0,0.0,2.8125,2.9377,0.0,3.5916,3.7413,3.9776,4.154,4.2062,4.2309,4.2384,4.2214,4.2091,4.2133,4.2133,4.2133,4.2384,4.2961,4.2874,4.3225,4.4166,4.4102,4.4377,4.5045,4.5229,4.5504,4.5899,4.5779,4.5905,4.6541,4.6382,4.662,4.7231,4.7302,4.7406,4.7496,4.7325,4.7179,4.6839,4.6088,4.6002,4.625,4.5929,4.6112,4.661,4.6025,4.5831,4.597,0.0,0.4903,0.488,0.476,0.4974,0.5227,0.5527,0.5682,0.6351,0.8117,0.8502,0.9249,1.0838,1.1273,1.1374,1.1045,1.189,1.352,0.0,1.7209,1.8805,2.0898,2.1666,2.2348,2.2856,2.3355,2.3604,2.3976,2.4425,2.4766,2.5233,0.0,0.0,0.0,0.0,0.0,0.0,0.0,0.0,0.0,0.0,0.0,2.7552,2.7475,2.7351,2.7299,2.7895,2.7821,2.7757,2.8423,2.8134,2.7437,2.6926,2.6193,2.4894,2.2274,2.191,0.0,0.0,0.0,0.0,0.0,0.0,0.0,0.0,0.0,2.5478,2.6448,2.8872,3.1336,3.2918,3.5739,3.8209,3.9221,4.0736,4.1897,4.2343,4.2198,4.2308,4.2553,4.2599,4.2513,4.2287,4.2499,4.2885,4.3218,4.3342,4.373,4.4653,4.4469,4.4668,4.5354,4.5116,4.5341,4.5885,4.5789,4.5839,4.618,4.6566,4.6686,4.6806,4.7257,4.7586,4.756,4.7938,4.7742,4.7257,4.6342,4.6231,4.6512,4.59,4.6089,4.654,4.6166,4.6245,4.6482,0.0,0.5209,0.5302,0.4861,0.5052,0.5311,0.542,0.5673,0.6303,0.7519,0.8058,0.8623,0.9587,1.0039,1.0388,1.071,1.2499,0.0,1.4963,1.7403,1.9073,1.9863,2.101,2.1825,2.223,2.2856,2.3355,2.3604,2.428,2.4995,2.5607,0.0,0.0,0.0,0.0,0.0,0.0,0.0,0.0,0.0,0.0,0.0,2.7825,2.69,2.705,2.7796,2.7045,2.6884,2.6955,2.6825,2.6734,2.6818,2.732,2.6911,2.5898,2.3981,0.0,2.1293,1.9923,2.0417,2.1885,2.436,2.4247,2.4691,0.0,0.0,2.9633,3.1255,3.3105,3.4607,3.5381,3.7246,3.9068,4.0137,4.128,4.2258,4.2811,4.2463,4.2238,4.2438,4.2824,4.2625,4.1834,4.2618,4.3168,4.3012,4.3364,4.4092,4.4873,4.4923,4.4948,4.4997,4.4997,4.4903,4.4689,4.4953,4.5345,4.5817,4.618,4.6566,4.6806,4.6925,4.7019,4.7324,4.756,4.7626,4.7336,4.7205,4.7066,4.6763,4.6183,4.6272,4.6786,4.6567,4.6482,4.6482,0.0,0.0,0.5375,0.4984,0.514,0.5452,0.5722,0.5824,0.6253,0.7186,0.737,0.7596,0.8263,0.848,0.8885,0.9539,1.1554,0.0,1.4823,1.7216,1.9051,1.9989,2.0645,2.1362,2.2104,2.2355,2.2731,2.3355,2.42,2.493,2.5396,0.0,0.0,0.0,0.0,0.0,0.0,0.0,0.0,0.0,0.0,0.0,2.7155,2.7017,2.6983,2.6792,2.6218,2.6045,0.0,0.0,2.6361,2.609,2.7579,2.7058,2.5611,2.4469,2.3646,0.0,2.3104,2.3534,0.0,0.0,2.6984,2.7924,3.0289,3.0954,3.1561,3.3243,3.4776,3.6135,3.7103,3.8718,3.9989,0.0,4.162,4.2177,4.24,4.2224,4.1997,4.1745,4.1948,4.2184,4.202,4.2494,4.3026,4.3546,4.3815,4.4301,4.5083,4.4667,4.4495,4.4734,4.4734,4.4615,4.447,4.5176,4.5743,4.6289,4.633,4.6476,4.7021,4.6838,4.69,4.718,4.725,4.738,4.7496,4.6647,4.6507,4.6816,4.5893,4.5766,4.6169,4.622,4.635,4.6482,0.0,0.0,0.0,0.523,0.5358,0.5559,0.5778,0.5896,0.6202,0.6837,0.6787,0.6838,0.7248,0.735,0.7717,0.849,1.0556,0.0,0.0,1.671,1.8546,1.9788,2.0302,2.0903,2.1978,2.2104,2.2355,2.2981,2.3821,2.4614,2.5001,2.5856,0.0,0.0,0.0,0.0,0.0,0.0,0.0,0.0,0.0,0.0,2.6184,2.6556,2.6234,2.5433,2.5271,2.4951,0.0,0.0,2.4967,2.4812,2.6277,2.5995,2.5041,2.4313,2.3967,2.393,2.4812,0.0,0.0,2.7856,2.9242,3.0487,3.1155,3.2041,3.3105,3.4387,3.5687,3.6948,3.8238,3.9407,4.0428,4.137,4.1712,4.1932,4.2307,4.2095,4.1696,4.1208,4.1184,4.1492,4.2117,4.2341,4.2874,4.3796,4.4038,4.4354,4.4963,4.4476,4.4207,4.413,4.4277,4.4424,4.4571,4.5204,4.582,4.6637,4.6456,4.6527,4.6903,4.6863,4.6824,4.6975,4.694,4.703,4.7134,4.6256,4.6219,4.6705,4.5813,4.5633,4.5822,4.5875,4.6139,4.635,0.0,0.0,0.0,0.0,0.5685,0.5595,0.5356,0.575,0.6158,0.6372,0.6473,0.6567,0.6791,0.6921,0.7277,0.7967,0.998,0.0,1.295,1.5652,1.7767,1.8835,1.9775,2.0704,2.1601,2.1978,2.223,2.2606,2.3315,2.3985,2.4634,2.4985,0.0,0.0,0.0,0.0,0.0,0.0,0.0,0.0,0.0,0.0,2.536,2.482,2.4368,2.3941,2.3817,0.0,0.0,0.0,2.1973,2.2675,2.2449,2.3261,0.0,2.3719,2.3184,2.2928,0.0,0.0,2.6469,2.9105,3.0345,3.13,3.3039,3.4074,3.4808,3.5336,3.6293,3.7402,3.8547,3.8983,3.9753,4.1677,4.1509,4.1595,4.2683,4.1971,4.1094,4.0901,4.0628,4.0732,0.0,4.2204,4.2928,4.3481,4.401,4.4229,4.4038,4.4524,4.433,4.326,4.3722,4.4257,4.4915,4.4645,4.5182,4.6637,4.6456,4.6326,4.6326,4.6686,4.662,4.6437,4.6785,4.6564,4.6047,4.636,4.6473,4.6533,4.6152,4.6134,4.6408,4.5822,4.5795,4.6007,0.0,0.0,0.0,0.0,0.0,0.5793,0.5463,0.5692,0.6016,0.6431,0.6568,0.0,0.0,0.0,0.0,0.0,0.0,0.0,1.273,1.4654,1.651,1.8071,1.8839,1.9863,2.1012,2.1135,2.1502,2.199,2.2893,2.3532,2.4049,2.4735,0.0,0.0,0.0,0.0,0.0,0.0,0.0,0.0,0.0,0.0,2.4637,2.4196,2.3392,2.2417,0.0,0.0,0.0,0.0,2.1095,2.1273,2.2494,0.0,2.1859,2.1562,2.2443,2.3764,2.4949,0.0,2.8659,3.0546,3.1693,3.2537,3.3435,3.4333,3.5061,3.5328,3.5779,3.6302,3.6974,3.7699,3.8682,3.9694,4.0263,4.0874,4.1668,4.1293,4.0751,4.0314,4.0691,0.0,0.0,0.0,0.0,4.3675,4.3819,4.3866,4.4181,4.4012,4.3747,4.3385,4.3772,4.4087,4.4281,4.4962,4.577,4.6637,4.6709,4.6799,4.6686,4.6566,4.6679,4.6923,4.6681,4.654,4.6539,4.6126,4.5924,4.5846,4.538,4.5362,4.5578,4.5125,4.5261,4.5715,0.0,0.0,0.0,0.0,0.0,0.0,0.0,0.0,0.0,0.0,0.0,0.0,0.0,0.0,0.0,0.0,0.0,0.0,0.0,0.0,1.4875,1.6482,1.7245,1.8117,1.9185,1.9312,1.9749,2.0544,2.1423,2.2156,2.2886,2.3671,0.0,0.0,0.0,0.0,0.0,0.0,0.0,0.0,0.0,0.0,2.2984,2.2502,2.151,0.0,0.0,0.0,0.0,0.0,0.0,1.9934,2.1257,2.1415,2.1116,2.1295,2.2662,2.4703,2.6589,2.8241,2.9891,3.1689,3.2684,3.3246,3.3636,3.4314,3.4889,3.4869,3.4701,3.4812,3.5634,3.6024,3.6788,3.846,3.9207,3.9888,4.1133,4.1177,4.0841,4.0314,4.0781,4.125,0.0,0.0,0.0,4.3892,4.3843,4.3866,4.4034,4.389,4.3721,4.3529,4.3941,4.4257,4.4817,4.5354,4.587,4.6462,4.6706,4.6773,4.6806,4.6566,4.6654,4.6898,4.6565,4.6425,4.6513,4.5779,4.55,4.5558,4.4957,4.4856,4.518,4.4964,4.518,4.5502,0.0,0.0,0.0,0.0,0.0,0.0,0.0,0.0,0.0,0.0,0.0,0.0,0.0,0.0,0.0,0.0,0.0,0.0,0.0,0.0,0.0,1.4222,1.5,1.5738,1.6334,1.6846,1.7548,1.8442,1.9098,2.0003,2.1062,2.172,2.2199,0.0,0.0,0.0,0.0,0.0,0.0,0.0,0.0,0.0,2.0438,1.9906,0.0,0.0,0.0,0.0,0.0,0.0,0.0,1.8859,1.9094,2.0392,2.209,2.2818,2.4047,2.5715,2.8383,2.9488,3.0432,3.2462,3.3359,3.3699,3.3678,3.4183,3.4431,3.3813,3.3153,3.2997,0.0,0.0,3.4393,3.8013,3.8446,3.903,4.121,4.1485,4.1412,0.0,0.0,0.0,0.0,0.0,0.0,4.3892,0.0,4.4058,4.3577,4.4058,4.4106,4.3577,4.4058,4.4936,4.6044,4.5576,4.5696,4.6301,4.6301,4.6446,4.6806,4.6806,4.662,4.6462,4.6462,4.6245,4.6021,4.5477,4.533,4.5558,4.5009,4.4991,4.5287,4.518,4.518,4.5287,0.0,0.0,0.0,0.0,0.0,0.0,0.0,0.0,0.0,0.0,0.0,0.0,0.0,0.0,0.0,0.0,0.0,0.0,0.0,0.0,0.0,0.0,0.0,0.0,0.0,0.0,0.0,0.0,0.0,1.8557,1.9037,1.9699,2.0145,0.0,0.0,0.0,0.0,0.0,0.0,0.0,0.0,0.0,1.8894,0.0,0.0,0.0,0.0,0.0,0.0,0.0,0.0,0.0,2.1449,2.2372,2.3577,2.4512,2.6321,2.8383,3.0118,3.165,3.2993,3.3907,3.4202,3.4202,3.3843,3.3841,3.3647,3.2899,3.1797,3.0877,0.0,0.0,0.0,3.5017,3.7113,0.0,4.1211,4.1136,0.0,4.1995,0.0,4.2846,4.2846,4.3357,0.0,0.0,4.3915,4.3699,4.4106,4.4275,4.4275,4.413,4.4521,4.4889,4.5527,4.5892,4.618,4.6301,4.6301,4.6446,4.6806,4.6566,4.6704,4.7,4.7,4.681,4.6642,4.6716,4.6395,4.5805,4.5564,4.5549,4.5688,4.5395,4.5287,4.5502,0.0,0.0,0.0,0.0,0.0,0.0,0.0,0.0,0.0,0.0,0.0,0.0,0.0,0.0,0.0,0.0,0.0,0.0,0.0,0.0,0.0,0.0,0.0,0.0,0.0,0.0,0.0,0.0,0.0,0.0,0.0,1.7581,1.806,1.832,0.0,0.0,0.0,0.0,0.0,0.0,0.0,0.0,0.0,0.0,0.0,0.0,0.0,0.0,0.0,0.0,0.0,2.2992,2.3453,2.421,2.5218,2.6764,0.0,2.9849,3.1642,3.2976,3.3934,3.3976,3.4143,3.3914,3.2434,3.219,3.1867,3.0227,2.905,0.0,2.7876,0.0,0.0,0.0,0.0,0.0,4.114,4.1351,4.1585,0.0,4.3266,0.0,4.3498,4.4042,4.4487,0.0,4.4206,4.4208,4.4693,4.4717,4.4717,4.4717,4.4963,4.5208,4.5574,4.618,4.6446,4.6301,4.6446,4.6566,4.6806,4.6566,4.69,4.7442,0.0,4.7287,4.747,4.7325,4.69,4.6394,4.6156,4.5898,4.5795,4.5502,4.5395,4.5502,0.0,0.0,0.0,0.0,0.0,0.0,0.0,0.0,0.0,0.0,0.7288,0.0,0.0,0.0,0.0,0.0,0.0,0.0,0.0,0.0,0.0,0.0,0.0,0.0,0.0,0.0,0.0,0.0,0.0,0.0,0.0,0.0,0.0,0.0,0.0,0.0,0.0,0.0,0.0,0.0,0.0,0.0,0.0,0.0,0.0,0.0,0.0,0.0,0.0,0.0,2.2551,2.4564,2.5172,2.6064,2.7242,2.9221,3.0181,3.1044,3.3004,3.3886,3.4134,3.3679,3.3782,3.3285,3.0784,3.0201,2.9641,2.7153,0.0,2.5529,2.5538,2.7386,2.9669,3.2057,0.0,3.7966,4.1022,4.1731,4.2324,4.3262,4.3643,4.3856,4.3929,4.4166,4.4482,4.4689,4.4793,4.5086,4.5331,4.5331,4.5331,4.5331,4.5331,4.5453,4.5817,4.6421,4.6566,4.6301,4.6686,4.6806,4.6806,4.6806,4.7138,4.756,0.0,0.0,4.8146,4.7649,4.7328,4.7086,4.6724,4.6221,4.5822,4.5635,4.5395,4.5287,0.0,0.0,0.0,0.0,0.0,0.0,0.0,0.0,0.0,0.0,0.767,0.738,0.0,0.0,0.0,0.0,0.0,0.0,0.0,0.0,0.0,0.0,0.0,0.0,0.0,0.0,0.0,0.0,0.0,0.0,0.0,0.0,0.0,0.0,0.0,0.0,0.0,0.0,0.0,0.0,0.0,0.0,0.0,0.0,0.0,0.0,0.0,0.0,0.0,0.0,2.418,2.6447,2.7058,2.8351,2.9868,3.1023,3.214,3.3284,3.432,3.4838,3.5086,3.4631,3.401,3.309,3.1312,2.9743,0.0,0.0,2.4712,2.3837,2.3935,2.5666,2.806,3.0859,3.383,3.702,0.0,0.0,4.2352,0.0,0.0,0.0,0.0,0.0,0.0,0.0,0.0,0.0,4.5331,4.5331,4.5331,4.5331,4.5331,4.5453,4.5817,4.618,4.6301,4.6301,4.6686,4.6806,4.6806,4.6993,4.7205,4.7324,0.0,0.0,4.8172,4.8442,4.8391,4.8369,4.7558,4.697,4.6572,4.5875,4.5395,4.5287,0.0,0.0,0.0,0.0,0.0,0.0,0.0,0.8406,0.8727,0.9282,0.9203,0.8867,0.8155,0.7954,0.7962,0.0,0.0,0.0,0.0,0.0,0.0,0.0,0.0,0.0,0.0,0.0,0.0,0.0,0.0,0.0,0.0,0.0,0.0,0.0,0.0,0.0,0.0,0.0,0.0,0.0,0.0,0.0,0.0,0.0,0.0,0.0,0.0,0.0,0.0,0.0,2.3894,2.7137,2.8349,2.9616,3.0888,3.2113,3.2912,3.3618,3.4799,3.5252,3.5252,3.4569,3.372,3.225,2.9534,0.0,0.0,0.0,2.2496,2.2034,2.209,2.4258,0.0,2.8746,3.18,3.5329,3.9202,0.0,0.0,0.0,0.0,0.0,0.0,0.0,0.0,0.0,0.0,0.0,4.5817,4.5817,4.5939,4.6059,4.5939,4.5939,4.6059,4.6516,4.6661,4.6566,4.7019,4.7257,4.7257,4.7349,4.7586,4.7703,4.8055,0.0,4.8548,4.901,4.9007,4.8669,4.8373,4.781,4.7082,4.6464,4.5955,4.5609,0.0,0.0,0.0,0.0,0.0,0.0,0.0,0.9444,0.9939,1.0707,1.1041,1.0771,0.9565,0.8974,0.8656,0.0,0.0,0.0,0.0,0.0,0.0,0.0,0.0,0.0,0.0,0.0,0.0,0.0,0.0,0.0,0.0,0.0,0.0,0.0,0.0,0.0,0.0,0.0,0.0,0.0,0.0,0.0,0.0,0.0,0.0,0.0,0.0,0.0,0.0,0.0,2.3076,2.6447,2.8066,2.9702,3.1112,3.2492,3.3013,3.3538,3.4943,3.5273,3.5086,3.4279,3.3161,3.1387,2.7735,2.6004,0.0,0.0,2.0686,2.0731,2.0725,0.0,2.5301,0.0,2.9892,3.3412,3.7607,3.9077,0.0,0.0,0.0,0.0,0.0,0.0,0.0,0.0,0.0,0.0,4.6421,4.62,4.6245,4.6603,4.6364,4.6245,4.6245,4.6917,4.7112,4.69,4.7468,4.7703,4.7821,4.7938,4.8055,4.8431,4.8663,0.0,0.0,4.9354,4.94,4.8969,4.9057,4.849,4.7433,4.7056,4.6518,4.5901,0.0,0.0,0.0,0.0,0.0,0.0,0.0,1.0573,1.1274,1.2277,1.2712,1.2651,1.1846,1.0591,0.9723,0.0,0.0,0.0,0.0,0.0,0.0,0.0,0.0,0.0,0.0,0.0,0.0,0.0,0.0,0.0,0.0,0.0,0.0,0.0,0.0,0.0,0.0,0.0,0.0,0.0,0.0,0.0,0.0,0.0,0.0,0.0,0.0,0.0,0.0,0.0,0.0,2.3727,2.513,2.7904,3.075,3.1511,0.0,0.0,3.4551,3.4817,3.4693,3.4196,3.2663,3.0391,2.7694,0.0,2.35,2.0862,2.0401,2.0531,2.085,0.0,0.0,0.0,0.0,3.1763,3.6685,3.884,4.0803,0.0,0.0,0.0,0.0,0.0,0.0,0.0,0.0,0.0,0.0,4.5943,4.5641,4.6019,4.5902,4.5902,4.5902,4.6713,4.7205,4.7205,4.756,4.7821,4.8172,4.8431,4.8779,4.901,0.0,0.0,0.0,4.9556,4.9756,4.9874,4.9331,4.8514,4.7674,4.7109,4.6411,4.5715,0.0,0.0,0.0,0.0,0.0,0.0,1.0009,1.0749,1.1509,1.273,1.3503,1.3711,1.308,1.2567,1.1741,1.0388,0.0,0.0,0.0,0.0,0.0,0.0,0.0,0.0,0.0,0.0,0.0,0.0,0.0,0.0,0.0,0.0,0.0,0.0,0.0,0.0,0.0,0.0,0.0,0.0,0.0,0.0,0.0,0.0,0.0,0.0,0.0,0.0,0.0,0.0,0.0,0.0,2.2756,2.4706,0.0,0.0,3.1401,3.2711,3.4072,3.4548,3.459,3.3844,3.1954,2.9593,2.7374,0.0,2.2713,2.0886,2.0306,2.0236,2.0782,2.1362,0.0,0.0,0.0,0.0,3.2792,3.5342,3.7857,0.0,0.0,0.0,0.0,0.0,0.0,0.0,0.0,0.0,0.0,4.6045,4.5952,4.6637,4.5999,4.5821,4.6178,4.6733,4.6978,4.6978,4.7665,4.8198,4.8548,4.8663,4.8895,4.9125,0.0,0.0,0.0,4.9783,4.9897,4.9983,4.9766,4.8976,4.8001,4.7758,4.7055,4.6139,0.0,0.0,0.0,0.0,0.0,0.8675,1.0109,1.111,1.2044,1.3055,1.4024,1.4425,1.4021,1.3741,1.3142,1.1956,1.096,0.0,0.0,0.0,0.0,0.0,0.0,0.0,0.0,0.0,0.0,0.0,0.0,0.0,0.0,0.0,0.0,0.0,0.0,0.0,0.0,0.0,0.0,0.0,0.0,0.0,0.0,0.0,0.0,0.0,0.0,0.0,0.0,0.0,0.0,0.0,0.0,0.0,0.0,0.0,2.9864,3.1395,3.3007,3.3934,3.4226,3.358,3.1458,2.9098,0.0,0.0,2.2114,2.0729,2.0165,2.0093,2.0556,2.0991,0.0,0.0,0.0,2.6813,3.0553,3.314,3.5737,0.0,0.0,0.0,0.0,0.0,0.0,0.0,0.0,0.0,0.0,4.5984,4.6115,4.6695,4.6103,4.5974,4.6386,4.6953,4.725,4.725,4.8015,4.8548,4.8779,4.8895,4.9125,4.9354,0.0,0.0,0.0,4.9897,5.001,4.9983,4.982,4.9142,4.8328,4.8165,4.7457,4.6587,0.0,0.0,0.0,0.0,0.0,0.0,1.0397,1.2012,1.3184,1.3457,1.444,1.5039,1.4829,1.3834,1.3516,1.4299,1.2424,0.0,0.0,0.0,0.0,0.0,0.0,0.0,0.0,0.0,0.0,1.381,1.4293,0.0,0.0,0.0,0.0,0.0,0.0,0.0,0.0,0.0,0.0,0.0,0.0,0.0,0.0,0.0,0.0,0.0,0.0,0.0,0.0,0.0,0.0,0.0,0.0,2.0479,0.0,0.0,2.7723,3.0034,3.144,3.2712,3.3544,3.3317,3.1529,2.9117,0.0,0.0,2.1848,2.0217,1.9918,1.9958,2.0188,2.0887,2.1789,2.3038,0.0,0.0,3.1057,3.3387,0.0,0.0,0.0,0.0,0.0,0.0,0.0,0.0,0.0,0.0,0.0,4.5806,4.5536,4.5552,4.6186,4.6473,4.6499,4.7623,4.8172,4.8172,4.8548,4.8779,4.9125,4.9469,4.9783,0.0,0.0,0.0,0.0,5.001,5.001,4.9956,4.9359,4.8982,4.8598,4.7996,4.7421,4.6901,0.0,0.0,0.0,0.0,0.0,0.0,0.0,1.1158,1.1856,1.2018,1.2792,1.3537,1.4042,1.3719,1.3604,1.4043,1.2668,0.0,0.0,0.0,0.0,0.0,0.0,0.0,0.0,0.0,1.4922,1.4875,1.5864,1.6262,0.0,0.0,0.0,0.0,0.0,0.0,0.0,0.0,0.0,0.0,0.0,0.0,0.0,0.0,0.0,0.0,0.0,0.0,0.0,0.0,0.0,0.0,0.0,0.0,0.0,2.2252,2.5099,2.7964,2.8657,2.9685,3.0427,2.9252,2.8006,2.6628,2.5139,0.0,2.1464,2.0741,2.0393,2.038,2.0911,2.1432,2.2367,2.4186,2.5397,0.0,0.0,0.0,0.0,0.0,0.0,0.0,0.0,0.0,0.0,0.0,0.0,0.0,0.0,4.6566,4.6783,4.7017,4.6308,4.6376,4.7389,4.7529,4.7712,4.7942,4.8479,4.901,4.9469,4.9556,0.0,0.0,0.0,0.0,0.0,5.001,5.001,4.9956,4.9581,4.9091,4.8598,4.8208,4.7708,4.7184,0.0,0.0,0.0,0.0,0.0,0.0,0.0,1.05,1.1023,1.114,1.1757,1.2528,1.345,1.3587,1.3759,1.4177,1.3406,0.0,0.0,0.0,0.0,0.0,0.0,0.0,0.0,1.4631,1.5314,1.5722,1.6669,1.706,1.698,1.6901,1.6758,0.0,0.0,0.0,0.0,0.0,0.0,0.0,0.0,0.0,1.6618,0.0,0.0,0.0,0.0,0.0,0.0,0.0,0.0,0.0,0.0,0.0,0.0,0.0,2.2835,2.5267,2.6346,2.7511,2.8308,2.7506,2.6368,2.5179,2.4059,0.0,0.0,2.0669,2.0494,2.0634,2.1369,2.18,2.248,2.3929,2.5123,0.0,0.0,0.0,0.0,0.0,0.0,0.0,0.0,0.0,0.0,0.0,0.0,0.0,0.0,0.0,4.7492,4.7832,4.7039,4.7054,4.7993,4.8004,4.8109,4.8338,4.8824,4.924,4.9556,4.967,0.0,0.0,0.0,0.0,0.0,5.001,5.001,4.9928,4.9446,4.9117,4.8786,4.8277,4.7723,4.7391,0.0,0.0,0.0,0.0,0.0,0.0,0.0,1.0046,1.0595,1.0664,1.1211,1.1979,1.2955,1.3351,1.3842,1.4523,1.4397,0.0,0.0,0.0,0.0,0.0,0.0,0.0,0.0,1.4541,1.5337,1.6385,1.6906,1.7239,1.7459,1.7482,1.6876,1.5788,1.6042,0.0,0.0,0.0,0.0,0.0,0.0,1.6054,0.0,0.0,0.0,0.0,0.0,0.0,0.0,0.0,0.0,0.0,0.0,0.0,0.0,0.0,0.0,0.0,0.0,2.5835,2.6785,2.6929,2.5858,2.4457,2.3202,0.0,0.0,0.0,2.0266,2.0711,2.1667,2.2097,2.248,2.2936,2.4484,0.0,0.0,0.0,0.0,0.0,0.0,0.0,0.0,0.0,0.0,0.0,0.0,0.0,0.0,0.0,4.7705,4.8219,4.8385,4.8439,4.8439,4.8859,4.9125,4.9125,4.9469,4.9556,4.967,4.9897,0.0,0.0,0.0,0.0,0.0,5.001,4.9983,4.9932,4.9118,4.8868,4.8996,4.8041,4.7726,4.7726,0.0,0.0,0.0,0.0,0.0,0.0,0.0,0.0,0.0,0.0,1.0321,1.1092,1.1743,1.2555,1.3204,0.0,0.0,0.0,0.0,0.0,0.0,0.0,0.0,0.0,0.0,1.5385,1.6236,1.7147,1.8184,1.8694,1.8745,1.863,1.8135,1.742,1.6888,0.0,0.0,0.0,0.0,0.0,1.5837,1.6233,0.0,0.0,0.0,0.0,1.7832,1.827,0.0,0.0,0.0,0.0,0.0,0.0,0.0,0.0,2.0234,2.0519,2.1144,0.0,2.2935,2.2048,2.207,2.2134,0.0,2.0705,0.0,0.0,0.0,2.1045,2.2636,2.3255,2.414,2.5877,2.7318,2.9101,3.1529,0.0,0.0,0.0,0.0,0.0,0.0,0.0,0.0,0.0,0.0,0.0,0.0,0.0,4.8699,4.8584,4.9239,4.9481,4.9254,4.916,4.924,4.9442,4.9556,4.967,4.9897,5.0263,0.0,0.0,0.0,0.0,5.0683,5.0683,5.0408,4.9913,4.9495,4.9019,4.8625,4.821,4.8032,4.8032,0.0,0.0,0.0,0.0,0.0,0.0,0.0,0.0,0.0,0.0,1.0302,1.1065,1.1447,1.2796,0.0,0.0,0.0,0.0,0.0,0.0,0.0,0.0,0.0,0.0,1.5298,1.5862,1.6885,1.8337,1.8933,1.9505,1.9949,1.9543,1.8797,1.7771,1.683,1.6344,0.0,0.0,0.0,0.0,1.589,0.0,0.0,0.0,0.0,0.0,1.7612,1.8036,0.0,1.9745,1.9927,1.9838,0.0,0.0,0.0,0.0,1.9756,1.9721,1.9768,2.0831,2.1789,2.1296,2.1562,2.19,2.1578,0.0,0.0,0.0,0.0,2.1482,2.2603,2.3967,2.5268,2.6298,2.8329,0.0,0.0,0.0,0.0,0.0,0.0,0.0,0.0,0.0,0.0,0.0,0.0,0.0,0.0,0.0,4.8503,4.8514,4.9193,4.9626,4.9783,4.9556,4.9556,4.9783,4.9924,5.0037,5.0235,5.0297,0.0,0.0,0.0,0.0,5.0878,5.0602,5.0298,4.9912,4.9454,4.9029,4.8534,4.8331,4.8404,4.8555,0.0,0.0,0.0,0.0,0.0,0.0,0.0,0.0,0.0,0.0,0.0,0.0,0.0,0.0,0.0,0.0,0.0,0.0,0.0,0.0,0.0,0.0,0.0,1.5834,1.5896,1.6118,1.7255,1.9272,1.943,1.9965,2.0777,2.0343,1.9157,1.746,1.6527,1.6122,0.0,0.0,0.0,0.0,1.58,0.0,0.0,0.0,0.0,0.0,0.0,0.0,0.0,1.9613,2.0089,2.0217,2.0486,0.0,0.0,0.0,0.0,0.0,1.9494,2.0782,2.2035,2.2036,2.2226,2.2432,2.2344,0.0,0.0,0.0,0.0,0.0,0.0,2.4798,0.0,0.0,0.0,0.0,0.0,0.0,0.0,0.0,0.0,0.0,0.0,0.0,0.0,0.0,0.0,0.0,0.0,0.0,0.0,4.8137,4.8706,4.9413,5.001,5.001,5.001,5.001,5.0293,5.035,5.035,5.0051,5.0242,0.0,0.0,0.0,5.0712,5.0379,5.0101,4.9824,4.935,4.8977,4.863,4.8578,4.872,4.8995,0.0,0.0,0.0,0.0,0.0,0.0,0.0,0.0,0.0,0.0,0.0,0.0,0.0,0.0,0.0,0.0,0.0,0.0,0.0,0.0,0.0,0.0,1.5552,1.5634,1.6297,1.6497,1.7257,1.8541,1.9838,2.042,2.0348,2.084,1.9651,1.7063,1.6735,1.6025,1.5025,0.0,0.0,1.5383,1.6083,0.0,0.0,0.0,0.0,0.0,0.0,0.0,0.0,1.9008,1.9585,2.0065,2.0065,0.0,0.0,0.0,0.0,0.0,2.0051,2.151,2.2466,2.0791,2.1296,2.21,2.1777,0.0,0.0,0.0,0.0,0.0,0.0,0.0,0.0,0.0,0.0,0.0,0.0,0.0,0.0,0.0,0.0,0.0,0.0,0.0,0.0,0.0,0.0,0.0,0.0,0.0,0.0,4.7808,4.8706,4.9413,5.001,5.001,5.001,5.001,4.9717,4.9721,4.9721,4.9633,4.9626,0.0,0.0,5.0528,5.0163,5.0798,5.0452,4.9465,4.9603,4.9307,4.8824,4.8838,4.8867,4.8852,0.0,0.0,0.0,0.0,0.0,0.0,0.0,0.0,0.0,0.0,0.0,0.0,0.0,0.0,0.0,0.0,0.0,0.0,0.0,0.0,0.0,1.6118,1.5845,1.6197,1.7263,1.7648,1.8577,2.0112,2.1482,2.1915,2.1495,2.041,1.8958,1.7078,1.6466,1.5921,1.542,1.5262,1.5334,1.5517,0.0,0.0,0.0,0.0,0.0,0.0,0.0,0.0,0.0,0.0,1.9133,1.9863,1.9737,0.0,0.0,0.0,0.0,0.0,1.9712,2.0936,2.2106,2.1906,2.3257,2.4616,2.4591,0.0,0.0,0.0,0.0,0.0,0.0,0.0,0.0,0.0,0.0,0.0,0.0,0.0,0.0,0.0,0.0,0.0,0.0,0.0,0.0,0.0,0.0,0.0,0.0,0.0,0.0,0.0,4.792,4.8409,4.8791,4.9118,4.9334,4.9521,4.9255,4.92,4.9308,4.9103,4.9308,4.9749,0.0,5.0101,5.0544,5.0727,5.0663,5.0408,5.048,5.0268,4.9938,5.028,5.0395,5.0452,0.0,0.0,0.0,0.0,0.0,0.0,0.0,0.0,0.0,0.0,0.0,0.0,0.0,0.0,0.0,0.0,0.0,0.0,0.0,0.0,1.4949,1.6154,1.6244,1.6958,1.8467,1.8901,2.0005,2.1771,2.2902,2.3249,2.2821,2.0269,1.8528,1.748,1.6618,1.6137,1.5979,1.5796,1.578,1.5897,0.0,0.0,0.0,0.0,0.0,0.0,0.0,0.0,0.0,0.0,0.0,0.0,0.0,0.0,0.0,1.9855,1.942,1.92,1.9583,2.0572,2.1933,2.3501,2.5099,2.6457,2.7344,0.0,0.0,0.0,0.0,0.0,0.0,0.0,0.0,0.0,0.0,0.0,0.0,0.0,0.0,0.0,0.0,0.0,0.0,0.0,0.0,0.0,0.0,0.0,0.0,0.0,0.0,0.0,4.7244,4.7646,4.7996,4.8297,4.8654,4.9145,4.8843,4.8783,4.8969,4.8674,4.8882,4.9511,4.9277,4.9671,5.0516,5.0626,5.0872,5.1242,5.1276,5.1177,5.103,5.1517,5.1775,5.2052,0.0,0.0,0.0,0.0,0.0,0.0,0.0,0.0,0.0,0.0,0.0,0.0,0.0,0.0,0.0,0.0,0.0,0.0,0.0,0.0,1.5048,1.6508,1.667,1.7684,1.9631,1.997,2.0791,2.2153,2.3434,2.393,2.3559,2.1068,1.9399,1.8477,1.7868,1.6982,1.6013,1.6296,1.6436,1.6485,1.6925,0.0,0.0,0.0,0.0,0.0,0.0,0.0,0.0,0.0,0.0,0.0,0.0,0.0,2.0521,1.9921,1.9373,1.9227,2.0527,2.1396,2.2475,2.4628,2.4873,0.0,2.8221,2.8239,0.0,0.0,0.0,0.0,0.0,0.0,0.0,0.0,0.0,0.0,0.0,0.0,0.0,0.0,0.0,0.0,0.0,0.0,0.0,0.0,0.0,0.0,0.0,0.0,0.0,0.0,0.0,4.7837,4.8598,4.8105,4.8239,4.9059,4.877,4.8569,4.8674,4.8266,4.8218,4.8274,4.9087,4.9473,4.9643,5.0669,5.1206,5.1264,5.1439,5.1512,5.1512,5.157,5.218,5.2632,0.0,0.0,0.0,0.0,0.0,0.0,0.0,0.0,0.0,0.0,0.0,0.0,0.0,0.0,0.0,0.0,0.0,0.0,0.0,0.0,1.4782,1.5864,1.691,1.7881,1.8859,2.0406,2.1893,2.3392,2.3337,2.2955,2.2263,2.0306,1.9015,1.8393,1.7748,1.7293,1.7062,1.686,1.6837,1.6956,1.7257,1.7112,0.0,0.0,0.0,0.0,0.0,0.0,0.0,0.0,1.8371,1.9076,1.9153,1.9786,2.0416,1.9666,1.9245,1.9205,2.0031,2.1326,2.2891,2.458,0.0,0.0,0.0,0.0,0.0,0.0,0.0,0.0,0.0,0.0,0.0,0.0,0.0,0.0,0.0,0.0,0.0,0.0,0.0,0.0,0.0,0.0,0.0,0.0,0.0,0.0,0.0,0.0,0.0,0.0,0.0,4.7128,4.7873,4.7653,4.7861,4.8499,4.7965,4.7854,4.8061,4.7912,4.8004,4.8409,4.8736,4.9177,4.9779,5.0918,5.1715,5.2121,5.2939,5.329,5.329,5.329,5.3539,5.3686,0.0,0.0,0.0,0.0,0.0,0.0,0.0,0.0,0.0,0.0,0.0,0.0,0.0,0.0,0.0,0.0,0.0,0.0,1.453,1.4221,1.456,1.5607,1.6686,1.7855,1.9118,2.0653,2.204,2.3307,2.2719,2.219,2.1718,1.9713,1.8985,1.9226,1.8009,1.7799,1.8287,1.7394,1.7139,1.7323,1.7222,1.7153,0.0,0.0,0.0,0.0,0.0,0.0,0.0,0.0,1.8079,1.8572,1.8861,1.9588,2.0231,1.9728,1.9707,1.9935,2.0231,2.1614,2.3315,0.0,0.0,0.0,0.0,0.0,0.0,0.0,0.0,0.0,0.0,0.0,0.0,0.0,0.0,0.0,0.0,0.0,0.0,0.0,0.0,0.0,0.0,0.0,0.0,0.0,0.0,0.0,0.0,0.0,0.0,0.0,0.0,4.6901,4.7391,4.7494,4.7801,4.8207,4.7903,4.7903,4.8004,4.8004,4.8308,4.8581,4.8681,4.9366,5.037,5.1309,5.2282,5.3201,5.4024,5.4304,5.4304,5.4304,5.4406,5.4406,0.0,0.0,0.0,0.0,0.0,0.0,0.0,0.0,1.3969,1.3383,1.4924,0.0,0.0,0.0,0.0,0.0,0.0,0.0,1.394,1.3734,1.4347,1.591,1.6064,1.7616,2.0879,2.069,2.0879,2.1602,2.1506,2.173,2.2196,1.961,1.945,2.1274,1.894,1.8575,1.9554,1.7786,1.73,1.7639,1.6851,1.6917,1.7488,0.0,0.0,0.0,0.0,0.0,0.0,0.0,1.8409,1.8595,1.9813,2.012,2.0051,2.0167,2.0795,2.1511,2.1511,2.232,2.378,0.0,0.0,0.0,0.0,0.0,0.0,0.0,0.0,0.0,0.0,0.0,0.0,0.0,0.0,0.0,0.0,0.0,0.0,0.0,0.0,0.0,0.0,0.0,0.0,0.0,0.0,0.0,0.0,0.0,0.0,0.0,0.0,0.0,4.7726,4.7976,4.828,4.8481,4.881,4.881,4.8481,4.881,4.8909,4.8909,4.9207,5.0025,5.1279,5.1787,5.2952,5.4304,5.4304,5.4304,5.4304,5.4304,5.4539,5.4713,0.0,0.0,0.0,0.0,0.0,0.0,0.0,0.0,1.3584,1.3211,1.4265,0.0,0.0,0.0,0.0,0.0,0.0,0.0,1.4862,1.4499,1.4635,1.5531,1.5855,1.6281,1.6855,1.738,1.8687,2.0879,2.0698,2.0147,1.9357,1.9098,1.91,1.9364,1.9559,1.946,1.9035,1.8344,1.8076,1.8043,1.8058,1.784,1.7556,0.0,0.0,0.0,0.0,0.0,0.0,0.0,0.0,0.0,1.8923,1.9748,2.0505,2.0157,2.0532,2.109,2.1407,2.3293,0.0,2.7091,0.0,0.0,0.0,0.0,0.0,0.0,0.0,0.0,0.0,0.0,0.0,0.0,0.0,0.0,0.0,0.0,0.0,0.0,0.0,0.0,0.0,0.0,0.0,0.0,0.0,0.0,0.0,0.0,0.0,0.0,0.0,0.0,4.7391,4.7875,4.828,4.8481,4.9009,4.9009,4.881,4.8909,4.9009,4.9207,4.9305,4.9606,5.0208,5.1707,5.3355,5.4976,5.4976,5.4976,5.4976,5.4976,5.4976,5.5078,0.0,0.0,0.0,0.0,0.0,0.0,0.0,0.0,1.3678,1.3166,1.4068,1.4674,0.0,0.0,0.0,0.0,0.0,0.0,0.0,1.4863,1.4998,1.5689,1.5758,1.5837,1.5977,1.7141,1.8435,1.9795,1.9307,1.8735,1.8075,1.8822,1.9489,2.0133,2.0527,2.0486,2.0103,1.9232,1.8623,1.8349,1.8399,1.8194,1.7882,0.0,0.0,0.0,0.0,0.0,0.0,0.0,0.0,0.0,1.8484,1.911,1.983,2.0456,2.0884,2.151,2.2989,2.4806,0.0,2.9398,3.1837,3.4244,0.0,0.0,0.0,0.0,0.0,0.0,0.0,0.0,0.0,0.0,0.0,0.0,0.0,0.0,0.0,0.0,0.0,0.0,0.0,0.0,0.0,0.0,0.0,0.0,0.0,0.0,0.0,0.0,0.0,0.0,4.7596,4.8179,4.8481,4.8681,4.9207,4.9404,4.9178,4.9178,4.9305,4.9502,4.9762,5.0075,5.0554,5.2141,5.3544,5.482,5.5089,5.5179,5.5179,5.528,5.5381,5.5381,0.0,0.0,1.2815,1.2834,0.0,0.0,0.0,0.0,1.4035,1.3258,1.4094,1.4767,0.0,0.0,0.0,0.0,0.0,0.0,0.0,0.0,1.5402,1.6268,1.589,1.6187,1.7308,1.8899,1.9299,1.8497,1.7698,1.7624,1.8151,1.8871,2.0357,2.2278,2.1496,2.1422,2.1886,2.0007,1.8899,1.8394,1.8365,1.8325,1.8266,1.8218,0.0,0.0,0.0,0.0,0.0,0.0,0.0,0.0,1.8376,1.8349,1.8513,2.0777,2.1611,2.249,2.5268,0.0,0.0,3.2329,3.3843,0.0,0.0,0.0,0.0,0.0,0.0,0.0,0.0,0.0,0.0,0.0,0.0,0.0,0.0,0.0,0.0,0.0,0.0,0.0,0.0,0.0,0.0,0.0,0.0,0.0,0.0,0.0,0.0,0.0,0.0,0.0,4.8032,4.861,4.8909,0.0,4.9375,4.9669,4.9766,4.9669,4.9669,4.9795,5.0435,5.1022,5.166,5.2741,5.3544,5.4192,5.485,5.5089,5.5119,5.5481,5.5581,5.5681,0.0,0.0,1.3034,1.3034,0.0,0.0,0.0,0.0,0.0,0.0,0.0,0.0,0.0,0.0,0.0,0.0,0.0,0.0,0.0,0.0,1.5787,1.7025,1.7395,1.7607,1.7595,1.7877,1.7911,1.7667,1.6992,1.7524,1.9112,2.0045,2.0599,2.0939,2.1251,2.0684,1.9409,1.8722,1.8227,1.8012,1.9523,1.9401,1.8416,1.9405,1.9127,0.0,0.0,0.0,0.0,0.0,0.0,0.0,1.8179,1.8482,1.8878,1.9623,2.1117,2.2705,2.4177,2.679,0.0,0.0,3.6496,3.9359,0.0,0.0,0.0,0.0,0.0,0.0,0.0,0.0,0.0,0.0,0.0,0.0,0.0,0.0,0.0,0.0,0.0,0.0,0.0,0.0,0.0,0.0,0.0,0.0,0.0,0.0,0.0,0.0,0.0,4.7699,4.7829,4.8308,4.8681,0.0,4.9207,4.96,4.999,4.9766,4.9766,4.999,5.0359,5.1002,5.1765,5.2032,5.2643,5.3473,5.4162,5.4431,5.4491,5.53,5.5581,5.5681,0.0,0.0,0.0,0.0,0.0,0.0,0.0,0.0,0.0,0.0,0.0,0.0,0.0,0.0,0.0,0.0,0.0,0.0,0.0,0.0,1.639,1.7818,1.9021,1.8928,1.746,1.7559,1.7638,1.7609,1.6923,1.7637,1.9574,2.0167,2.0922,2.1729,2.1685,2.0926,1.9775,1.9248,1.874,1.8427,1.9781,1.9815,1.9047,1.9426,1.9131,1.8439,1.8489,0.0,0.0,0.0,0.0,0.0,0.0,0.0,1.8382,1.9832,2.0703,2.1901,2.5084,0.0,0.0,3.3997,0.0,4.0262,4.0206,0.0,0.0,0.0,0.0,0.0,0.0,0.0,0.0,0.0,0.0,0.0,0.0,0.0,0.0,0.0,0.0,0.0,0.0,0.0,0.0,0.0,0.0,0.0,0.0,4.5723,4.6146,0.0,4.7801,4.7763,4.7684,4.8339,4.8638,4.8649,4.9063,4.96,5.0086,5.0086,5.0183,5.0309,5.0405,5.0773,5.1357,5.178,5.233,5.2978,5.3669,5.4007,5.4164,5.4858,5.5296,5.5523,0.0,0.0,0.0,0.0,0.0,0.0,0.0,0.0,0.0,0.0,0.0,0.0,0.0,0.0,0.0,0.0,0.0,0.0,0.0,0.0,0.0,1.8244,1.9812,1.9599,1.7394,1.7524,1.7709,1.7836,1.7109,0.0,0.0,0.0,2.1204,2.2805,2.1989,2.1278,2.068,1.9962,1.9411,1.8977,1.9575,1.9738,1.9448,1.8903,1.8655,1.8569,1.8541,1.8444,1.8266,1.8214,0.0,0.0,0.0,0.0,1.7652,2.0012,2.0269,2.0822,2.5802,0.0,3.0212,3.5083,3.8014,0.0,4.042,0.0,0.0,0.0,0.0,0.0,0.0,0.0,0.0,0.0,0.0,0.0,0.0,0.0,0.0,0.0,0.0,0.0,0.0,0.0,0.0,0.0,0.0,0.0,4.5715,4.5276,4.5851,4.7605,4.7937,4.7941,4.7871,4.8553,4.8665,4.8326,4.9068,4.9679,5.0183,5.0471,5.0596,5.0596,5.0692,5.0757,5.1041,5.1798,5.2352,5.2601,5.3265,5.3602,5.3854,5.4359,5.4891,5.5337,0.0,0.0,0.0,0.0,0.0,0.0,0.0,0.0,0.0,0.0,1.4219,1.4521,0.0,1.4615,1.5055,1.7188,1.5869,1.5495,1.6877,0.0,0.0,1.7485,1.8176,1.8443,1.8317,1.7539,1.7384,1.7973,1.6943,0.0,0.0,0.0,0.0,2.1773,0.0,2.033,1.9597,1.9064,1.8772,1.8708,1.936,1.9192,1.8477,1.8281,1.8108,1.799,1.7888,1.8012,1.8305,1.8266,1.8135,0.0,0.0,0.0,1.7418,1.8456,1.9535,2.0822,2.2922,0.0,3.2484,0.0,3.7902,3.9808,0.0,0.0,0.0,0.0,0.0,0.0,0.0,0.0,0.0,0.0,0.0,0.0,0.0,0.0,0.0,0.0,0.0,0.0,0.0,0.0,0.0,0.0,0.0,0.0,4.4746,4.4941,4.586,4.756,4.7688,4.8013,4.8667,4.8852,4.8763,4.8644,4.9398,5.0035,5.0501,5.0947,5.1011,5.0822,5.1199,5.1479,5.1479,5.1878,5.2031,5.2092,5.2852,5.3125,5.328,5.4326,5.4759,5.4853,0.0,0.0,0.0,0.0,0.0,0.0,0.0,0.0,0.0,0.0,0.0,1.4465,1.4792,1.4819,1.5203,1.6294,1.5443,1.5055,1.5541,1.6483,1.7209,1.7566,1.8391,1.8542,1.7955,1.7246,1.7287,1.8103,0.0,0.0,0.0,2.2223,2.2705,0.0,0.0,0.0,0.0,1.9084,1.854,1.874,1.868,1.9581,2.0737,1.9022,1.9067,1.9958,1.8927,1.8415,1.8163,1.8387,1.8293,1.8003,1.776,0.0,0.0,0.0,1.9177,2.0532,2.4329,2.8411,3.2196,0.0,3.6743,3.8387,3.9726,0.0,0.0,0.0,0.0,0.0,0.0,0.0,0.0,0.0,0.0,0.0,0.0,0.0,0.0,0.0,0.0,0.0,0.0,0.0,0.0,0.0,0.0,4.3726,4.4747,4.5064,4.5745,4.7008,4.7356,4.7491,4.7501,4.819,4.8884,4.9455,5.0218,5.0564,5.0598,5.1329,5.1509,5.1293,5.1572,5.1849,5.2033,5.2397,5.2608,5.2608,5.2915,5.3129,5.3312,5.4082,5.4421,5.4665,0.0,0.0,0.0,0.0,0.0,0.0,0.0,0.0,0.0,0.0,0.0,1.4769,1.4851,0.0,0.0,0.0,1.5252,1.4927,1.4605,1.6115,1.697,1.6884,1.7988,1.8211,1.7263,1.6841,1.7074,0.0,0.0,0.0,2.3307,2.2726,2.4125,0.0,2.3496,2.2156,0.0,0.0,0.0,0.0,1.9078,2.036,2.2361,0.0,0.0,0.0,2.043,1.9429,1.895,1.8721,1.845,1.8202,1.7963,1.772,0.0,0.0,0.0,0.0,0.0,0.0,3.0518,3.3446,3.5211,3.6965,0.0,0.0,0.0,0.0,0.0,0.0,0.0,0.0,0.0,0.0,0.0,0.0,0.0,0.0,0.0,0.0,0.0,0.0,0.0,0.0,0.0,0.0,0.0,4.3767,4.4717,4.5004,4.5571,4.6576,4.6985,4.7124,4.6871,4.7985,4.9084,5.0015,5.0773,5.1088,5.0849,5.1729,5.1972,5.188,5.2033,5.2215,5.2487,5.2935,5.3113,5.3113,5.3113,5.3201,5.344,5.385,5.4157,5.4309,0.0,0.0,0.0,0.0,0.0,0.0,0.0,0.0,0.0,0.0,0.0,1.5876,1.5817,1.5698,1.5611,1.5673,1.5446,1.5163,1.4895,1.4761,1.4651,1.4577,1.5842,0.0,1.6464,1.633,1.6567,0.0,0.0,0.0,2.3304,2.3096,2.5258,2.9188,2.6113,2.4312,2.3613,0.0,0.0,0.0,2.1541,2.149,2.1498,0.0,0.0,0.0,0.0,0.0,2.1397,1.9358,1.8528,1.8226,1.8003,1.7882,1.7976,0.0,0.0,0.0,0.0,2.517,0.0,3.1381,3.3752,0.0,0.0,0.0,0.0,0.0,0.0,0.0,0.0,0.0,0.0,0.0,0.0,0.0,0.0,0.0,0.0,0.0,0.0,0.0,0.0,0.0,0.0,0.0,0.0,4.3737,4.4077,4.4546,4.5324,4.6419,4.6697,4.7236,4.7975,4.8771,4.9401,4.9808,5.0668,5.1152,5.1542,5.2002,5.2397,5.2608,5.2608,5.2788,5.3024,5.329,5.3377,5.3377,5.3377,5.3377,5.3465,5.3962,5.3994,5.3939,0.0,0.0,0.0,0.0,0.0,0.0,0.0,0.0,0.0,0.0,0.0,0.0,0.0,1.6724,1.6434,1.5938,1.5673,1.5174,1.4365,1.5539,1.5764,1.4567,1.5778,1.6263,1.5837,1.5593,0.0,0.0,0.0,1.8893,2.3342,2.2993,2.4806,2.8201,2.5623,2.4512,2.4506,2.1748,0.0,0.0,2.1475,2.2973,2.4936,0.0,0.0,0.0,0.0,0.0,0.0,2.157,2.0613,1.9628,1.9531,1.9045,0.0,0.0,0.0,0.0,0.0,0.0,0.0,2.8954,3.1602,3.3931,3.6034,0.0,0.0,0.0,0.0,0.0,0.0,0.0,0.0,0.0,0.0,0.0,0.0,0.0,0.0,0.0,0.0,0.0,0.0,0.0,0.0,0.0,0.0,0.0,4.4518,4.4954,4.5436,4.5849,4.6214,4.6868,4.7695,4.8358,4.8955,4.9674,5.0847,5.1414,5.1199,5.2012,5.2244,5.2098,5.2535,5.3003,5.3496,5.3758,5.3813,5.3813,5.3813,5.3813,5.3931,5.4359,5.4274,5.4103,0.0,0.0,0.0,0.0,0.0,1.4614,1.4521,1.4837,1.5461,1.6364,0.0,0.0,0.0,0.0,1.7146,1.6041,1.5794,1.5391,1.4621,1.5635,1.5955,1.5245,1.5921,1.6245,1.5987,0.0,0.0,0.0,0.0,0.0,0.0,2.228,2.3942,2.6951,2.489,2.4746,0.0,0.0,0.0,2.1998,0.0,2.4721,2.6628,0.0,0.0,0.0,0.0,0.0,0.0,0.0,2.2764,2.1749,2.1147,0.0,0.0,0.0,0.0,0.0,2.2613,0.0,0.0,0.0,0.0,3.1546,3.4761,0.0,0.0,0.0,0.0,0.0,0.0,0.0,0.0,0.0,0.0,0.0,0.0,0.0,0.0,0.0,0.0,0.0,0.0,0.0,0.0,0.0,0.0,0.0,4.5109,4.5436,4.5776,4.5956,4.6314,4.6786,4.7496,4.8147,4.8917,4.9634,5.0861,5.1512,5.1522,5.2028,5.2251,5.2198,5.2755,5.3228,5.3647,5.4008,5.4157,5.4157,5.3989,5.4137,5.4327,5.4441,5.4421,5.4444,0.0,0.0,1.4901,1.518,1.5063,1.495,1.4987,1.5602,1.6392,1.7329,0.0,0.0,0.0,0.0,0.0,1.6063,1.603,1.5997,1.5747,1.4914,1.5022,1.6364,1.6185,1.632,1.6875,0.0,0.0,0.0,0.0,0.0,0.0,0.0,2.2833,2.557,2.4237,2.511,2.7462,0.0,2.4269,2.4296,0.0,2.6725,2.6287,0.0,0.0,0.0,2.9012,2.8196,0.0,2.5529,2.4817,2.4373,0.0,0.0,0.0,0.0,0.0,0.0,0.0,0.0,0.0,0.0,0.0,0.0,3.4388,0.0,0.0,0.0,0.0,0.0,0.0,0.0,0.0,0.0,0.0,0.0,0.0,0.0,0.0,0.0,0.0,0.0,0.0,0.0,0.0,0.0,0.0,4.5419,4.5704,4.5849,4.6225,4.6931,4.6901,4.7076,4.7593,4.8486,4.9133,4.9558,5.0553,5.1406,5.2317,5.2135,5.2333,5.2997,5.3496,5.3446,5.3123,5.4041,5.438,5.4285,5.3866,5.4141,5.4653,5.4227,5.4338,5.4864,0.0,1.4773,1.5139,1.5926,1.5976,1.6132,1.6747,1.7085,1.753,0.0,0.0,0.0,0.0,0.0,1.9406,1.8806,1.87,1.8117,1.6793,1.7388,1.7421,1.6646,1.6967,1.7009,1.6616,0.0,0.0,0.0,0.0,0.0,0.0,0.0,0.0,0.0,2.4215,2.4746,2.552,2.3225,0.0,0.0,2.6013,2.7739,0.0,0.0,0.0,0.0,0.0,3.1562,3.0294,0.0,2.7784,2.4826,0.0,0.0,0.0,0.0,0.0,0.0,2.1372,0.0,0.0,0.0,0.0,0.0,2.8946,3.1029,3.3166,0.0,0.0,0.0,0.0,0.0,0.0,0.0,0.0,0.0,0.0,0.0,0.0,0.0,0.0,0.0,0.0,0.0,0.0,0.0,4.6348,4.6268,4.6454,4.6395,4.658,4.6931,4.6658,4.6591,4.69,4.7098,4.7518,4.8173,4.9428,5.0391,5.1163,5.1353,5.1597,5.1819,5.2603,5.2908,5.2922,5.4134,5.4377,5.3898,5.3789,5.3582,5.352,5.4116,5.4342,5.4632,1.4908,1.5266,1.5747,1.6341,1.6683,1.7178,1.7991,1.816,1.8589,0.0,0.0,0.0,0.0,0.0,0.0,2.0505,2.0115,1.9409,1.8291,1.8286,1.8198,1.7839,1.8099,1.8136,1.7928,0.0,0.0,0.0,0.0,0.0,0.0,0.0,0.0,0.0,2.2285,2.2955,0.0,0.0,0.0,0.0,2.724,0.0,0.0,3.2992,3.4379,0.0,0.0,0.0,3.2916,3.3018,3.0305,0.0,0.0,0.0,0.0,0.0,0.0,0.0,0.0,0.0,0.0,0.0,0.0,0.0,2.8177,2.9645,3.1241,0.0,0.0,0.0,0.0,0.0,0.0,0.0,0.0,0.0,0.0,0.0,0.0,0.0,0.0,0.0,0.0,0.0,0.0,4.7173,4.7367,4.7375,4.731,4.7288,4.7197,4.6976,4.6701,4.6539,4.6486,4.6548,4.7022,4.7862,4.8747,4.9787,5.0974,5.1009,5.1199,5.1566,5.2219,5.2652,5.3038,5.4163,5.4274,5.3856,5.4051,5.376,5.3258,5.3915,5.4352,5.471,0.0,1.6106,1.6682,1.6783,1.7379,1.8166,1.9057,1.915,1.9731,0.0,0.0,0.0,0.0,0.0,0.0,0.0,2.09,2.0238,1.9986,1.846,1.8104,1.9393,1.9413,1.951,1.9864,1.9308,0.0,0.0,0.0,0.0,0.0,0.0,0.0,0.0,1.9704,2.0751,2.2468,0.0,0.0,2.5098,2.8929,3.0523,0.0,0.0,3.5775,0.0,3.6134,3.5946,3.5241,3.4765,3.2391,0.0,0.0,0.0,0.0,0.0,2.3497,0.0,0.0,0.0,0.0,0.0,0.0,0.0,2.9424,2.9704,3.0059,0.0,0.0,0.0,0.0,0.0,0.0,0.0,0.0,0.0,0.0,0.0,0.0,0.0,0.0,0.0,0.0,4.6906,4.7595,4.7749,4.823,4.8395,4.7971,4.8057,4.7718,4.7054,4.7015,4.6762,4.6364,4.6603,4.726,4.8372,4.853,4.9537,5.1168,5.0799,5.1064,5.1797,5.2094,5.2624,5.3369,5.4017,5.4196,5.4003,5.45,5.4202,5.3596,5.3858,5.4427,5.5083,1.6496,1.7043,1.7827,1.8484,1.8716,1.9317,2.0834,2.1036,2.1597,2.3356,2.4246,0.0,0.0,0.0,0.0,0.0,2.2985,2.1755,2.1054,1.9851,1.9351,1.9786,2.022,2.0226,1.9664,1.9329,1.9067,0.0,0.0,0.0,0.0,0.0,0.0,0.0,2.051,2.1184,2.1552,0.0,0.0,2.6564,2.7218,0.0,3.3921,3.5071,3.6899,3.8929,3.8785,3.8183,3.7061,0.0,3.3623,3.2594,0.0,0.0,0.0,0.0,0.0,0.0,0.0,0.0,0.0,0.0,0.0,0.0,2.5512,2.6276,2.7364,0.0,0.0,0.0,0.0,0.0,0.0,0.0,0.0,0.0,0.0,0.0,0.0,0.0,0.0,0.0,0.0,4.4174,4.5046,4.6206,4.705,4.7762,4.8413,4.725,4.6772,4.7241,4.7015,4.6885,4.6762,4.7185,4.7762,4.8577,4.8889,4.9564,5.0469,5.073,5.0884,5.1121,5.19,5.2624,5.3337,5.3623,5.3734,5.3721,5.4463,5.4142,5.3362,5.3922,5.4731,5.5567,1.7229,1.7904,1.8633,1.9032,1.9463,2.0314,2.2056,2.1894,2.2559,2.5142,2.5892,0.0,0.0,0.0,0.0,0.0,0.0,0.0,0.0,2.107,2.032,1.9958,2.0602,2.0685,2.0164,2.0041,1.9858,1.9578,0.0,0.0,0.0,0.0,0.0,0.0,0.0,0.0,0.0,0.0,2.5046,2.7235,2.9587,0.0,3.5776,3.7526,3.9188,4.0489,4.0324,3.9634,3.8508,3.6022,3.4699,0.0,0.0,3.0326,2.9777,0.0,2.7089,2.7731,0.0,0.0,0.0,2.6178,0.0,0.0,0.0,2.6348,2.6701,0.0,0.0,0.0,0.0,0.0,0.0,0.0,0.0,0.0,0.0,0.0,0.0,0.0,0.0,0.0,0.0,4.3795,4.4902,4.6195,4.6756,4.7279,4.7538,4.7023,4.6732,4.6634,4.6578,4.6392,4.6081,4.6805,4.7536,4.8306,4.9038,4.9809,5.0589,5.082,5.0972,5.1081,5.1835,5.2507,5.2941,5.3376,5.3465,5.3432,5.4186,5.4175,5.3775,5.4212,5.4915,5.561,1.797,1.8794,1.9359,1.9391,2.0084,2.1247,2.2987,2.2638,2.3381,2.6689,0.0,0.0,0.0,0.0,0.0,0.0,0.0,0.0,0.0,0.0,2.155,2.0774,2.0971,2.1079,2.104,2.0877,2.0603,2.0116,0.0,0.0,0.0,0.0,0.0,0.0,0.0,0.0,0.0,0.0,0.0,2.8808,0.0,3.5117,3.6126,3.9138,4.042,4.0689,4.0997,4.0578,3.9536,3.7782,0.0,3.4456,3.3235,3.2319,0.0,0.0,0.0,0.0,0.0,0.0,0.0,0.0,0.0,2.7139,0.0,0.0,0.0,0.0,0.0,0.0,0.0,0.0,0.0,0.0,0.0,0.0,0.0,0.0,0.0,0.0,0.0,0.0,0.0,4.3142,4.4588,4.6314,4.6189,4.6262,4.6894,4.718,4.6942,4.6191,4.6591,4.6416,4.5759,4.6918,4.7838,4.8409,4.9361,5.0165,5.0896,5.0896,5.1048,5.1307,5.1826,5.2227,5.265,5.3237,5.3531,5.3601,5.4194,5.4326,5.4303,5.4659,5.5264,5.5895,1.888,1.9735,2.0331,2.0344,2.1056,2.2207,2.3891,2.4085,2.4953,0.0,0.0,0.0,0.0,0.0,0.0,0.0,0.0,0.0,2.7354,0.0,0.0,2.3465,2.1928,2.1456,2.2199,2.1339,2.0433,1.9507,1.9405,0.0,0.0,0.0,0.0,0.0,2.281,0.0,0.0,0.0,2.985,0.0,3.5177,3.4775,0.0,3.6286,3.7998,3.9154,4.0729,4.0783,4.0008,0.0,3.8409,3.7416,0.0,3.5103,0.0,0.0,0.0,0.0,0.0,0.0,0.0,0.0,2.9854,0.0,0.0,0.0,0.0,0.0,0.0,0.0,0.0,0.0,0.0,0.0,0.0,0.0,0.0,0.0,0.0,0.0,0.0,0.0,0.0,0.0,4.1762,4.5747,4.3798,4.4092,4.7912,4.7534,4.7263,4.7338,4.832,4.8548,4.785,4.9381,5.0192,5.0256,5.0583,5.0832,5.0896,5.1124,5.1275,5.1424,5.1597,5.203,5.281,5.3025,5.4006,5.5355,5.5193,5.4863,5.4593,5.5406,5.6179,5.6787,1.8374,1.9503,2.0299,1.9866,2.0486,2.1611,2.3335,2.5754,0.0,0.0,0.0,0.0,0.0,0.0,0.0,0.0,0.0,2.9621,0.0,0.0,0.0,2.4043,2.2717,2.2125,2.2505,2.1544,2.0802,2.041,1.975,0.0,0.0,0.0,0.0,0.0,2.4792,0.0,2.9035,0.0,3.1419,0.0,0.0,0.0,0.0,3.8375,4.0591,4.108,4.1726,4.1522,4.0868,0.0,3.8697,0.0,0.0,0.0,0.0,0.0,0.0,0.0,0.0,0.0,0.0,0.0,0.0,0.0,0.0,0.0,2.7109,0.0,0.0,0.0,0.0,0.0,0.0,0.0,0.0,0.0,0.0,0.0,0.0,0.0,0.0,0.0,0.0,0.0,0.0,0.0,0.0,4.2622,4.5825,4.6423,4.6903,4.754,4.8206,4.8541,4.8403,4.9544,5.0177,5.0177,5.093,5.1275,5.1275,5.135,5.1499,5.168,5.2454,5.2594,5.2466,5.3865,5.4452,5.4542,5.5331,5.5804,5.6129,5.6103,5.6504,5.7181,1.7981,1.9268,2.0252,1.9723,2.0505,2.1869,2.3853,2.7245,0.0,0.0,0.0,0.0,3.2133,3.2026,0.0,0.0,0.0,3.2657,0.0,0.0,2.7585,0.0,0.0,0.0,0.0,2.2608,2.1744,2.1456,2.045,0.0,0.0,0.0,0.0,0.0,0.0,2.9092,3.209,0.0,0.0,3.432,3.5833,3.6007,3.5908,4.0319,4.2317,4.271,4.2492,4.2174,4.1563,4.0008,3.8936,0.0,3.8138,0.0,0.0,0.0,0.0,0.0,3.4149,0.0,0.0,0.0,0.0,0.0,0.0,0.0,0.0,0.0,0.0,0.0,0.0,0.0,0.0,0.0,0.0,0.0,0.0,0.0,0.0,0.0,0.0,0.0,0.0,0.0,0.0,4.0785,4.0334,4.1331,4.4418,4.5939,4.6944,4.7517,4.8433,4.8882,4.8839,4.9737,5.0166,5.0166,5.1015,5.1424,5.1499,5.1727,5.1941,5.2228,5.3367,5.3485,5.2957,5.4858,5.5181,5.4567,5.6017,5.6868,5.7144,5.6566,5.6761,5.7331,1.816,1.9333,0.0,0.0,2.1874,2.3901,2.6468,0.0,0.0,0.0,0.0,0.0,0.0,0.0,0.0,0.0,0.0,3.8995,3.7992,0.0,3.1918,0.0,0.0,2.5872,0.0,0.0,2.3317,2.235,2.1481,0.0,0.0,0.0,0.0,0.0,0.0,3.0166,3.1621,3.4477,3.7922,4.1268,4.0155,4.1076,4.2828,0.0,4.1075,4.3052,4.2555,0.0,0.0,4.0198,3.985,0.0,0.0,0.0,0.0,0.0,0.0,0.0,0.0,0.0,0.0,3.2098,0.0,0.0,0.0,0.0,2.8996,0.0,0.0,0.0,0.0,0.0,0.0,0.0,0.0,0.0,0.0,0.0,0.0,0.0,0.0,0.0,0.0,0.0,0.0,3.9847,3.8524,3.9818,4.5039,4.7056,4.7797,4.7381,4.9588,5.0478,4.9769,5.0704,5.1167,5.1167,5.1167,5.135,5.1531,5.2248,5.2768,5.3247,5.4088,5.4535,5.4789,5.5996,5.6443,5.6511,5.7722,5.7729,5.7046,5.6655,5.6982,5.7487,1.9041,0.0,0.0,0.0,0.0,0.0,0.0,2.8942,0.0,0.0,0.0,0.0,0.0,0.0,3.85,0.0,0.0,3.8879,3.9092,3.5067,0.0,0.0,0.0,2.8401,0.0,0.0,2.5103,2.4193,2.2641,0.0,0.0,0.0,0.0,0.0,0.0,3.2014,0.0,0.0,0.0,0.0,0.0,4.1097,4.2958,0.0,0.0,4.3388,4.3113,4.2961,0.0,4.1818,4.1245,4.0801,4.0674,4.0293,3.985,4.0007,4.0287,0.0,0.0,0.0,4.0293,3.5216,0.0,0.0,0.0,0.0,0.0,0.0,0.0,0.0,0.0,0.0,0.0,0.0,0.0,0.0,0.0,0.0,0.0,0.0,0.0,0.0,0.0,0.0,0.0,3.7743,3.7997,3.9812,0.0,4.5913,4.7061,4.7501,4.8909,4.9798,5.0172,5.0505,5.0862,5.1199,5.135,5.1499,5.1721,5.1983,5.2606,5.3612,5.4236,5.4715,5.5108,5.664,5.6988,5.6761,5.7827,5.8106,5.7976,5.7323,5.7219,5.7457,2.0714,2.1324,0.0,0.0,0.0,0.0,0.0,0.0,0.0,0.0,3.4807,0.0,3.8293,0.0,3.9877,0.0,4.1296,4.0451,4.0092,3.7112,0.0,3.53,3.2838,0.0,0.0,2.9494,2.7532,0.0,0.0,2.3469,0.0,0.0,0.0,0.0,0.0,3.2553,3.5616,0.0,4.0804,0.0,0.0,4.2143,0.0,0.0,4.3284,4.3322,0.0,4.3267,4.3113,4.2574,4.2037,4.1659,4.1851,4.134,4.0799,4.1215,4.1564,4.1754,4.1213,4.2217,0.0,3.7902,3.6872,0.0,3.1248,0.0,0.0,0.0,0.0,0.0,0.0,0.0,0.0,0.0,0.0,0.0,0.0,2.5557,0.0,0.0,0.0,0.0,0.0,0.0,3.2819,3.6344,3.705,3.8932,0.0,0.0,4.6352,4.6942,4.8382,4.9401,5.0033,5.0294,5.0579,5.0885,5.1294,5.1573,5.1794,5.2097,5.2884,5.4123,5.4782,5.5469,5.6096,5.7403,5.7683,5.7348,5.818,5.839,5.8187,5.7295,5.6918,5.7089,2.2953,2.2498,0.0,0.0,2.4873,0.0,0.0,0.0,3.3125,0.0,3.6144,3.7405,4.0682,4.1875,4.3033,4.4646,4.4754,0.0,4.1256,4.0128,0.0,0.0,3.6273,3.5377,3.4648,3.2721,0.0,0.0,0.0,0.0,0.0,0.0,0.0,0.0,2.819,0.0,3.6217,3.8944,4.2323,4.5666,4.4872,4.435,4.403,4.3713,4.3281,4.2865,4.3032,4.3355,4.3469,4.2506,4.2435,4.2583,4.1902,4.2099,4.2493,4.2302,4.3362,4.4264,4.2815,4.3425,4.3618,4.0094,0.0,0.0,0.0,0.0,3.4457,0.0,0.0,0.0,0.0,0.0,0.0,0.0,0.0,0.0,0.0,0.0,0.0,0.0,0.0,0.0,0.0,2.902,3.0474,3.5666,3.5696,0.0,0.0,0.0,4.5597,4.5826,4.8042,4.9251,4.9284,5.0,5.0391,5.0424,5.1206,5.1712,5.1933,5.2844,5.3831,5.4962,5.581,5.6768,5.7662,5.8277,5.8419,5.8243,5.8806,5.8564,5.7805,5.6645,5.6303,5.6542,2.3192,2.3964,2.5327,0.0,2.7286,2.8293,0.0,0.0,0.0,0.0,3.7912,3.8978,4.1662,4.2231,4.3039,4.4673,4.4197,0.0,0.0,0.0,0.0,4.1698,3.9027,3.8013,3.9044,3.4851,0.0,3.2412,0.0,0.0,2.7554,0.0,0.0,0.0,0.0,0.0,3.5791,3.8994,4.2253,4.5336,4.5123,4.4456,0.0,0.0,4.3765,4.3116,4.3539,4.3805,4.3889,4.3514,4.3429,4.3443,4.3304,4.3674,4.4235,4.4174,4.5167,4.6126,4.5635,4.6028,4.6092,4.3848,4.2138,4.0312,0.0,0.0,0.0,0.0,0.0,0.0,0.0,0.0,0.0,0.0,0.0,0.0,0.0,0.0,0.0,0.0,0.0,0.0,2.8023,2.8873,3.0647,3.3636,3.4118,3.6464,0.0,0.0,0.0,4.5569,4.7209,4.8392,4.8951,4.9674,5.0227,5.0641,5.2064,5.2877,5.3129,5.4083,5.518,5.6352,5.6697,5.742,5.8277,5.8561,5.8771,5.8806,5.9081,5.8834,5.8203,5.7309,5.7378,5.7933,2.4829,0.0,0.0,3.0781,0.0,0.0,3.5087,0.0,0.0,3.9178,3.902,0.0,4.2065,4.272,4.3635,4.5273,4.4947,0.0,4.3739,0.0,0.0,4.2364,4.116,4.077,4.1313,3.7328,0.0,3.412,0.0,0.0,2.7614,0.0,0.0,0.0,0.0,3.1547,3.5343,4.0121,4.3092,4.4662,4.5217,0.0,0.0,4.4627,4.447,4.4109,4.4215,4.427,4.4394,4.5091,4.4774,4.4073,4.449,4.4859,4.5135,4.5016,4.6024,4.7065,4.7002,4.734,4.7474,4.6487,4.5275,4.3581,4.1048,4.0,3.9301,0.0,0.0,0.0,0.0,0.0,0.0,0.0,0.0,0.0,0.0,0.0,0.0,0.0,0.0,0.0,2.7662,2.899,3.0607,3.2385,3.3226,3.5291,0.0,0.0,0.0,4.4417,4.6385,4.7869,4.8927,5.0052,5.0876,5.146,5.3129,5.3897,5.3971,5.4734,5.5698,5.6836,5.6908,5.7562,5.849,5.8701,5.8909,5.9012,5.9351,5.889,5.7974,5.7653,5.7904,5.8403,2.7456,0.0,0.0,0.0,0.0,0.0,0.0,3.7542,0.0,4.0681,0.0,3.9956,4.2453,4.3408,4.4514,4.6059,0.0,4.5176,4.2961,4.4182,4.3966,4.177,4.293,4.3354,4.2632,3.9829,0.0,0.0,0.0,2.8372,2.6567,0.0,0.0,0.0,0.0,0.0,0.0,4.1757,4.4243,4.426,4.5551,4.5891,4.558,4.5505,4.5417,4.5348,4.5234,4.4967,4.4856,4.6498,4.5954,4.479,4.5513,4.5794,4.5848,4.5707,4.6623,4.7698,4.7637,4.7981,4.8356,4.8322,4.8194,4.7104,4.3635,4.2637,4.1972,4.0417,3.9088,3.8837,0.0,0.0,0.0,0.0,0.0,0.0,0.0,0.0,0.0,0.0,0.0,0.0,0.0,2.9181,3.0271,3.1338,3.2341,3.3707,0.0,0.0,0.0,4.3305,4.5752,0.0,4.9128,0.0,5.1655,5.2246,5.4023,5.4755,5.4642,5.5208,5.6078,5.7043,5.7043,5.7664,5.8631,5.8737,5.8806,5.9044,5.9469,5.8927,5.7911,5.7754,5.8121,5.8671,0.0,0.0,0.0,0.0,0.0,3.696,4.1108,3.9702,3.8846,4.085,4.1444,4.2457,4.4344,4.4669,4.5171,4.6137,4.6181,0.0,0.0,0.0,0.0,4.5226,4.479,4.4793,4.5293,4.1422,3.8732,0.0,3.2613,2.9325,2.7505,0.0,0.0,0.0,0.0,0.0,3.9553,4.2613,0.0,4.6224,4.7192,4.7301,4.6951,4.7648,4.7247,4.6458,4.7261,4.6565,4.5264,4.5486,4.5937,4.6355,4.6546,4.7334,4.8198,4.8198,4.8641,4.9086,4.8904,4.9067,4.9229,4.9073,4.8855,4.8259,4.6524,4.5671,4.497,4.3738,4.2858,4.1913,4.0833,0.0,0.0,0.0,0.0,0.0,0.0,0.0,0.0,0.0,0.0,0.0,0.0,0.0,0.0,0.0,0.0,0.0,0.0,0.0,0.0,0.0,4.6452,0.0,0.0,0.0,5.1296,5.1931,5.4216,5.5295,5.5291,5.6934,5.7865,5.8214,5.8461,5.8841,5.9114,5.8692,5.8676,5.8892,5.8703,5.9178,5.9849,5.7906,5.8507,6.0035,0.0,0.0,0.0,0.0,0.0,0.0,0.0,4.1722,0.0,4.2942,4.2689,4.289,4.4179,4.4726,4.5348,4.6163,4.6239,4.6237,4.6231,4.6206,4.6371,4.6814,4.5988,0.0,4.7388,4.3189,4.051,3.9553,3.3955,3.0337,0.0,0.0,0.0,0.0,0.0,3.4661,0.0,0.0,0.0,4.6641,4.8207,4.8603,4.8181,4.865,4.8377,4.7823,4.8277,4.7732,4.6805,4.7247,4.6969,4.6621,4.7893,4.8432,4.8657,4.8549,4.9214,4.9873,4.9401,4.9457,4.9708,4.9708,4.934,4.8607,4.7455,4.6952,4.6278,4.479,4.4447,4.3623,4.1143,3.7886,0.0,0.0,0.0,0.0,0.0,0.0,0.0,0.0,0.0,0.0,0.0,0.0,0.0,0.0,0.0,0.0,0.0,0.0,0.0,0.0,0.0,0.0,0.0,0.0,0.0,5.3212,5.4972,5.5956,5.6149,5.7253,5.8114,5.8631,5.884,5.8806,5.866,5.8288,5.8191,5.8413,5.8754,5.8839,5.8697,5.7989,5.8166,5.8733,0.0,3.4847,0.0,0.0,3.9137,0.0,4.2227,4.3378,4.4224,4.4918,4.3813,4.3273,4.4177,4.4874,4.5546,4.6243,4.6287,4.6289,4.6288,4.6475,4.685,4.745,4.7016,4.7372,4.8699,4.5226,4.2663,0.0,3.5862,3.2103,0.0,0.0,0.0,0.0,0.0,0.0,0.0,0.0,4.6618,4.7284,4.9322,4.9909,4.9519,4.971,4.9421,4.8976,4.8926,4.8422,4.7867,4.8902,4.8115,4.7011,4.9151,4.9416,4.8977,4.875,4.9431,5.0125,4.9358,4.9542,4.9929,5.0098,4.9646,4.8875,4.7879,4.7493,4.6845,4.5255,4.5184,4.4519,4.1659,3.8989,0.0,0.0,0.0,0.0,0.0,0.0,0.0,0.0,0.0,0.0,0.0,0.0,0.0,0.0,0.0,0.0,0.0,0.0,0.0,0.0,0.0,4.7869,5.0566,0.0,5.3202,0.0,5.5417,5.6098,5.6467,5.7053,5.774,5.8565,5.8771,5.8597,5.8094,5.7911,5.7745,5.7736,5.8697,5.8497,5.7752,5.8071,5.7965,5.7752,0.0,0.0,0.0,0.0,0.0,0.0,0.0,4.4226,4.4894,4.5008,4.487,4.5073,4.5971,4.6119,4.6192,4.6276,4.6284,4.6287,4.6287,4.7031,4.7496,4.751,4.8162,4.8644,4.8787,4.7562,4.5365,0.0,0.0,3.5655,0.0,0.0,0.0,0.0,0.0,0.0,0.0,4.669,4.8367,4.9412,5.1055,5.1499,5.1266,5.1855,5.1009,4.9424,4.9281,4.8224,4.7073,4.8032,4.858,4.8954,4.9776,5.0452,5.0735,5.0098,4.9837,4.9591,4.894,4.9223,4.9767,4.989,4.975,4.9451,4.8713,4.7718,4.6726,4.584,4.5528,4.4664,4.2274,4.2737,4.2565,0.0,0.0,0.0,0.0,0.0,0.0,0.0,0.0,0.0,0.0,0.0,0.0,0.0,0.0,0.0,0.0,0.0,0.0,4.2568,0.0,4.6271,4.8532,5.0707,0.0,5.4017,5.4634,5.5043,5.5314,5.6645,5.7432,5.7775,5.8805,5.8685,5.7833,5.7947,5.767,5.7211,5.7605,5.8503,5.9465,5.811,5.8467,5.9429,0.0,0.0,0.0,0.0,0.0,0.0,0.0,4.5456,4.5728,4.5781,4.5796,4.5924,4.6245,4.6736,4.7034,4.7087,4.7517,4.779,4.7796,4.8161,4.8592,4.9043,4.8907,4.9268,5.029,4.8444,4.68,0.0,0.0,0.0,0.0,0.0,0.0,0.0,0.0,4.4036,4.5925,4.9246,5.1018,5.1674,5.2602,5.2766,5.2432,5.2285,5.1639,5.0722,5.0206,4.9619,4.922,4.9928,4.9523,4.8898,4.9733,5.0187,5.0199,4.9365,4.9328,4.9394,4.8577,4.8884,4.9437,4.9536,4.9132,4.8657,4.8338,4.7788,4.7166,4.6344,4.5571,4.4918,4.4366,4.3291,4.2714,0.0,0.0,0.0,0.0,0.0,0.0,0.0,0.0,0.0,0.0,0.0,0.0,0.0,0.0,0.0,0.0,0.0,0.0,4.1187,0.0,4.7889,4.9145,5.1527,5.321,5.411,5.4484,5.4861,5.5275,5.599,5.6879,5.801,5.8553,5.8328,5.7631,5.7504,5.7329,5.7162,5.7448,5.7953,5.8417,5.7922,5.7779,5.787,4.1463,0.0,4.1396,0.0,4.3712,4.3967,4.5802,4.613,4.6326,4.6621,4.6631,4.6639,4.6664,4.7155,4.7611,4.7932,4.8474,4.8786,4.879,4.909,4.9491,5.0037,4.9751,0.0,5.1687,4.9697,4.8755,4.9042,4.3734,0.0,0.0,0.0,0.0,0.0,4.482,4.7187,4.8356,5.1558,5.2892,5.2881,5.3377,5.3348,5.304,5.2486,5.2186,5.1879,5.1066,5.0585,5.0398,5.0566,4.9846,4.9089,5.0053,5.0516,5.0426,4.9378,4.9352,4.9467,4.8641,4.8908,4.946,4.9507,4.9256,4.8959,4.8865,4.8378,4.7702,4.6731,4.6023,4.5668,4.6098,4.4413,4.3617,4.5488,0.0,0.0,0.0,0.0,0.0,0.0,3.8377,3.6312,3.504,0.0,0.0,0.0,0.0,0.0,0.0,0.0,0.0,0.0,0.0,0.0,0.0,5.2054,5.3708,5.4367,5.4494,5.477,5.5258,5.5593,5.6517,5.7929,5.8025,5.7764,5.7342,5.7081,5.6963,5.6901,5.7433,5.7616,5.7652,5.7782,5.7478,5.6976,4.2748,4.3115,4.3697,4.5486,4.5914,4.6017,4.6007,4.613,4.6495,4.7372,4.743,4.7405,4.7489,4.7489,4.784,4.8699,4.879,4.879,4.88,4.9606,5.0051,0.0,0.0,5.1794,5.2663,5.1742,5.1726,5.2623,0.0,0.0,4.485,0.0,4.2779,4.6065,4.7815,4.9847,5.2128,5.3584,5.3566,5.2641,5.3036,5.316,5.3065,5.2856,5.275,5.2566,5.1601,5.0712,4.9787,4.9009,4.9233,4.993,5.0889,5.1719,5.2127,5.0751,5.0228,4.9952,4.9336,4.9488,4.9839,5.0009,5.0579,5.103,5.103,4.9712,4.821,4.7186,4.6998,4.6998,4.6998,4.6962,4.6676,4.5891,0.0,0.0,0.0,0.0,0.0,0.0,3.7958,3.7048,3.686,0.0,0.0,0.0,0.0,0.0,0.0,0.0,0.0,4.3089,4.5441,0.0,4.8838,5.1873,5.3832,5.478,5.4745,5.4807,5.5026,5.5757,5.6558,5.7324,5.7324,5.7184,5.6905,5.687,5.6586,5.636,5.7386,5.7727,5.7652,5.7891,5.7891,5.7729,4.3843,4.4469,4.5278,4.6482,4.6784,4.6868,4.689,4.6931,4.7047,4.7328,4.734,4.7806,4.9011,4.9184,4.9328,0.0,5.0153,5.0511,0.0,5.0757,5.1167,5.1765,5.1545,5.2103,5.3554,5.2142,5.2094,5.3581,0.0,0.0,0.0,4.7357,4.8398,5.0615,5.2269,5.3386,5.4037,5.4336,5.4226,5.3705,5.3124,5.312,5.3414,5.3257,5.3536,5.3883,5.3518,5.3118,5.275,5.2524,5.2492,5.2531,5.2303,5.1805,5.1197,5.0215,5.0244,5.0529,5.0236,5.0263,5.032,5.0314,5.0046,4.9887,5.0431,5.0053,4.945,4.9064,4.8892,4.8621,4.8028,4.7957,4.7625,4.6621,4.6864,0.0,0.0,0.0,0.0,0.0,3.9514,3.8486,0.0,3.6891,0.0,0.0,0.0,0.0,0.0,0.0,0.0,0.0,4.7349,0.0,5.0702,5.3237,5.4626,5.493,5.493,5.493,5.5026,5.5757,5.6307,5.671,5.7394,5.7272,5.6716,5.7046,5.6702,5.6049,5.6723,5.6994,5.694,5.7225,5.7277,5.7241,4.4743,4.5145,4.5736,4.6359,4.653,4.6602,4.6681,4.6729,4.6996,4.7678,4.7761,4.8421,5.0153,5.0384,0.0,5.046,5.0961,5.1242,5.1265,5.1295,5.1671,5.2545,5.1776,5.2347,5.4443,0.0,0.0,5.4999,5.2148,5.058,5.0295,5.0824,5.163,5.2679,5.4025,5.4577,5.4463,5.4294,5.4138,5.3938,5.3497,5.3708,5.4341,5.4486,5.5042,5.5624,5.5233,5.4797,5.4359,5.4025,5.3624,5.3184,5.2698,5.2153,5.1603,5.1009,5.1078,5.1366,5.1369,5.133,5.121,5.1169,5.0941,5.0822,5.0921,5.0787,5.0548,5.0134,5.0017,4.9712,4.8864,4.8676,4.8335,4.7375,4.706,4.6593,4.5587,0.0,0.0,0.0,0.0,0.0,0.0,3.9042,0.0,0.0,0.0,0.0,0.0,0.0,0.0,4.4353,4.899,0.0,5.1998,5.4042,5.5113,5.5113,5.5174,5.5174,5.5113,5.5602,5.5968,5.6124,5.6761,5.687,5.6528,5.6872,5.67,5.6292,5.6653,5.6707,5.6707,5.6984,5.7036,5.6984,4.5323,4.5323,0.0,0.0,4.5607,0.0,4.5765,4.5955,4.6642,4.8257,4.8542,4.9187,5.0908,5.1063,5.1127,5.1186,0.0,0.0,0.0,5.1239,5.1654,5.2455,5.1717,5.2539,5.5235,5.2776,5.3127,5.6493,5.4954,5.3788,5.2969,5.2958,5.294,5.2923,5.3728,5.4,5.3886,5.374,5.3649,5.3576,5.4111,5.4836,5.5623,5.6333,5.7107,5.769,5.6738,5.5882,5.5038,5.4035,5.315,5.2507,5.2583,5.295,5.332,5.2895,5.2605,5.249,5.2716,5.2605,5.2412,5.2491,5.3008,5.3256,5.2283,5.1852,5.1499,5.0733,5.0587,5.0331,4.9492,4.9263,4.8925,4.7975,4.7093,4.6178,4.5345,0.0,0.0,0.0,0.0,0.0,0.0,4.0668,4.1414,0.0,0.0,0.0,0.0,0.0,4.3986,4.7553,5.0414,5.2206,5.2869,5.4441,5.5259,5.5259,5.5413,5.5413,5.5259,5.5472,5.5566,5.5566,5.5822,5.6106,5.6383,5.6546,5.6707,5.6812,5.6933,5.6933,5.6829,5.7087,5.7138,5.7036,0.0,0.0,4.5571,4.6282,4.6491,4.6596,4.6612,4.7201,4.7828,4.8307,4.8839,4.9611,5.0742,5.0929,5.0945,5.0975,5.105,5.1125,5.1136,5.1136,5.1558,5.2533,5.1706,5.2472,5.5163,5.3312,5.3415,5.5591,5.5846,5.5892,5.5698,5.5664,5.5659,5.5609,5.5782,5.551,5.4857,5.4818,5.4411,5.3779,5.4479,5.5194,5.5962,5.7285,5.828,5.8898,5.8601,5.7853,5.6978,5.6806,5.6112,5.5435,5.6101,5.6353,5.5971,5.3795,5.3447,5.3756,5.3756,5.3646,5.3535,5.3459,5.3569,5.3532,5.264,5.2784,5.3071,5.2806,5.2688,5.2165,5.0611,5.0314,4.9614,4.7445,4.6895,4.6121,4.4469,4.465,0.0,0.0,4.3645,4.3862,4.2157,4.2955,4.3281,0.0,0.0,0.0,0.0,4.6629,4.7997,5.0358,5.2056,5.3519,5.4828,5.5355,5.5613,5.5729,5.5786,5.5879,5.5936,5.6028,5.6085,5.6162,5.6383,5.6437,5.6383,5.6653,5.6707,5.6707,5.6881,5.7036,5.7138,5.7289,5.7388,5.7437,4.5128,4.5239,4.5545,4.6431,4.6339,4.6129,4.6148,4.6624,4.7237,4.8028,4.8546,4.9296,5.0622,5.0812,5.0812,5.0812,5.0975,5.1037,5.105,5.1089,5.1528,5.2463,5.1647,5.2407,5.5112,5.3455,5.3423,5.527,5.6142,5.654,5.6543,5.6551,5.656,5.6523,5.6518,5.6035,5.5192,5.5221,5.4885,5.4461,5.5229,5.5967,5.6753,5.7889,5.8567,5.8858,5.8765,5.8119,5.7301,5.7263,5.6637,5.6033,5.6889,5.7101,5.6835,5.573,5.5158,5.4822,5.4484,5.4233,5.4017,5.4018,5.3907,5.3758,5.3385,5.3535,5.368,5.368,5.3524,5.2924,5.1261,5.0848,4.9961,4.7459,4.6651,4.6026,4.4962,4.4887,0.0,4.4818,4.5583,4.5727,4.4853,4.5836,4.6015,4.4774,0.0,0.0,4.8224,4.9567,5.0688,5.15,5.2785,5.4035,5.5292,5.5702,5.5936,5.5901,5.5901,5.5993,5.6049,5.6141,5.6308,5.6383,5.66,5.6707,5.6707,5.6917,5.6933,5.6881,5.7036,5.7138,5.7188,5.7338,5.7437,5.7486,4.6275,4.5709,4.5376,4.6151,4.5671,4.5213,4.5256,4.5456,4.6187,4.7701,4.8106,4.8856,5.0491,5.0664,5.0664,5.0664,5.0825,5.0921,5.0937,5.1121,5.1605,5.2343,5.1787,5.2613,5.5013,5.376,5.3853,5.5393,5.6146,5.6509,5.6519,5.6484,5.6536,5.6591,5.652,5.6014,5.5234,5.5343,5.5283,5.5215,5.614,5.6931,5.7612,5.8309,5.8513,5.8412,5.8162,5.7653,5.712,5.6812,5.6419,5.6165,5.6918,5.7175,5.7353,5.7939,5.711,5.5837,5.5152,5.4651,5.4337,5.4453,5.4348,5.4239,5.4268,5.4203,5.4094,5.3981,5.3833,5.3198,5.1714,5.1193,5.0156,4.761,4.6616,4.6029,4.5626,0.0,4.5737,4.7169,4.7274,4.7307,4.7423,4.8404,4.8612,4.7587,5.007,5.1377,0.0,5.2137,5.2654,5.218,5.3245,5.4242,5.5185,5.5897,5.6162,5.6014,5.6014,5.6014,5.607,5.6217,5.6383,5.6546,5.676,5.6933,5.7036,5.7138,5.7188,5.7239,5.7239,5.7239,5.7289,5.7388,5.7486,5.7486,4.543,4.5201,4.5141,4.5278,4.5246,4.5192,4.5213,4.5808,4.6653,4.7733,4.8455,4.9274,5.0342,5.05,5.0542,5.0542,5.0625,5.0701,5.0738,5.1481,5.2028,5.2221,5.2802,5.3712,5.4983,5.553,5.593,5.6212,5.6425,5.6517,5.651,5.6497,5.6509,5.6514,5.6493,5.6067,5.5326,5.6012,5.5898,5.5388,5.6937,5.7612,5.7765,5.8585,5.8849,5.8648,5.7868,5.7876,5.8143,5.7448,5.7947,5.8912,5.9111,5.9627,6.0018,5.9355,5.8426,5.7336,5.632,5.5451,5.495,5.547,5.5659,5.5503,5.4792,5.507,5.5269,5.4487,5.4233,5.3828,5.2823,5.2004,5.0443,4.7248,4.7107,4.6672,4.4498,0.0,4.8089,4.8347,4.8974,4.9379,4.9303,4.8785,4.9184,5.1055,5.1475,5.2193,5.3522,5.4189,5.4472,5.4291,5.4092,5.4688,5.6204,5.642,5.66,5.6671,5.6671,5.6724,5.6829,5.6829,5.6933,5.7087,5.7087,5.7138,5.7188,5.7188,5.7239,5.7338,5.7338,5.7486,5.7715,5.7726,5.781,5.7904,4.6885,4.6506,4.6203,4.6315,4.596,4.5527,4.5086,4.5803,4.671,4.7548,4.8386,4.931,5.023,5.0329,5.0329,5.0412,5.044,5.0462,5.0396,5.1375,5.2046,5.2133,5.2945,5.3862,5.4876,5.5812,5.6278,5.6302,5.6336,5.6368,5.6407,5.6386,5.6675,5.7166,5.7141,5.6953,5.6608,5.7012,5.6712,5.6011,5.6836,5.7104,5.7168,5.8023,5.8019,5.7537,5.7566,5.7441,5.7295,5.7358,5.7843,5.8548,5.9437,5.9958,6.0264,6.0217,5.8803,5.6969,5.5864,5.5274,5.516,5.5943,5.5822,5.554,5.5654,5.5496,5.5189,5.478,5.4505,5.4221,5.3812,5.269,5.1274,4.9739,4.8183,0.0,0.0,4.7553,4.882,5.0565,5.0713,5.1195,5.2375,5.163,5.1735,5.3314,5.3622,5.4041,5.481,5.4984,5.5196,5.545,5.5584,5.5953,5.66,5.676,5.6776,5.6812,5.6812,5.6829,5.6881,5.6933,5.7036,5.7087,5.7138,5.7188,5.7188,5.7289,5.7338,5.7388,5.7388,5.7486,5.7679,5.7583,5.7715,5.7904,4.8032,4.7551,4.7099,4.7273,4.677,4.61,4.5469,4.6076,4.6871,4.7567,4.8327,4.9213,5.0111,5.0354,5.0468,5.0517,5.0779,5.087,5.0698,5.1752,5.2333,5.2262,5.3321,5.4262,5.5039,5.58,5.6194,5.6185,5.6199,5.6214,5.6286,5.6481,5.698,5.7683,5.7878,5.7974,5.8,5.807,5.7699,5.7079,5.7132,5.7143,5.7187,5.7851,5.7649,5.7104,5.7796,5.7666,5.7225,5.7687,5.8053,5.8498,5.9542,6.0011,6.0265,6.0867,5.9276,5.7109,5.594,5.5559,5.5641,5.6216,5.6054,5.5805,5.6164,5.5846,5.5435,5.5026,5.4761,5.4603,5.4603,5.3333,5.2096,5.1525,0.0,0.0,0.0,4.9155,5.0027,5.2678,5.2604,5.294,5.4572,5.4195,5.4189,5.4875,5.5601,5.5912,5.5778,5.5789,5.6004,5.6382,5.6798,5.6933,5.6865,5.6984,5.6984,5.6881,5.6933,5.6933,5.6933,5.7087,5.7138,5.7138,5.7239,5.7289,5.7289,5.7388,5.7437,5.7486,5.7486,5.7583,5.7679,5.7583,5.7631,5.7857,4.7162,4.6936,4.6966,4.709,4.7052,4.7043,4.7023,4.7143,4.75,4.8332,4.8602,4.9034,4.983,5.0681,5.1228,5.1228,5.2044,5.2488,5.241,5.3289,5.3531,5.287,5.4629,5.5672,5.5825,5.6001,5.6141,5.618,5.6213,5.6214,5.6304,5.7068,5.7483,5.7636,5.8453,5.8815,5.8838,5.8861,5.8874,5.8832,5.8883,5.8905,5.8928,5.8967,5.894,5.8906,5.8973,5.9417,5.9892,5.9162,5.9893,6.0994,6.0293,6.0599,6.119,6.1313,6.0538,5.9379,5.8127,5.7287,5.6736,5.6613,5.7149,5.7289,5.5747,5.6415,5.6949,5.5303,5.4912,5.486,5.4799,5.4035,5.2693,5.042,0.0,0.0,4.9768,5.1393,5.3065,5.4046,5.4725,5.4839,5.4131,5.469,5.5319,5.5936,5.6589,5.6983,5.6882,5.7363,5.7533,5.751,5.7152,5.6984,5.6984,5.7087,5.7188,5.7188,5.7289,5.7338,5.7338,5.7486,5.7534,5.7534,5.7534,5.7583,5.7583,5.7583,5.7631,5.781,5.781,5.7857,5.795,5.795,5.795,5.7997,4.8338,4.8263,4.8146,4.7754,4.7702,4.7545,4.7049,4.7504,4.8042,4.8343,4.9344,5.0223,5.0572,5.1405,5.1964,5.1992,5.2313,5.2475,5.2361,5.3234,5.3933,5.4358,5.5669,5.6246,5.5787,5.6348,5.6443,5.6016,5.6012,5.6062,5.611,5.642,5.6877,5.748,5.7829,5.8298,5.8843,5.8853,5.8909,5.8927,5.8991,5.9053,5.9033,5.9084,5.9104,5.9087,5.9096,5.9297,5.9604,5.9812,6.0243,6.0746,6.0905,6.12,6.1305,6.0745,6.0692,6.0352,5.8199,5.7718,5.7786,5.758,5.7858,5.7943,5.7249,5.7098,5.6728,5.5504,5.5183,5.5293,5.5779,5.4742,5.3867,5.3916,0.0,5.1423,5.2096,5.2847,5.3817,5.5145,5.5977,5.6662,5.7229,5.7043,5.7153,5.7773,5.7983,5.8005,5.7832,5.7859,5.7904,5.7857,5.724,5.7061,5.7388,5.7437,5.7437,5.7437,5.7486,5.7534,5.7534,5.7583,5.7583,5.7583,5.7583,5.7583,5.7583,5.781,5.7857,5.781,5.7904,5.795,5.7997,5.781,5.7857,5.7997,4.8927,4.893,4.8779,4.8323,4.824,4.8087,4.7452,4.8022,4.8602,4.8827,4.9746,5.0621,5.1269,5.1835,5.2319,5.2643,5.2975,5.3127,5.2975,5.3823,5.46,5.5183,5.5924,5.6352,5.6383,5.6489,5.6708,5.704,5.6521,5.631,5.6346,5.6616,5.7134,5.7783,5.8015,5.8668,5.9506,5.9527,5.9581,5.9643,5.9737,5.9767,5.9785,5.9841,5.9872,5.9904,5.9876,5.9898,5.9993,6.0584,6.0769,6.0792,6.1361,6.1529,6.134,6.0411,6.0735,6.0876,5.8168,5.818,5.8779,5.8024,5.7888,5.7947,5.7901,5.7543,5.6913,5.5753,5.5667,5.59,5.6129,5.525,5.4753,5.5565,5.3746,5.2779,5.4372,5.4287,5.4617,5.6229,5.6846,5.7427,5.8121,5.7863,5.7828,5.8198,5.812,5.8111,5.8085,5.7648,5.756,5.7818,5.7302,5.7177,5.751,5.7361,5.7412,5.7583,5.7631,5.7631,5.7667,5.7763,5.7763,5.7763,5.781,5.781,5.781,5.7997,5.8042,5.7997,5.8088,5.8133,5.8088,5.7904,5.795,5.8133,4.8605,4.8532,4.8569,4.8751,4.8678,4.8605,4.8713,4.8853,4.9291,5.0005,4.965,4.9963,5.1649,5.1925,5.236,5.3225,5.4252,5.4805,5.4711,5.5465,5.5637,5.5009,5.5195,5.6116,5.7877,5.6391,5.6906,5.9488,5.7901,5.7117,5.7119,5.7988,5.8432,5.8568,5.9418,6.0229,6.1022,6.1131,6.1252,6.1322,6.1369,6.1433,6.1489,6.1489,6.152,6.1603,6.1573,6.1609,6.1607,6.1592,6.1601,6.1596,6.1612,6.1602,6.1412,6.0487,6.0887,6.1004,5.8359,5.8829,5.9659,5.7754,5.725,5.7216,5.7216,5.7716,5.7726,5.6049,5.6352,5.6614,5.5662,5.557,5.5301,5.4341,5.4202,5.4752,5.6384,5.5809,5.5805,5.7396,5.7438,5.691,5.5918,5.6597,5.699,5.6705,5.6778,5.7042,5.7558,5.6732,5.6577,5.7398,5.7398,5.7398,5.7398,5.6919,5.6959,5.7583,5.7726,5.781,5.781,5.8088,5.8133,5.7997,5.8133,5.8179,5.8179,5.8179,5.8305,5.8393,5.8393,5.8393,5.8393,5.8393,5.8393,5.8393,4.8231,4.8306,4.8382,4.842,4.8532,4.8642,4.8605,4.9231,4.9785,5.0079,5.1003,5.1889,5.2445,5.3147,5.3665,5.3928,5.4815,5.5601,5.6203,5.6394,5.6428,5.6267,5.7125,5.7672,5.7711,5.7925,5.8119,5.8298,5.7963,5.7805,5.7728,5.8088,5.8638,5.9297,5.957,6.019,6.1002,6.1098,6.1191,6.1242,6.1283,6.1327,6.1317,6.0722,6.0915,6.1379,6.0817,6.1062,6.1619,6.1593,6.1616,6.1594,6.1592,6.1612,6.1593,6.1261,6.1361,6.1166,5.9113,5.9406,5.9783,5.7838,5.7831,5.8225,5.8123,5.7815,5.741,5.6888,5.6462,5.6074,5.5763,5.5728,5.5651,5.5314,5.5275,5.5467,5.5853,5.6127,5.6703,5.7684,5.7728,5.7701,5.7886,5.7628,5.7352,5.7054,5.699,5.6998,5.7189,5.7305,5.7229,5.693,5.7376,5.7635,5.7516,5.7905,5.8141,5.8231,5.8275,5.8268,5.8223,5.8305,5.8305,5.8305,5.8356,5.84,5.8349,5.8486,5.8523,5.8393,5.8443,5.8443,5.8393,5.8393,5.8393,5.8437,4.7955,4.8032,4.8072,4.8151,4.8267,4.8454,4.8787,4.9378,5.0007,5.0749,5.1565,5.2457,5.3498,5.3608,5.3865,5.4538,5.5134,5.5842,5.6742,5.7078,5.7228,5.7229,5.8568,5.9034,5.8463,5.8462,5.873,5.9244,5.8743,5.8477,5.8502,5.8611,5.8989,5.9534,5.9579,6.0106,6.092,6.1,6.106,6.1099,6.1152,6.138,6.163,6.0825,6.1104,6.173,6.0955,6.1044,6.1528,6.1556,6.1595,6.1593,6.1596,6.164,6.1676,6.1607,6.1621,6.1251,5.9513,5.9662,5.991,5.8037,5.8169,5.8852,5.9071,5.8745,5.8319,5.7921,5.771,5.7461,5.7003,5.6943,5.6925,5.6829,5.656,5.6464,5.6669,5.6549,5.6851,5.7935,5.7378,5.7353,5.8394,5.7395,5.6597,5.6391,5.6209,5.63,5.6602,5.6616,5.6699,5.6849,5.7338,5.7714,5.7941,5.8728,5.8905,5.8572,5.8486,5.8486,5.8523,5.8523,5.8523,5.8523,5.8614,5.8651,5.8609,5.8656,5.8656,5.8614,5.8656,5.8656,5.8614,5.8614,5.8656,5.8739,4.771,4.7705,4.7777,4.8061,4.8057,4.8307,4.9154,4.946,5.0163,5.1862,5.1698,5.2299,5.467,5.3756,5.3609,5.5136,5.5398,5.5847,5.678,5.7528,5.7978,5.7901,5.9477,6.0116,5.9647,5.8413,5.8943,6.1302,5.9865,5.9224,5.9278,5.9396,5.947,5.947,5.958,6.0027,6.0819,6.0827,6.0894,6.0899,6.1039,6.1582,6.2298,6.164,6.1849,6.2405,6.1788,6.1536,6.1525,6.1584,6.1598,6.1612,6.1595,6.1637,6.167,6.1601,6.167,6.1334,5.9664,5.9859,6.0138,5.8467,5.8588,5.9332,5.9982,6.0074,5.9815,5.9063,5.949,5.9735,5.8847,5.8731,5.87,5.8565,5.7925,5.7675,5.8317,5.7139,5.6734,5.8256,5.6917,5.6483,5.7987,5.6499,5.5377,5.5244,5.4979,5.517,5.5889,5.5221,5.546,5.6857,5.7149,5.7635,5.8424,5.9185,5.9325,5.8781,5.8609,5.8609,5.8739,5.8739,5.8739,5.8739,5.8899,5.8902,5.8788,5.8669,5.8713,5.8798,5.8791,5.8831,5.891,5.8947,5.91,5.9177,4.7371,4.7572,4.7916,4.8575,4.881,4.9149,4.9815,5.0605,5.1456,5.2316,5.317,5.4154,5.5331,5.5286,5.5336,5.5706,5.6422,5.7286,5.8303,5.8486,5.8561,5.8679,5.9054,5.9209,5.9178,5.9736,6.0025,5.9915,5.9836,5.9809,5.9779,5.9951,6.0064,6.0185,6.0238,6.0431,6.0635,6.071,6.0734,6.0796,6.1497,6.1928,6.2121,6.2644,6.2656,6.2394,6.2878,6.2754,6.2405,6.2419,6.2029,6.1518,6.15,6.1556,6.1615,6.1612,6.1633,6.1484,6.0427,6.0738,6.1166,6.0093,6.0422,6.0886,6.0292,5.9679,5.9367,5.9748,5.9476,5.9075,5.8817,5.8804,5.8817,5.8736,5.8648,5.857,5.8722,5.8351,5.8458,5.9434,5.8568,5.8238,5.9133,5.7551,5.6472,5.6447,5.5592,5.5216,5.5369,5.5683,5.5746,5.5443,5.657,5.7365,5.7618,5.8283,5.8867,5.94,5.929,5.9215,5.914,5.914,5.914,5.9178,5.929,5.8878,5.8127,5.8203,5.7791,5.7191,5.7788,5.8049,5.8125,5.876,5.9024,5.91,4.7823,4.8027,4.8446,4.9242,4.9517,4.9967,5.0941,5.1584,5.2409,5.3608,5.4337,5.5147,5.6043,5.5882,5.5896,5.635,5.6836,5.774,5.9133,5.9208,5.9208,5.9208,5.9706,5.9599,5.8781,6.022,6.0491,5.9545,6.0478,6.0577,5.995,6.0387,6.0472,6.0313,6.0762,6.1009,6.1092,6.1529,6.149,6.121,6.2106,6.2478,6.2516,6.3053,6.3281,6.3338,6.3467,6.311,6.2571,6.2564,6.2027,6.1408,6.1383,6.1433,6.1489,6.1526,6.1563,6.1442,6.0618,6.101,6.144,6.0625,6.101,6.1502,6.101,6.0574,6.0332,6.075,6.0477,6.0195,6.0133,6.0155,6.0165,6.0086,5.9748,5.9371,5.8895,5.8803,5.8901,5.932,5.8871,5.8684,5.9009,5.8154,5.7373,5.6921,5.5935,5.5314,5.5288,5.5576,5.594,5.6311,5.7139,5.7946,5.8805,5.9109,5.9463,5.9918,5.9613,5.9508,5.9578,5.9472,5.9284,5.8977,5.898,5.8455,5.7557,5.7559,5.7524,5.7489,5.7828,5.8241,5.869,5.9103,5.929,5.929,4.8442,4.8722,4.91,5.0073,5.0353,5.0941,5.2354,5.2701,5.3349,5.4882,5.5243,5.5723,5.6795,5.6291,5.6153,5.6985,5.7022,5.77,5.9235,5.9398,5.9442,5.939,6.0196,5.9943,5.8486,6.0018,6.0431,5.9662,6.1018,6.1166,6.0302,6.061,6.0595,6.0327,6.1081,6.1454,6.1582,6.2383,6.2375,6.184,6.2777,6.3179,6.3179,6.3444,6.3909,6.4385,6.3984,6.3317,6.2568,6.2432,6.1884,6.1291,6.1291,6.1322,6.1381,6.1433,6.1479,6.1383,6.0744,6.1095,6.1442,6.0764,6.1166,6.1679,6.1672,6.1655,6.1598,6.1588,6.1621,6.1602,6.1634,6.1634,6.1586,6.1528,6.0905,6.0204,5.946,5.9425,5.9426,5.9269,5.8994,5.8854,5.8877,5.8626,5.8181,5.7559,5.6544,5.593,5.5921,5.581,5.6435,5.7813,5.7901,5.8666,6.0223,6.0151,6.0199,6.0352,5.9906,5.9777,5.995,5.9782,5.9327,5.8666,5.8538,5.7975,5.703,5.6903,5.7318,5.8027,5.7933,5.8533,5.9427,5.9508,5.9545,5.965,4.903,4.9222,4.9876,5.1382,5.1826,5.2462,5.3764,5.4129,5.4589,5.5287,5.5649,5.6187,5.7035,5.7231,5.7423,5.7674,5.7674,5.7877,5.8363,5.8408,5.8452,5.8541,5.8695,5.8659,5.8437,5.9324,5.9869,6.0024,6.0409,6.0864,6.1354,6.0299,6.0103,6.0742,6.0959,6.1103,6.124,6.214,6.2477,6.2439,6.341,6.3785,6.3861,6.4616,6.4596,6.425,6.4949,6.436,6.3174,6.2588,6.1833,6.1155,6.1155,6.1203,6.1337,6.1317,6.1396,6.1495,6.1383,6.1478,6.1556,6.1471,6.1537,6.1627,6.1593,6.1665,6.168,6.1596,6.1631,6.1701,6.168,6.1705,6.1673,6.1595,6.1478,6.1383,6.1261,6.1831,6.1985,6.1234,6.0345,6.0088,6.0848,5.9469,5.8818,5.9379,5.8469,5.7923,5.7901,5.7857,5.7889,5.812,5.8064,5.8525,5.9619,5.9447,5.9805,6.0635,6.0533,6.0332,6.0159,6.0179,5.976,5.8939,5.891,5.7976,5.6413,5.6254,5.6292,5.6481,5.7008,5.78,5.8698,5.9351,5.9581,5.9616,4.9643,4.9946,5.0592,5.2201,5.2601,5.3153,5.4561,5.4932,5.5271,5.5955,5.6221,5.6572,5.7152,5.7388,5.7486,5.7583,5.7667,5.7946,5.848,5.9098,5.9181,5.8647,5.9191,5.9136,5.8215,5.943,6.0194,6.0462,6.1119,6.1255,6.0937,6.1125,6.1279,6.1431,6.1883,6.2146,6.2365,6.3234,6.331,6.304,6.3979,6.4086,6.3816,6.4719,6.4932,6.4794,6.523,6.4747,6.3897,6.3623,6.2734,6.1736,6.1756,6.1486,6.1137,6.1186,6.122,6.1283,6.1369,6.1445,6.1518,6.1595,6.1573,6.1534,6.158,6.1609,6.1647,6.1635,6.1679,6.1716,6.169,6.1694,6.1541,6.1007,6.1353,6.1335,6.0356,6.1331,6.1781,6.0895,5.9955,5.9517,5.9876,5.9202,5.8901,5.9155,5.8758,5.8471,5.8472,5.8394,5.8605,5.9089,5.8984,5.9386,6.0278,6.0133,6.0046,6.0003,5.9955,6.0099,6.0387,5.989,5.924,5.8475,5.7898,5.6927,5.5794,5.6178,5.6606,5.7034,5.7756,5.8597,5.9387,5.9766,5.988,5.988]},{"header":{"parameterUnit":"m.s-1","parameterCategory":1,"la1":30.6,"la2":28.766,"lo1":-90.7593,"lo2":-88.6598,"dy":0.0162,"dx":0.0183,"nx":116,"ny":114,"refTime":"2024-04-04T00:00:00:Z","depth":0,"parameterNumber":3,"parameterNumberName":"V-component_of_WINDS"},"data":[0.0,0.0,0.0,0.0,0.0,0.0,0.0,0.0,0.0,0.0,0.0,0.0,0.0,0.0,0.0,0.0,0.0,0.0,0.0,0.0,0.0,0.0,0.0,0.0,0.0,0.0,0.0,0.0,0.0,0.0,0.0,0.0,0.0,0.0,0.0,0.0,0.0,0.0,0.0,0.0,0.0,0.0,0.0,0.0,0.0,0.0,0.0,0.0,0.0,0.0,0.0,0.0,0.0,0.0,0.0,0.0,0.0,0.0,0.0,0.0,0.0,0.0,0.0,0.0,0.0,0.0,0.0,0.0,0.0,0.0,0.0,0.0,0.0,0.0,0.0,0.0,0.0,0.0,0.0,0.0,0.0,0.0,0.0,0.0,0.0,0.0,0.0,0.0,0.0,0.0,0.0,0.0,0.0,0.0,0.0,0.0,0.0,0.0,0.0,0.0,0.0,0.0,0.0,0.0,0.0,0.0,0.0,0.0,0.0,0.0,0.0,0.0,0.0,0.0,0.0,0.0,0.0,0.0,0.0,0.0,0.0,0.0,0.0,0.0,0.0,0.0,0.0,0.0,0.0,0.0,0.0,0.0,0.0,0.0,0.0,0.0,0.0,0.0,0.0,0.0,0.0,0.0,0.0,0.0,0.0,0.0,0.0,0.0,0.0,0.0,0.0,0.0,0.0,0.0,0.0,0.0,0.0,0.0,0.0,0.0,0.0,0.0,0.0,0.0,0.0,0.0,0.0,0.0,0.0,0.0,0.0,0.0,0.0,0.0,0.0,0.0,0.0,0.0,0.0,0.0,0.0,0.0,0.0,0.0,0.0,0.0,0.0,0.0,0.0,0.0,0.0,0.0,0.0,0.0,0.0,0.0,0.0,0.0,0.0,0.0,0.0,0.0,0.0,0.0,0.0,0.0,0.0,0.0,0.0,0.0,0.0,0.0,0.0,0.0,0.0,0.0,0.0,0.0,0.0,0.0,0.0,0.0,0.0,0.0,0.0,0.0,0.0,0.0,0.0,0.0,0.0,0.0,0.0,0.0,0.0,0.0,0.0,0.0,0.0,0.0,0.0,0.0,0.0,0.0,0.0,0.0,0.0,0.0,0.0,0.0,0.0,0.0,0.0,0.0,0.0,0.0,0.0,0.0,0.0,0.0,0.0,0.0,0.0,0.0,0.0,0.0,0.0,0.0,0.0,0.0,0.0,0.0,0.0,0.0,0.0,0.0,0.0,0.0,0.0,0.0,0.0,0.0,0.0,0.0,0.0,0.0,0.0,0.0,0.0,0.0,0.0,0.0,0.0,0.0,0.0,0.0,0.0,0.0,0.0,0.0,0.0,0.0,0.0,0.0,0.0,0.0,0.0,0.0,0.0,0.0,0.0,0.0,0.0,0.0,0.0,0.0,0.0,0.0,0.0,0.0,0.0,0.0,0.0,0.0,0.0,0.0,0.0,0.0,0.0,0.0,0.0,0.0,0.0,0.0,0.0,0.0,0.0,0.0,0.0,0.0,0.0,0.0,0.0,0.0,0.0,0.0,0.0,0.0,0.0,0.0,0.0,0.0,0.0,0.0,0.0,0.0,0.0,0.0,0.0,0.0,0.0,0.0,0.0,0.0,0.0,0.0,0.0,0.0,0.0,0.0,0.0,0.0,0.0,0.0,0.0,0.0,0.0,0.0,0.0,0.0,0.0,0.0,0.0,0.0,0.0,0.0,0.0,0.0,0.0,0.0,0.0,0.0,0.0,0.0,0.0,0.0,0.0,0.0,0.0,0.0,0.0,0.0,0.0,0.0,0.0,0.0,0.0,0.0,0.0,0.0,0.0,0.0,0.0,0.0,0.0,0.0,0.0,0.0,0.0,0.0,0.0,0.0,0.0,0.0,0.0,0.0,0.0,0.0,0.0,0.0,0.0,0.0,0.0,0.0,0.0,0.0,0.0,0.0,0.0,0.0,0.0,0.0,0.0,0.0,0.0,0.0,0.0,0.0,0.0,0.0,0.0,0.0,0.0,0.0,0.0,0.0,0.0,0.0,0.0,0.0,0.0,0.0,0.0,0.0,0.0,0.0,0.0,0.0,0.0,0.0,0.0,0.0,0.0,0.0,0.0,0.0,0.0,0.0,0.0,0.0,0.0,0.0,0.0,0.0,0.0,0.0,0.0,0.0,0.0,0.0,0.0,0.0,0.0,0.0,0.0,0.0,0.0,0.0,0.0,0.0,0.0,0.0,0.0,0.0,0.0,0.0,0.0,0.0,0.0,0.0,0.0,0.0,0.0,0.0,0.0,0.0,0.0,0.0,0.0,0.0,0.0,0.0,0.0,0.0,0.0,0.0,0.0,0.0,0.0,0.0,0.0,0.0,0.0,0.0,0.0,0.0,0.0,0.0,0.0,0.0,0.0,0.0,0.0,0.0,0.0,0.0,0.0,0.0,0.0,0.0,0.0,0.0,0.0,0.0,0.0,0.0,0.0,0.0,0.0,0.0,0.0,0.0,0.0,0.0,0.0,0.0,0.0,0.0,0.0,0.0,0.0,0.0,0.0,0.0,0.0,0.0,0.0,0.0,0.0,0.0,0.0,0.0,0.0,0.0,0.0,0.0,0.0,0.0,0.0,0.0,0.0,0.0,0.0,0.0,0.0,0.0,0.0,0.0,0.0,0.0,0.0,0.0,0.0,0.0,0.0,0.0,0.0,0.0,0.0,0.0,0.0,0.0,0.0,0.0,0.0,0.0,0.0,0.0,0.0,0.0,0.0,0.0,0.0,0.0,0.0,0.0,0.0,0.0,0.0,0.0,0.0,0.0,0.0,0.0,0.0,0.0,0.0,0.0,0.0,0.0,0.0,0.0,0.0,0.0,0.0,0.0,0.0,0.0,0.0,0.0,0.0,0.0,0.0,0.0,0.0,0.0,0.0,0.0,0.0,0.0,0.0,0.0,0.0,0.0,0.0,0.0,0.0,0.0,0.0,0.0,0.0,0.0,0.0,0.0,0.0,0.0,0.0,0.0,0.0,0.0,0.0,0.0,0.0,0.0,0.0,0.0,0.0,0.0,0.0,0.0,0.0,0.0,0.0,0.0,0.0,0.0,0.0,0.0,0.0,0.0,0.0,0.0,0.0,0.0,0.0,0.0,0.0,0.0,0.0,0.0,0.0,0.0,0.0,0.0,0.0,0.0,0.0,0.0,0.0,0.0,0.0,0.0,0.0,0.0,0.0,0.0,0.0,0.0,0.0,0.0,0.0,0.0,0.0,0.0,0.0,0.0,0.0,0.0,0.0,0.0,0.0,0.0,0.0,0.0,0.0,0.0,0.0,0.0,0.0,0.0,0.0,0.0,0.0,0.0,0.0,0.0,0.0,0.0,0.0,0.0,0.0,0.0,0.0,0.0,0.0,0.0,0.0,0.0,0.0,0.0,0.0,0.0,0.0,0.0,0.0,0.0,0.0,0.0,0.0,0.0,0.0,0.0,0.0,0.0,0.0,0.0,0.0,0.0,0.0,0.0,0.0,0.0,0.0,0.0,0.0,0.0,0.0,0.0,0.0,0.0,0.0,0.0,0.0,0.0,0.0,0.0,0.0,0.0,0.0,0.0,0.0,0.0,0.0,0.0,0.0,0.0,0.0,0.0,0.0,0.0,0.0,0.0,0.0,0.0,0.0,0.0,0.0,0.0,0.0,0.0,0.0,0.0,0.0,0.0,0.0,0.0,0.0,0.0,0.0,0.0,0.0,0.0,0.0,0.0,0.0,0.0,0.0,0.0,0.0,0.0,0.0,0.0,0.0,0.0,0.0,0.0,0.0,0.0,0.0,0.0,0.0,0.0,0.0,0.0,0.0,0.0,0.0,0.0,0.0,0.0,0.0,0.0,0.0,0.0,0.0,0.0,0.0,0.0,0.0,0.0,0.0,0.0,0.0,0.0,0.0,0.0,0.0,0.0,0.0,0.0,0.0,0.0,0.0,0.0,0.0,0.0,0.0,0.0,0.0,0.0,0.0,0.0,0.0,0.0,0.0,0.0,0.0,0.0,0.0,0.0,0.0,0.0,0.0,0.0,0.0,0.0,0.0,0.0,0.0,0.0,0.0,0.0,0.0,0.0,0.0,0.0,0.0,0.0,0.0,0.0,0.0,0.0,0.0,0.0,0.0,0.0,0.0,0.0,0.0,0.0,0.0,0.0,0.0,0.0,0.0,0.0,0.0,0.0,0.0,0.0,0.0,0.0,0.0,0.0,0.0,0.0,0.0,0.0,0.0,0.0,0.0,0.0,0.0,0.0,0.0,0.0,0.0,0.0,0.0,0.0,0.0,0.0,0.0,0.0,0.0,0.0,0.0,0.0,0.0,0.0,0.0,0.0,0.0,0.0,0.0,0.0,0.0,0.0,0.0,0.0,0.0,0.0,0.0,0.0,0.0,0.0,0.0,0.0,0.0,0.0,0.0,0.0,0.0,0.0,0.0,0.0,0.0,0.0,0.0,0.0,0.0,0.0,0.0,0.0,0.0,0.0,0.0,0.0,0.0,0.0,0.0,0.0,0.0,0.0,0.0,0.0,0.0,0.0,0.0,0.0,0.0,0.0,0.0,0.0,0.0,0.0,0.0,0.0,0.0,0.0,0.0,0.0,0.0,0.0,0.0,0.0,0.0,0.0,0.0,0.0,0.0,0.0,0.0,0.0,0.0,0.0,0.0,0.0,0.0,0.0,0.0,0.0,0.0,0.0,0.0,0.0,0.0,0.0,0.0,0.0,0.0,0.0,0.0,0.0,0.0,0.0,0.0,0.0,0.0,0.0,0.0,0.0,0.0,0.0,0.0,0.0,0.0,0.0,0.0,0.0,0.0,0.0,0.0,0.0,0.0,0.0,0.0,0.0,0.0,0.0,0.0,0.0,0.0,0.0,0.0,0.0,0.0,0.0,0.0,0.0,0.0,0.0,0.0,0.0,0.0,0.0,0.0,0.0,0.0,0.0,0.0,0.0,0.0,0.0,0.0,0.0,0.0,0.0,0.0,0.0,0.0,0.0,0.0,0.0,0.0,0.0,0.0,0.0,0.0,0.0,0.0,0.0,0.0,0.0,0.0,0.0,0.0,0.0,0.0,0.0,0.0,0.0,0.0,0.0,0.0,0.0,0.0,0.0,0.0,0.0,0.0,0.0,0.0,0.0,0.0,0.0,0.0,0.0,0.0,0.0,0.0,0.0,0.0,0.0,0.0,0.0,0.0,0.0,0.0,0.0,0.0,0.0,0.0,0.0,0.0,0.0,0.0,0.0,0.0,0.0,0.0,0.0,0.0,0.0,0.0,0.0,0.0,0.0,0.0,0.0,0.0,0.0,0.0,0.0,0.0,0.0,0.0,0.0,0.0,0.0,0.0,0.0,0.0,0.0,0.0,0.0,0.0,0.0,0.0,0.0,0.0,0.0,0.0,0.0,0.0,0.0,0.0,0.0,0.0,0.0,0.0,0.0,0.0,0.0,0.0,0.0,0.0,0.0,0.0,0.0,0.0,0.0,0.0,0.0,0.0,0.0,0.0,0.0,0.0,0.0,0.0,0.0,0.0,0.0,0.0,0.0,0.0,0.0,0.0,0.0,0.0,0.0,0.0,0.0,0.0,0.0,0.0,0.0,0.0,0.0,0.0,0.0,0.0,0.0,0.0,0.0,0.0,0.0,0.0,0.0,0.0,0.0,0.0,0.0,0.0,0.0,0.0,0.0,0.0,0.0,0.0,0.0,0.0,0.0,0.0,0.0,0.0,0.0,0.0,0.0,0.0,0.0,0.0,0.0,0.0,0.0,0.0,0.0,0.0,0.0,0.0,0.0,0.0,0.0,0.0,0.0,0.0,0.0,0.0,0.0,0.0,0.0,0.0,0.0,0.0,0.0,0.0,0.0,0.0,0.0,0.0,0.0,0.0,0.0,0.0,0.0,0.0,0.0,0.0,0.0,0.0,0.0,0.0,0.0,0.0,0.0,0.0,0.0,0.0,0.0,0.0,0.0,0.0,0.0,0.0,0.0,0.0,0.0,0.0,0.0,0.0,0.0,0.0,0.0,0.0,0.0,0.0,0.0,0.0,0.0,0.0,0.0,0.0,0.0,0.0,0.0,0.0,0.0,0.0,0.0,2.1247,0.0,0.0,0.0,0.0,0.0,0.0,0.0,0.0,0.0,0.0,0.0,0.0,0.0,0.0,0.0,0.0,0.0,0.0,0.0,0.0,0.0,0.0,0.0,0.0,1.5885,1.6441,1.6934,1.7488,1.7871,1.7965,0.0,0.0,0.0,0.0,0.0,1.7232,1.691,1.7386,1.8713,1.9069,2.0529,2.2975,2.1998,2.0342,1.81,0.0,0.0,0.0,0.0,0.0,0.0,0.0,0.0,0.0,0.0,0.0,0.0,0.0,0.0,0.0,0.0,0.0,0.0,0.0,0.0,0.0,0.0,0.0,0.0,0.0,0.0,0.0,0.0,0.0,0.0,0.0,0.0,0.0,0.0,0.0,0.0,0.0,0.0,0.0,0.0,0.0,0.0,0.0,0.0,0.0,0.0,0.0,0.0,0.0,0.0,0.0,0.0,0.0,0.0,0.0,0.0,0.0,0.0,0.0,0.0,0.0,0.0,0.0,0.0,0.0,0.0,0.0,0.0,0.0,0.0,0.0,2.2859,0.0,0.0,0.0,0.0,0.0,0.0,0.0,0.0,0.0,0.0,0.0,0.0,0.0,0.0,0.0,0.0,0.0,0.0,0.0,0.0,0.0,1.5699,1.6684,1.724,1.8,1.9052,1.8909,1.8863,1.9184,1.914,1.9107,1.9107,1.9107,1.9085,1.8984,1.8787,1.9613,2.1562,2.259,2.4782,2.8008,2.8088,2.6167,0.0,0.0,0.0,0.0,0.0,0.0,0.0,0.0,0.0,0.0,0.0,0.0,0.0,0.0,0.0,0.0,0.0,0.0,0.0,0.0,0.0,0.0,0.0,0.0,0.0,0.0,0.0,0.0,0.0,0.0,0.0,0.0,0.0,0.0,0.0,0.0,0.0,0.0,0.0,0.0,0.0,0.0,0.0,0.0,0.0,0.0,0.0,0.0,0.0,0.0,0.0,0.0,0.0,0.0,0.0,0.0,0.0,0.0,0.0,0.0,0.0,0.0,0.0,0.0,0.0,0.0,3.0164,3.0975,3.0765,3.125,3.2042,2.8206,2.6972,2.7423,0.0,0.0,0.0,0.0,0.0,0.0,0.0,0.0,0.0,0.0,0.0,0.0,0.0,0.0,0.0,0.0,0.0,0.0,0.0,0.0,1.5958,1.7322,1.8075,1.9066,2.0506,2.059,2.0872,2.16,2.1093,2.0784,2.08,2.0784,2.0702,2.049,2.0824,2.1687,2.3134,2.7057,2.9805,3.132,3.2286,0.0,0.0,0.0,0.0,0.0,0.0,0.0,0.0,0.0,0.0,0.0,0.0,0.0,0.0,0.0,0.0,0.0,0.0,0.0,0.0,0.0,0.0,0.0,0.0,0.0,0.0,0.0,0.0,0.0,0.0,0.0,0.0,0.0,0.0,0.0,0.0,0.0,0.0,0.0,0.0,0.0,0.0,0.0,0.0,0.0,0.0,2.0341,2.1927,0.0,0.0,0.0,0.0,0.0,0.0,0.0,0.0,0.0,0.0,0.0,0.0,0.0,0.0,2.9176,3.1782,3.2954,3.2654,3.4927,3.5871,3.5548,3.5588,3.6029,3.6637,3.5791,0.0,2.9958,2.9331,0.0,0.0,0.0,0.0,0.0,0.0,0.0,0.0,0.0,0.0,0.0,0.0,0.0,0.0,0.0,0.0,0.0,0.0,0.0,0.0,0.0,2.1135,2.2858,2.3495,2.5077,2.5235,2.3383,2.347,2.2822,2.1128,2.1099,2.1214,2.1484,2.2721,2.5326,2.9254,3.3584,3.6116,3.695,3.8044,0.0,0.0,0.0,0.0,0.0,0.0,0.0,0.0,0.0,0.0,0.0,0.0,0.0,0.0,0.0,0.0,0.0,0.0,0.0,0.0,0.0,0.0,0.0,0.0,0.0,0.0,0.0,0.0,0.0,0.0,0.0,0.0,0.0,0.0,0.0,0.0,0.0,0.0,0.0,0.0,0.0,0.0,0.0,0.0,0.0,2.0414,2.2558,2.283,2.3177,2.2773,0.0,0.0,0.0,0.0,0.0,0.0,0.0,0.0,0.0,3.1404,3.2461,3.3661,3.4876,3.6603,3.7483,3.7621,3.9098,3.9727,3.9508,3.9546,3.9698,3.9735,3.9344,3.7874,3.5579,3.33,3.1003,2.8743,0.0,0.0,0.0,0.0,0.0,2.6253,0.0,0.0,0.0,0.0,0.0,0.0,0.0,0.0,0.0,0.0,0.0,0.0,2.179,2.4682,2.6835,2.7621,2.9273,2.918,2.6422,2.6001,2.4837,2.2564,2.2194,2.2278,2.2882,2.5947,3.0125,3.5418,3.9242,4.137,0.0,0.0,0.0,0.0,0.0,0.0,0.0,0.0,0.0,0.0,0.0,0.0,0.0,0.0,0.0,0.0,0.0,0.0,0.0,0.0,0.0,0.0,0.0,0.0,0.0,0.0,0.0,0.0,0.0,0.0,0.0,0.0,0.0,0.0,0.0,0.0,0.0,0.0,0.0,0.0,0.0,0.0,0.0,0.0,0.0,0.0,0.0,2.2733,2.4693,2.4394,2.5649,2.5846,0.0,0.0,0.0,0.0,0.0,0.0,3.0853,3.1931,3.364,3.6009,3.7365,3.8644,4.0034,4.09,4.1541,4.2015,4.2445,4.2722,4.2657,4.2861,4.2794,4.245,4.2073,4.1558,4.068,3.7016,3.4436,3.2826,3.1119,2.9633,2.8612,2.9934,3.0241,3.0336,0.0,0.0,0.0,0.0,0.0,0.0,0.0,0.0,0.0,0.0,0.0,2.272,2.6513,2.8183,3.0163,3.3034,3.2049,3.1388,3.1777,2.8664,2.6721,2.6525,2.5151,2.4701,2.5315,3.1284,3.6161,3.9783,4.2567,0.0,0.0,0.0,0.0,0.0,0.0,0.0,0.0,0.0,0.0,0.0,0.0,0.0,0.0,0.0,0.0,0.0,0.0,0.0,0.0,0.0,0.0,0.0,0.0,0.0,0.0,0.0,0.0,0.0,0.0,0.0,0.0,0.0,0.0,0.0,0.0,0.0,0.0,0.0,0.0,0.0,0.0,0.0,0.0,0.0,0.0,0.0,0.0,0.0,0.0,2.7837,2.9398,0.0,0.0,0.0,0.0,2.9979,3.1321,3.348,3.6598,3.6977,3.8246,4.0716,4.2224,4.3024,4.311,4.4067,4.4627,4.4563,4.4741,4.4857,4.4857,4.5149,4.5299,4.5271,4.5271,4.4716,4.3752,4.0167,3.7289,3.4954,3.4313,3.3005,3.1589,3.2764,3.3251,3.343,0.0,0.0,0.0,0.0,0.0,1.7888,1.7363,1.8541,1.949,1.9479,2.2997,2.6403,2.871,3.2054,3.5172,3.7613,3.7717,3.7037,3.5758,3.2494,3.0706,3.0856,2.8271,2.9142,3.4123,3.769,4.1131,4.4517,4.6472,0.0,0.0,0.0,0.0,0.0,0.0,0.0,0.0,0.0,0.0,0.0,0.0,0.0,0.0,0.0,0.0,0.0,0.0,0.0,0.0,0.0,0.0,0.0,0.0,0.0,0.0,0.0,0.0,0.0,0.0,0.0,0.0,0.0,0.0,0.0,0.0,0.0,0.0,0.0,0.0,0.0,0.0,0.0,0.0,0.0,0.0,0.0,0.0,0.0,0.0,3.0361,3.251,0.0,0.0,3.3127,3.444,3.4864,3.6571,3.841,4.0179,4.0542,4.1624,4.3649,4.4253,4.4881,4.5774,4.6138,4.6272,4.6301,4.6707,4.6627,4.6163,4.6462,4.642,4.5986,4.5663,4.5425,4.5149,4.3368,4.1094,3.8801,3.827,3.7322,3.6347,3.7407,3.7665,3.7493,0.0,0.0,0.0,0.0,1.796,1.8843,1.8283,1.9763,2.1106,2.1547,2.5685,2.9685,3.2557,3.6277,3.9444,4.1717,4.1995,4.1307,3.9442,3.6005,3.4002,3.388,3.1969,3.3952,4.0517,4.2658,4.5303,4.846,0.0,0.0,0.0,0.0,0.0,0.0,0.0,0.0,0.0,0.0,0.0,0.0,0.0,0.0,2.6123,0.0,0.0,0.0,0.0,0.0,0.0,0.0,0.0,0.0,0.0,0.0,0.0,0.0,0.0,0.0,0.0,0.0,0.0,0.0,0.0,0.0,0.0,0.0,0.0,0.0,0.0,0.0,0.0,0.0,0.0,0.0,0.0,0.0,0.0,0.0,3.2891,3.3058,3.5639,3.6852,3.5423,3.7386,3.8974,3.9377,4.0949,4.2331,4.32,4.3575,4.45,4.5821,4.6253,4.6886,4.7626,4.776,4.796,4.819,4.8522,4.841,4.8112,4.8538,4.8409,4.7815,4.7488,4.7063,4.6643,4.5804,4.4235,4.2317,4.1595,4.0686,3.9907,4.0777,4.0675,4.0079,0.0,0.0,0.0,1.7501,1.8823,1.9896,1.9896,2.0552,2.2201,2.5385,2.8461,3.2511,3.8125,4.0625,4.2922,4.536,4.4624,4.3749,4.2917,3.9012,3.6386,3.5534,3.6256,3.8938,4.3815,4.611,4.866,5.1477,5.1993,0.0,0.0,0.0,0.0,0.0,0.0,0.0,0.0,0.0,0.0,0.0,0.0,0.0,3.2006,0.0,0.0,0.0,0.0,0.0,0.0,0.0,0.0,0.0,0.0,0.0,0.0,0.0,0.0,0.0,0.0,0.0,0.0,0.0,0.0,0.0,0.0,0.0,0.0,0.0,0.0,0.0,0.0,0.0,0.0,0.0,0.0,0.0,3.1478,3.3397,3.5081,3.5955,3.876,4.0216,3.9266,4.1732,4.35,4.347,4.4284,4.5017,4.5636,4.6285,4.6874,4.7248,4.8477,4.9026,4.8798,4.9213,4.9651,5.0385,5.0083,5.0195,5.0795,5.1499,5.1337,5.0738,5.0709,4.9819,4.8179,4.7531,4.6615,4.5453,4.429,4.31,4.2131,4.2713,4.2148,4.1137,0.0,0.0,1.7492,1.7501,1.8855,1.9952,1.9985,2.1079,2.2872,2.5522,3.0655,3.5473,3.9282,4.2831,4.5627,4.7384,4.6174,4.5003,4.4236,4.0261,3.7957,3.8008,4.2517,4.6051,4.8282,4.9838,5.1514,5.3369,5.3544,0.0,0.0,0.0,0.0,0.0,0.0,0.0,0.0,0.0,0.0,0.0,0.0,0.0,3.5732,0.0,0.0,0.0,0.0,0.0,0.0,0.0,0.0,0.0,0.0,0.0,0.0,0.0,0.0,0.0,0.0,0.0,0.0,0.0,0.0,0.0,0.0,0.0,0.0,0.0,0.0,0.0,0.0,0.0,0.0,0.0,0.0,3.5495,3.5139,3.6985,3.8925,4.0117,4.1737,4.2681,4.2391,4.3689,4.4763,4.5405,4.6315,4.7051,4.7761,4.7997,4.829,4.8845,4.9669,5.0316,5.072,5.0798,5.111,5.1524,5.0988,5.0875,5.1075,5.0816,5.0485,5.0109,4.9623,4.9123,4.8653,4.7829,4.7264,4.6968,4.6237,4.533,4.4567,4.4761,4.3767,4.2331,0.0,1.6327,1.7501,1.7501,1.8885,2.011,2.0451,2.1543,2.3809,2.7974,3.2611,3.7426,4.2298,4.5493,4.7642,4.8495,4.7647,4.6138,4.4033,4.1412,4.0671,4.239,4.6542,4.9722,5.1615,5.2731,5.3802,5.4863,5.4828,5.4898,0.0,0.0,0.0,0.0,0.0,0.0,0.0,0.0,0.0,0.0,0.0,0.0,4.0245,3.7209,3.4771,3.2704,3.1087,2.9546,2.8191,2.7697,0.0,0.0,0.0,0.0,0.0,0.0,0.0,0.0,0.0,0.0,0.0,0.0,0.0,0.0,0.0,0.0,0.0,0.0,0.0,0.0,0.0,0.0,0.0,0.0,3.7026,3.9761,4.0648,4.1285,4.2241,4.3632,4.4646,4.5404,4.5756,4.6314,4.6874,4.7495,4.803,4.8505,4.8862,4.9159,4.9512,5.0041,5.0721,5.1276,5.1827,5.1857,5.2082,5.2599,5.2046,5.1991,5.2294,5.2104,5.1828,0.0,5.096,5.0471,4.9825,4.8995,4.8496,0.0,0.0,0.0,0.0,0.0,4.5121,4.429,0.0,1.6375,1.7539,1.7615,1.8971,2.0272,2.1085,2.1907,2.4719,3.1129,3.4158,3.8402,4.5444,4.769,4.8699,4.8878,4.8704,4.704,4.3398,4.2907,4.4195,4.7515,4.9216,5.1321,5.3958,5.4794,5.5431,5.5993,5.5936,5.5914,0.0,0.0,0.0,0.0,0.0,0.0,0.0,0.0,0.0,0.0,0.0,0.0,4.4903,4.1683,3.9495,3.7806,3.5391,3.3351,3.1758,3.1477,0.0,0.0,0.0,0.0,0.0,0.0,0.0,0.0,0.0,0.0,0.0,0.0,0.0,0.0,0.0,0.0,0.0,0.0,0.0,0.0,0.0,0.0,0.0,0.0,4.0724,4.3763,4.6462,4.5756,4.5317,4.6431,4.7227,4.8058,4.8803,4.8862,4.9012,4.9374,4.9374,4.9434,4.9583,0.0,0.0,0.0,0.0,5.221,5.2575,5.2575,5.293,5.3508,5.3245,5.3407,5.3919,5.4158,5.3965,5.3413,5.3326,5.2555,5.1251,5.0515,4.9781,4.8753,4.7715,4.6982,4.6378,4.6125,4.6168,0.0,0.0,1.6753,1.7633,1.8335,1.933,2.0299,2.1141,2.1919,2.4516,3.0451,3.3869,3.7804,4.3117,4.5767,4.741,4.8119,4.7527,4.6685,4.5671,4.6579,4.7934,4.9725,5.2335,5.4278,5.5389,5.5902,5.6185,5.6273,5.6162,5.6404,0.0,0.0,0.0,0.0,0.0,0.0,0.0,0.0,0.0,0.0,0.0,0.0,4.7922,4.5778,4.4098,4.2687,4.0729,3.945,3.8523,3.7417,3.4836,3.1944,3.0899,0.0,0.0,0.0,0.0,0.0,0.0,0.0,0.0,0.0,0.0,0.0,0.0,0.0,0.0,0.0,0.0,0.0,0.0,0.0,0.0,4.0459,4.3554,4.6138,4.7936,4.8561,4.8741,4.8445,4.8534,4.8743,4.8862,4.8862,4.9191,4.9756,4.997,5.0511,5.1588,5.1768,0.0,5.2688,5.3375,5.3794,5.3814,5.3814,5.4042,5.4493,0.0,0.0,5.389,5.3435,5.3098,5.2717,5.2223,5.1846,5.1454,5.0616,4.9581,4.8581,4.8368,4.7925,4.7354,4.7107,4.6405,4.5663,0.0,1.75,1.8201,1.8638,1.9796,2.0918,2.1764,2.2576,2.5177,3.092,3.3428,3.6731,4.1991,4.4055,4.4881,4.4505,4.3942,4.437,0.0,4.7942,5.0141,5.2696,5.4553,5.5825,5.6472,5.6649,5.6653,5.66,5.6437,5.672,5.7448,0.0,0.0,0.0,0.0,0.0,0.0,0.0,0.0,0.0,0.0,0.0,5.1184,4.87,4.6831,4.549,4.4787,4.3379,4.1846,4.1367,3.8953,3.5954,3.4691,3.2013,2.8824,0.0,0.0,0.0,0.0,0.0,0.0,0.0,0.0,0.0,0.0,0.0,0.0,0.0,0.0,3.264,3.4396,0.0,4.1499,4.3612,4.5959,4.7997,4.9248,4.9756,4.9846,4.9426,4.994,5.0212,5.0212,5.0212,5.0511,5.1199,5.1323,5.1742,5.2636,5.2792,5.3121,5.3683,5.4141,5.447,5.47,5.48,5.495,5.4976,5.4547,5.4345,5.4333,5.37,5.3347,5.3215,5.2791,5.2397,5.202,5.0962,4.9983,4.9165,4.8824,4.838,4.7847,4.7869,4.7459,4.6779,0.0,1.83,1.8871,1.8741,2.0137,2.1563,2.2374,2.3221,2.5712,3.1107,3.2581,3.5131,4.0448,4.1706,4.1719,4.0513,4.1128,4.288,0.0,4.8937,5.2018,5.5158,5.6077,5.6734,5.7289,5.7087,5.6984,5.6829,5.685,5.7299,5.8033,0.0,0.0,0.0,0.0,0.0,0.0,0.0,0.0,0.0,0.0,0.0,5.3783,5.0867,4.8839,4.7522,4.7356,4.5624,4.3361,4.3768,4.1711,3.8822,3.7748,3.5723,3.3185,2.9828,2.8683,0.0,0.0,0.0,0.0,0.0,0.0,0.0,0.0,0.0,3.0633,3.2516,3.5024,3.7345,3.923,4.2216,4.4935,4.6535,4.8119,4.9491,5.0239,5.0513,5.0421,5.0266,5.0993,5.1572,5.1757,5.1786,5.2024,5.2661,5.2812,5.3049,5.3451,5.3706,5.3946,5.4291,5.4488,5.4759,5.517,5.53,5.5361,5.528,5.5006,5.4905,5.4803,5.4363,5.4023,5.3993,5.371,5.3256,5.2484,5.1468,5.0673,5.0096,4.9438,4.878,4.8404,4.8437,4.8308,4.8134,0.0,1.9107,1.9446,1.8796,2.0077,2.1502,2.236,2.3183,2.5281,2.9607,3.088,3.2751,3.6415,3.7467,3.8101,3.862,4.2537,0.0,4.6397,5.1267,5.4617,5.5705,5.6951,5.7606,5.7534,5.7289,5.7087,5.6984,5.7549,5.8178,5.8892,0.0,0.0,0.0,0.0,0.0,0.0,0.0,0.0,0.0,0.0,0.0,5.4609,5.223,5.0873,4.9888,4.7801,4.5639,4.3772,4.3989,4.2576,4.071,4.1081,4.0086,3.8036,3.409,0.0,2.9578,2.7048,2.6972,2.8011,2.9682,3.0076,3.1321,0.0,0.0,3.6923,3.9825,4.1248,4.2546,4.4281,4.5384,4.6766,4.9125,4.9855,5.0361,5.102,5.1512,5.1697,5.1482,5.1263,5.1479,5.2124,5.2395,5.2601,5.288,5.355,5.3965,5.4436,5.4496,5.4526,5.4586,5.4586,5.4715,5.494,5.4775,5.5008,5.5581,5.528,5.5006,5.4803,5.47,5.4568,5.42,5.3993,5.336,5.2572,5.2426,5.1815,5.1033,5.04,4.9839,4.9303,4.8432,4.8134,4.8134,0.0,0.0,1.9548,1.8763,2.0055,2.1467,2.2325,2.3146,2.485,2.8039,2.8758,2.991,3.2239,3.2788,3.3449,3.4689,3.9639,0.0,4.5621,5.1454,5.5327,5.6448,5.75,5.7904,5.7583,5.7486,5.7338,5.7087,5.7709,5.8376,5.9111,0.0,0.0,0.0,0.0,0.0,0.0,0.0,0.0,0.0,0.0,0.0,5.4465,5.3311,5.1835,5.0125,4.8037,4.6034,0.0,0.0,4.2808,4.155,4.2266,4.088,3.8511,3.5937,3.4085,0.0,3.2844,3.2392,0.0,0.0,3.5326,3.6722,3.8943,4.0158,4.1317,4.3128,4.4311,4.5428,4.6854,4.7813,4.8944,0.0,5.094,5.1393,5.1665,5.191,5.2094,5.2246,5.2033,5.2093,5.2826,5.2947,5.3371,5.4257,5.4592,5.4952,5.5425,5.5159,5.4947,5.4752,5.4752,5.4849,5.4916,5.5047,5.5491,5.6154,5.546,5.5388,5.5543,5.5083,5.4671,5.4274,5.3642,5.3318,5.3215,5.2035,5.1425,5.1091,5.0083,4.9509,4.908,4.8494,4.8207,4.8134,0.0,0.0,0.0,1.9021,1.9998,2.1116,2.1947,2.3006,2.442,2.6435,2.6972,2.7684,2.9071,2.9207,2.9839,3.1412,3.6512,0.0,0.0,5.0305,5.4633,5.627,5.7332,5.7822,5.7631,5.7583,5.7486,5.7239,5.7867,5.834,5.8898,5.9465,0.0,0.0,0.0,0.0,0.0,0.0,0.0,0.0,0.0,0.0,5.3985,5.2974,5.121,4.9118,4.7527,4.548,0.0,0.0,4.1552,4.0688,4.1247,4.0221,3.8559,3.7261,3.6039,3.5311,3.6271,0.0,0.0,3.7991,3.9881,4.139,4.1721,4.3301,4.4944,4.5841,4.6718,4.7719,4.8943,4.9763,5.0598,5.1545,5.1972,5.2246,5.2245,5.2215,5.2185,5.2273,5.2242,5.2397,5.2948,5.3469,5.4142,5.5306,5.5612,5.5761,5.5773,5.5664,5.5328,5.4739,5.4922,5.5104,5.5287,5.5327,5.5832,5.6576,5.561,5.5448,5.5897,5.5113,5.4582,5.4038,5.329,5.3158,5.3275,5.1599,5.1106,5.1193,4.9997,4.9366,4.9138,4.8767,4.8409,4.8207,0.0,0.0,0.0,0.0,1.9826,2.0176,2.1088,2.2641,2.4028,2.4861,2.5721,2.6584,2.7494,2.7502,2.8137,2.9732,3.4239,0.0,4.1707,4.7816,5.234,5.47,5.6233,5.7271,5.7774,5.7631,5.7534,5.7388,5.8072,5.8264,5.8035,5.8862,0.0,0.0,0.0,0.0,0.0,0.0,0.0,0.0,0.0,0.0,5.3168,5.0608,4.8609,4.6987,4.5996,0.0,0.0,0.0,3.8058,3.7552,3.7733,3.8522,0.0,3.8517,3.7102,3.5646,0.0,0.0,3.8875,4.1183,4.2937,4.4701,4.6534,4.7331,4.7909,4.8636,4.9048,4.9634,5.0923,5.1033,5.1574,5.3345,5.3129,5.2763,5.2945,5.2765,5.2362,5.142,5.1536,5.1901,0.0,5.3776,5.4945,5.5653,5.633,5.6357,5.5363,5.5975,5.573,5.4385,5.4966,5.5638,5.6213,5.5378,5.5546,5.6576,5.561,5.5209,5.5209,5.4905,5.4345,5.3419,5.3114,5.2632,5.2046,5.1715,5.1614,5.1454,5.0587,5.0126,4.9766,4.9138,4.8681,4.8481,0.0,0.0,0.0,0.0,0.0,1.9876,2.0212,2.1243,2.245,2.3795,2.4728,0.0,0.0,0.0,0.0,0.0,0.0,0.0,3.977,4.5101,4.9342,5.2112,5.4326,5.5705,5.62,5.6154,5.6015,5.5825,5.7021,5.7521,5.7349,5.8628,0.0,0.0,0.0,0.0,0.0,0.0,0.0,0.0,0.0,0.0,5.1652,4.9609,4.7175,4.4474,0.0,0.0,0.0,0.0,3.6354,3.6477,3.7068,0.0,3.5671,3.4844,3.5399,3.6593,3.7872,0.0,4.2488,4.4653,4.633,4.7787,4.8877,4.9491,4.9841,4.9987,4.9472,4.9284,5.0196,5.0485,5.0869,5.1964,5.2709,5.3028,5.2855,5.2852,5.263,5.1832,5.2082,0.0,0.0,0.0,0.0,5.5402,5.5835,5.6146,5.6296,5.6081,5.5743,5.5282,5.5275,5.5424,5.5669,5.5523,5.5771,5.6576,5.6161,5.5526,5.4905,5.5006,5.4654,5.3979,5.3465,5.3069,5.2602,5.1453,5.1004,5.0917,5.0179,4.9721,4.9523,4.9461,4.9178,4.881,0.0,0.0,0.0,0.0,0.0,0.0,0.0,0.0,0.0,0.0,0.0,0.0,0.0,0.0,0.0,0.0,0.0,0.0,0.0,0.0,4.5111,4.7867,5.0083,5.1517,5.2004,5.1998,5.2126,5.249,5.3697,5.4496,5.4914,5.6449,0.0,0.0,0.0,0.0,0.0,0.0,0.0,0.0,0.0,0.0,4.8458,4.6393,4.3617,0.0,0.0,0.0,0.0,0.0,0.0,3.4182,3.5031,3.5118,3.4798,3.4413,3.6092,3.8591,4.114,4.3281,4.5375,4.7651,4.9148,5.0228,5.0579,5.1112,5.1242,5.0498,4.9329,4.858,4.9047,4.8907,4.9264,5.1038,5.1795,5.2455,5.3124,5.2942,5.251,5.1832,5.1963,5.2091,0.0,0.0,0.0,5.518,5.5865,5.6146,5.6361,5.6176,5.5961,5.5715,5.5739,5.5888,5.5841,5.5758,5.5892,5.6113,5.5909,5.5496,5.4803,5.5006,5.4624,5.395,5.3567,5.3171,5.2573,5.1291,5.0755,5.0598,4.993,4.96,4.9305,4.9502,4.9305,4.9009,0.0,0.0,0.0,0.0,0.0,0.0,0.0,0.0,0.0,0.0,0.0,0.0,0.0,0.0,0.0,0.0,0.0,0.0,0.0,0.0,0.0,4.2199,4.3874,4.5065,4.5808,4.5663,4.6318,4.7733,4.8483,4.951,5.0849,5.2437,5.3592,0.0,0.0,0.0,0.0,0.0,0.0,0.0,0.0,0.0,4.3828,4.127,0.0,0.0,0.0,0.0,0.0,0.0,0.0,3.1232,3.2093,3.4275,3.6582,3.7236,3.9049,4.1554,4.4768,4.6288,4.7539,5.0227,5.1368,5.1893,5.186,5.2137,5.202,5.0367,4.8691,4.7566,0.0,0.0,4.6906,5.0445,5.0558,5.1095,5.3706,5.3098,5.2062,0.0,0.0,0.0,0.0,0.0,0.0,5.518,0.0,5.6392,5.5776,5.6392,5.6453,5.5776,5.6392,5.6745,5.6859,5.6282,5.5681,5.5179,5.5179,5.5108,5.4803,5.4803,5.4345,5.3449,5.3449,5.2965,5.2017,5.1403,5.1011,5.0598,4.9988,4.9531,4.9207,4.9305,4.9305,4.9207,0.0,0.0,0.0,0.0,0.0,0.0,0.0,0.0,0.0,0.0,0.0,0.0,0.0,0.0,0.0,0.0,0.0,0.0,0.0,0.0,0.0,0.0,0.0,0.0,0.0,0.0,0.0,0.0,0.0,4.6513,4.6825,4.8453,4.9242,0.0,0.0,0.0,0.0,0.0,0.0,0.0,0.0,0.0,4.17,0.0,0.0,0.0,0.0,0.0,0.0,0.0,0.0,0.0,3.5874,3.6868,3.81,4.0001,4.2327,4.4768,4.7276,4.9681,5.1789,5.2967,5.3428,5.3428,5.2869,5.236,5.132,4.9004,4.692,4.5137,0.0,0.0,0.0,4.7757,5.0385,0.0,5.3951,5.3369,0.0,5.2795,0.0,5.2208,5.2208,5.3304,0.0,0.0,5.4962,5.5432,5.6453,5.6669,5.6669,5.6484,5.6475,5.6433,5.6222,5.5671,5.528,5.5179,5.5179,5.5108,5.4803,5.5006,5.4684,5.4068,5.4068,5.3612,5.2719,5.234,5.1527,5.0427,5.0382,4.9709,4.8781,4.9108,4.9207,4.9009,0.0,0.0,0.0,0.0,0.0,0.0,0.0,0.0,0.0,0.0,0.0,0.0,0.0,0.0,0.0,0.0,0.0,0.0,0.0,0.0,0.0,0.0,0.0,0.0,0.0,0.0,0.0,0.0,0.0,0.0,0.0,4.3242,4.4144,4.4502,0.0,0.0,0.0,0.0,0.0,0.0,0.0,0.0,0.0,0.0,0.0,0.0,0.0,0.0,0.0,0.0,0.0,3.8455,3.9226,4.0093,4.1355,4.3889,0.0,4.7769,5.0149,5.2263,5.3783,5.3849,5.4113,5.375,5.1404,5.0773,4.9542,4.5668,4.3683,0.0,4.0184,0.0,0.0,0.0,0.0,0.0,5.3858,5.3647,5.3466,0.0,5.3429,0.0,5.3239,5.3905,5.4449,0.0,5.5079,5.5577,5.6439,5.647,5.647,5.647,5.6274,5.6077,5.578,5.528,5.5108,5.5179,5.5108,5.5006,5.4803,5.5006,5.4671,5.4097,0.0,5.3921,5.3186,5.2791,5.186,5.063,5.0371,4.9653,4.8681,4.9009,4.9108,4.9009,0.0,0.0,0.0,0.0,0.0,0.0,0.0,0.0,0.0,0.0,2.1782,0.0,0.0,0.0,0.0,0.0,0.0,0.0,0.0,0.0,0.0,0.0,0.0,0.0,0.0,0.0,0.0,0.0,0.0,0.0,0.0,0.0,0.0,0.0,0.0,0.0,0.0,0.0,0.0,0.0,0.0,0.0,0.0,0.0,0.0,0.0,0.0,0.0,0.0,0.0,3.9257,4.1701,4.2522,4.3809,4.5563,4.8155,4.9492,5.0659,5.3075,5.4229,5.4626,5.3897,5.4063,5.3268,4.9027,4.8332,4.6977,4.1612,0.0,3.8753,3.6814,3.8571,4.1213,4.392,0.0,5.0383,5.3703,5.3896,5.3929,5.4632,5.4379,5.4157,5.4248,5.4056,5.4201,5.494,5.581,5.6176,5.5979,5.5979,5.5979,5.5979,5.5979,5.588,5.5581,5.5078,5.5006,5.5179,5.4905,5.4803,5.4803,5.4803,5.4466,5.3993,0.0,0.0,5.3471,5.292,5.2104,5.1161,5.0325,4.9566,4.8924,4.8938,4.9108,4.9207,0.0,0.0,0.0,0.0,0.0,0.0,0.0,0.0,0.0,0.0,2.0653,2.0841,0.0,0.0,0.0,0.0,0.0,0.0,0.0,0.0,0.0,0.0,0.0,0.0,0.0,0.0,0.0,0.0,0.0,0.0,0.0,0.0,0.0,0.0,0.0,0.0,0.0,0.0,0.0,0.0,0.0,0.0,0.0,0.0,0.0,0.0,0.0,0.0,0.0,0.0,4.188,4.4899,4.6397,4.813,4.9955,5.1631,5.2964,5.405,5.4924,5.5752,5.615,5.5421,5.4427,5.2699,4.9387,4.6913,0.0,0.0,3.7514,3.5844,3.4503,3.6486,3.9338,4.2473,4.635,5.0259,0.0,0.0,5.4453,0.0,0.0,0.0,0.0,0.0,0.0,0.0,0.0,0.0,5.5979,5.5979,5.5979,5.5979,5.5979,5.588,5.5581,5.528,5.5179,5.5179,5.4905,5.4803,5.4803,5.4539,5.4304,5.42,0.0,0.0,5.35,5.3097,5.2349,5.1193,5.0777,5.015,4.9291,4.8981,4.9108,4.9207,0.0,0.0,0.0,0.0,0.0,0.0,0.0,1.9218,1.9717,2.0367,2.0916,2.1146,2.097,2.0587,2.0877,0.0,0.0,0.0,0.0,0.0,0.0,0.0,0.0,0.0,0.0,0.0,0.0,0.0,0.0,0.0,0.0,0.0,0.0,0.0,0.0,0.0,0.0,0.0,0.0,0.0,0.0,0.0,0.0,0.0,0.0,0.0,0.0,0.0,0.0,0.0,4.1594,4.6532,4.8855,5.0784,5.2438,5.371,5.4506,5.5129,5.5961,5.6415,5.6415,5.5322,5.3964,5.1612,4.6583,0.0,0.0,0.0,3.3828,3.2821,3.1694,3.4324,0.0,3.9566,4.3769,4.7963,5.1553,0.0,0.0,0.0,0.0,0.0,0.0,0.0,0.0,0.0,0.0,0.0,5.5581,5.5581,5.5481,5.5381,5.5481,5.5481,5.5381,5.4947,5.4875,5.5006,5.4568,5.4363,5.4363,5.423,5.4023,5.3919,5.3605,0.0,5.3213,5.2787,5.2095,5.1286,5.0974,5.0162,4.9183,4.9177,4.9066,4.8909,0.0,0.0,0.0,0.0,0.0,0.0,0.0,1.9688,2.049,2.1243,2.1906,2.2084,2.1739,2.0888,2.0641,0.0,0.0,0.0,0.0,0.0,0.0,0.0,0.0,0.0,0.0,0.0,0.0,0.0,0.0,0.0,0.0,0.0,0.0,0.0,0.0,0.0,0.0,0.0,0.0,0.0,0.0,0.0,0.0,0.0,0.0,0.0,0.0,0.0,0.0,0.0,4.0172,4.5578,4.8612,5.1186,5.3348,5.4075,5.4673,5.5269,5.6193,5.6448,5.615,5.4858,5.3069,4.9986,4.3746,4.0819,0.0,0.0,3.0668,3.0448,2.9598,0.0,3.5308,0.0,4.0954,4.5154,4.9233,5.1157,0.0,0.0,0.0,0.0,0.0,0.0,0.0,0.0,0.0,0.0,5.5078,5.5059,5.4869,5.4565,5.4768,5.4869,5.4869,5.445,5.4436,5.4671,5.4126,5.3919,5.3815,5.371,5.3605,5.3319,5.3107,0.0,0.0,5.2465,5.183,5.1378,5.1023,5.0213,4.9333,4.937,4.9019,4.8581,0.0,0.0,0.0,0.0,0.0,0.0,0.0,2.1092,2.2007,2.3335,2.3412,2.3179,2.2635,2.1476,2.0852,0.0,0.0,0.0,0.0,0.0,0.0,0.0,0.0,0.0,0.0,0.0,0.0,0.0,0.0,0.0,0.0,0.0,0.0,0.0,0.0,0.0,0.0,0.0,0.0,0.0,0.0,0.0,0.0,0.0,0.0,0.0,0.0,0.0,0.0,0.0,0.0,3.9882,4.309,4.7848,5.2202,5.1929,0.0,0.0,5.5563,5.5719,5.5521,5.4725,5.1768,4.7935,4.3262,0.0,3.5505,3.0784,2.9823,2.9733,2.9366,0.0,0.0,0.0,0.0,4.273,4.8462,5.0847,5.2935,0.0,0.0,0.0,0.0,0.0,0.0,0.0,0.0,0.0,0.0,5.451,5.4152,5.3882,5.3982,5.3982,5.3982,5.4213,5.4304,5.4304,5.3993,5.3815,5.35,5.3319,5.3001,5.2787,0.0,0.0,0.0,5.2221,5.1976,5.1646,5.1084,5.0678,5.0238,4.9643,4.9121,4.881,0.0,0.0,0.0,0.0,0.0,0.0,1.9539,2.0431,2.1531,2.3447,2.3867,2.3748,2.3119,2.2556,2.185,2.0835,0.0,0.0,0.0,0.0,0.0,0.0,0.0,0.0,0.0,0.0,0.0,0.0,0.0,0.0,0.0,0.0,0.0,0.0,0.0,0.0,0.0,0.0,0.0,0.0,0.0,0.0,0.0,0.0,0.0,0.0,0.0,0.0,0.0,0.0,0.0,0.0,3.7686,4.1117,0.0,0.0,5.1493,5.3119,5.4527,5.5289,5.5355,5.4162,5.0644,4.6452,4.2354,0.0,3.4153,3.039,2.9271,2.9034,2.9271,2.9673,0.0,0.0,0.0,0.0,4.2736,4.5851,4.8893,0.0,0.0,0.0,0.0,0.0,0.0,0.0,0.0,0.0,0.0,5.3911,5.4042,5.4124,5.3385,5.3177,5.3592,5.3524,5.3568,5.3568,5.3639,5.353,5.3213,5.3107,5.2894,5.268,0.0,0.0,0.0,5.2004,5.1896,5.1759,5.1534,5.0938,5.0142,4.9888,4.9154,4.8409,0.0,0.0,0.0,0.0,0.0,1.6754,1.8913,2.0147,2.1506,2.3312,2.3927,2.4007,2.3566,2.2869,2.2089,2.1241,2.0185,0.0,0.0,0.0,0.0,0.0,0.0,0.0,0.0,0.0,0.0,0.0,0.0,0.0,0.0,0.0,0.0,0.0,0.0,0.0,0.0,0.0,0.0,0.0,0.0,0.0,0.0,0.0,0.0,0.0,0.0,0.0,0.0,0.0,0.0,0.0,0.0,0.0,0.0,0.0,4.8495,5.0488,5.2567,5.3783,5.4245,5.3221,4.9618,4.5239,0.0,0.0,3.3096,2.9881,2.8798,2.8562,2.8952,2.9025,0.0,0.0,0.0,3.526,3.9283,4.2417,4.5741,0.0,0.0,0.0,0.0,0.0,0.0,0.0,0.0,0.0,0.0,5.3603,5.3284,5.3245,5.257,5.2423,5.2893,5.307,5.3172,5.3172,5.3326,5.3213,5.3001,5.2894,5.268,5.2465,0.0,0.0,0.0,5.1896,5.1787,5.1759,5.159,5.0888,4.9827,4.9659,4.893,4.8032,0.0,0.0,0.0,0.0,0.0,0.0,1.8756,2.0805,2.2382,2.3308,2.3679,2.3951,2.4081,2.2032,2.1217,2.2663,2.1198,0.0,0.0,0.0,0.0,0.0,0.0,0.0,0.0,0.0,0.0,2.1678,2.2435,0.0,0.0,0.0,0.0,0.0,0.0,0.0,0.0,0.0,0.0,0.0,0.0,0.0,0.0,0.0,0.0,0.0,0.0,0.0,0.0,0.0,0.0,0.0,0.0,3.1087,0.0,0.0,4.3938,4.7144,4.9351,5.0856,5.19,5.2046,4.8551,4.4201,0.0,0.0,3.2239,2.9143,2.8446,2.8371,2.8303,2.8618,2.9312,3.0573,0.0,0.0,3.993,4.1973,0.0,0.0,0.0,0.0,0.0,0.0,0.0,0.0,0.0,0.0,0.0,5.3396,5.1924,5.0813,5.1294,5.1614,5.1643,5.2891,5.35,5.35,5.3213,5.3001,5.268,5.2358,5.2004,0.0,0.0,0.0,0.0,5.1787,5.1787,5.1731,5.1112,5.0281,4.9454,4.8841,4.8256,4.7726,0.0,0.0,0.0,0.0,0.0,0.0,0.0,1.9133,2.0127,2.1027,2.0978,2.1249,2.2363,2.1226,2.0554,2.0919,2.0274,0.0,0.0,0.0,0.0,0.0,0.0,0.0,0.0,0.0,2.1311,2.2054,2.3082,2.3661,0.0,0.0,0.0,0.0,0.0,0.0,0.0,0.0,0.0,0.0,0.0,0.0,0.0,0.0,0.0,0.0,0.0,0.0,0.0,0.0,0.0,0.0,0.0,0.0,0.0,3.3145,3.8101,4.2855,4.4128,4.593,4.7078,4.5697,4.2921,4.004,3.7981,0.0,3.094,2.9348,2.8589,2.831,2.8649,2.8701,2.9415,3.1663,3.2801,0.0,0.0,0.0,0.0,0.0,0.0,0.0,0.0,0.0,0.0,0.0,0.0,0.0,0.0,5.3099,5.2647,5.2909,5.1657,5.128,5.1943,5.2555,5.2758,5.2549,5.2905,5.2787,5.2358,5.2221,0.0,0.0,0.0,0.0,0.0,5.1787,5.1787,5.1731,5.0896,5.0174,4.9454,4.8631,4.7917,4.7391,0.0,0.0,0.0,0.0,0.0,0.0,0.0,1.7388,1.8076,1.9007,1.8724,1.9018,2.0515,2.0049,1.9741,1.9876,1.9415,0.0,0.0,0.0,0.0,0.0,0.0,0.0,0.0,2.0607,2.1175,2.194,2.2943,2.348,2.3586,2.4026,2.4269,0.0,0.0,0.0,0.0,0.0,0.0,0.0,0.0,0.0,2.752,0.0,0.0,0.0,0.0,0.0,0.0,0.0,0.0,0.0,0.0,0.0,0.0,0.0,3.246,3.6764,3.943,4.1564,4.2769,4.1754,3.9462,3.7155,3.5837,0.0,0.0,2.9112,2.8468,2.8271,2.8748,2.8668,2.9033,3.0628,3.1726,0.0,0.0,0.0,0.0,0.0,0.0,0.0,0.0,0.0,0.0,0.0,0.0,0.0,0.0,0.0,5.2746,5.3123,5.1786,5.135,5.1919,5.2387,5.2502,5.2292,5.2587,5.2573,5.2221,5.2113,0.0,0.0,0.0,0.0,0.0,5.1787,5.1787,5.1702,5.0537,4.9765,4.9214,4.8066,4.7515,4.7184,0.0,0.0,0.0,0.0,0.0,0.0,0.0,1.5693,1.6315,1.715,1.6938,1.7267,1.8587,1.8546,1.8622,1.9185,1.8594,0.0,0.0,0.0,0.0,0.0,0.0,0.0,0.0,2.0671,2.1207,2.1548,2.2232,2.2568,2.2447,2.3412,2.3228,2.2134,2.2911,0.0,0.0,0.0,0.0,0.0,0.0,2.5942,0.0,0.0,0.0,0.0,0.0,0.0,0.0,0.0,0.0,0.0,0.0,0.0,0.0,0.0,0.0,0.0,0.0,3.7416,3.8611,3.9366,3.7448,3.5091,3.3917,0.0,0.0,0.0,2.8151,2.8117,2.8622,2.8539,2.8388,2.8323,2.9833,0.0,0.0,0.0,0.0,0.0,0.0,0.0,0.0,0.0,0.0,0.0,0.0,0.0,0.0,0.0,5.2289,5.1709,5.1661,5.1718,5.1718,5.2395,5.268,5.268,5.2358,5.2221,5.2113,5.1896,0.0,0.0,0.0,0.0,0.0,5.1787,5.1759,5.1481,4.9983,4.9297,4.8783,4.7416,4.6901,4.6901,0.0,0.0,0.0,0.0,0.0,0.0,0.0,0.0,0.0,0.0,1.4947,1.5407,1.6238,1.6511,1.66,0.0,0.0,0.0,0.0,0.0,0.0,0.0,0.0,0.0,0.0,2.0051,2.0875,2.2046,2.317,2.3713,2.3672,2.406,2.3849,2.3117,2.2928,0.0,0.0,0.0,0.0,0.0,2.474,2.4996,0.0,0.0,0.0,0.0,2.4657,2.4578,0.0,0.0,0.0,0.0,0.0,0.0,0.0,0.0,2.5782,2.65,2.8575,0.0,3.2006,3.1342,3.0799,3.0464,0.0,2.8894,0.0,0.0,0.0,2.718,2.8713,2.8718,2.9155,3.1114,3.2557,3.4375,3.7079,0.0,0.0,0.0,0.0,0.0,0.0,0.0,0.0,0.0,0.0,0.0,0.0,0.0,5.2223,5.1421,5.1661,5.1915,5.213,5.2487,5.2573,5.2329,5.2221,5.2113,5.1896,5.1596,0.0,0.0,0.0,0.0,5.1128,5.1128,5.085,5.0351,4.9279,4.8593,4.7992,4.6964,4.6587,4.6587,0.0,0.0,0.0,0.0,0.0,0.0,0.0,0.0,0.0,0.0,1.405,1.4355,1.4652,1.5523,0.0,0.0,0.0,0.0,0.0,0.0,0.0,0.0,0.0,0.0,1.8976,1.9676,2.0758,2.2244,2.2968,2.3661,2.4307,2.4134,2.3631,2.2848,2.2436,2.26,0.0,0.0,0.0,0.0,2.4007,0.0,0.0,0.0,0.0,0.0,2.3802,2.3826,0.0,2.4823,2.4828,2.4498,0.0,0.0,0.0,0.0,2.4615,2.4793,2.5302,2.7394,2.9312,2.9045,2.914,2.9327,2.9564,0.0,0.0,0.0,0.0,2.6886,2.7788,2.8689,2.9584,3.0656,3.2877,0.0,0.0,0.0,0.0,0.0,0.0,0.0,0.0,0.0,0.0,0.0,0.0,0.0,0.0,0.0,5.1335,5.0678,5.1164,5.1614,5.2004,5.2221,5.2221,5.2004,5.1924,5.1815,5.1568,5.096,0.0,0.0,0.0,0.0,5.0878,5.0602,5.0298,4.9912,4.8598,4.7971,4.7695,4.6672,4.654,4.6889,0.0,0.0,0.0,0.0,0.0,0.0,0.0,0.0,0.0,0.0,0.0,0.0,0.0,0.0,0.0,0.0,0.0,0.0,0.0,0.0,0.0,0.0,0.0,1.8377,1.853,1.9466,2.0655,2.217,2.2549,2.3274,2.4327,2.403,2.3239,2.195,2.1735,2.1988,0.0,0.0,0.0,0.0,2.3315,0.0,0.0,0.0,0.0,0.0,0.0,0.0,0.0,2.4329,2.4697,2.4744,2.4522,0.0,0.0,0.0,0.0,0.0,2.4073,2.6244,2.8587,2.8979,2.9228,2.9366,2.9384,0.0,0.0,0.0,0.0,0.0,0.0,2.8907,0.0,0.0,0.0,0.0,0.0,0.0,0.0,0.0,0.0,0.0,0.0,0.0,0.0,0.0,0.0,0.0,0.0,0.0,0.0,5.0065,5.0657,5.1169,5.1787,5.1787,5.1787,5.1787,5.1402,5.1237,5.1237,5.027,5.0023,0.0,0.0,0.0,5.0492,4.9941,4.9666,4.9391,4.7865,4.7296,4.7373,4.6301,4.6436,4.7108,0.0,0.0,0.0,0.0,0.0,0.0,0.0,0.0,0.0,0.0,0.0,0.0,0.0,0.0,0.0,0.0,0.0,0.0,0.0,0.0,0.0,0.0,1.7272,1.7827,1.8179,1.9146,2.0295,2.1613,2.3434,2.4015,2.3511,2.4837,2.3945,2.1166,2.1228,2.0791,2.003,0.0,0.0,2.127,2.2547,0.0,0.0,0.0,0.0,0.0,0.0,0.0,0.0,2.3058,2.334,2.3702,2.3702,0.0,0.0,0.0,0.0,0.0,2.4324,2.621,2.7497,2.6138,2.6534,2.7291,2.75,0.0,0.0,0.0,0.0,0.0,0.0,0.0,0.0,0.0,0.0,0.0,0.0,0.0,0.0,0.0,0.0,0.0,0.0,0.0,0.0,0.0,0.0,0.0,0.0,0.0,0.0,5.0379,5.0657,5.1169,5.1787,5.1787,5.1787,5.1787,5.1036,5.0596,5.0596,4.9417,4.898,0.0,0.0,4.9008,4.8654,4.8841,4.8298,4.7352,4.6867,4.6384,4.5929,4.5742,4.5769,4.5955,0.0,0.0,0.0,0.0,0.0,0.0,0.0,0.0,0.0,0.0,0.0,0.0,0.0,0.0,0.0,0.0,0.0,0.0,0.0,0.0,0.0,1.6473,1.6844,1.737,1.8191,1.9008,2.0541,2.2732,2.4388,2.5099,2.4946,2.4432,2.2998,2.0903,2.0793,2.0377,1.9826,2.0438,2.0628,2.0686,0.0,0.0,0.0,0.0,0.0,0.0,0.0,0.0,0.0,0.0,2.2802,2.3463,2.3007,0.0,0.0,0.0,0.0,0.0,2.3284,2.5062,2.6579,2.6339,2.8212,3.0129,3.0098,0.0,0.0,0.0,0.0,0.0,0.0,0.0,0.0,0.0,0.0,0.0,0.0,0.0,0.0,0.0,0.0,0.0,0.0,0.0,0.0,0.0,0.0,0.0,0.0,0.0,0.0,0.0,4.984,4.9911,5.0085,5.0421,5.0864,5.1281,5.0341,4.9848,4.9741,4.8676,4.8244,4.8464,0.0,4.8382,4.8597,4.8349,4.8077,4.7835,4.7074,4.6671,4.6568,4.6887,4.6994,4.7047,0.0,0.0,0.0,0.0,0.0,0.0,0.0,0.0,0.0,0.0,0.0,0.0,0.0,0.0,0.0,0.0,0.0,0.0,0.0,0.0,1.5212,1.6438,1.6458,1.7181,1.871,1.9488,2.1081,2.3655,2.5214,2.6163,2.6485,2.3837,2.1983,2.0925,2.0521,2.0106,1.9732,2.0128,2.0289,2.0347,0.0,0.0,0.0,0.0,0.0,0.0,0.0,0.0,0.0,0.0,0.0,0.0,0.0,0.0,0.0,2.2541,2.2144,2.2283,2.2727,2.4194,2.5908,2.7395,2.9779,3.1953,3.2587,0.0,0.0,0.0,0.0,0.0,0.0,0.0,0.0,0.0,0.0,0.0,0.0,0.0,0.0,0.0,0.0,0.0,0.0,0.0,0.0,0.0,0.0,0.0,0.0,0.0,0.0,0.0,4.9136,4.891,4.8841,4.9147,4.9727,5.0449,4.9487,4.8996,4.8755,4.7831,4.7619,4.7812,4.7379,4.7758,4.857,4.7832,4.7856,4.8204,4.7192,4.6895,4.7171,4.7622,4.7861,4.7906,0.0,0.0,0.0,0.0,0.0,0.0,0.0,0.0,0.0,0.0,0.0,0.0,0.0,0.0,0.0,0.0,0.0,0.0,0.0,0.0,1.5114,1.6082,1.6028,1.7227,1.9977,2.0953,2.2005,2.3243,2.5574,2.6811,2.6983,2.3501,2.164,2.1256,2.0646,1.9708,1.8584,1.942,1.9762,1.9822,2.0624,0.0,0.0,0.0,0.0,0.0,0.0,0.0,0.0,0.0,0.0,0.0,0.0,0.0,2.2891,2.2222,2.1611,2.1637,2.3614,2.4722,2.5855,2.8331,2.8739,0.0,3.2038,3.15,0.0,0.0,0.0,0.0,0.0,0.0,0.0,0.0,0.0,0.0,0.0,0.0,0.0,0.0,0.0,0.0,0.0,0.0,0.0,0.0,0.0,0.0,0.0,0.0,0.0,0.0,0.0,4.9106,4.9454,4.8952,4.8875,4.9273,4.8346,4.7938,4.7831,4.7019,4.6564,4.6618,4.6786,4.6948,4.7109,4.7043,4.6922,4.6975,4.6724,4.6586,4.6586,4.6638,4.6778,4.6976,0.0,0.0,0.0,0.0,0.0,0.0,0.0,0.0,0.0,0.0,0.0,0.0,0.0,0.0,0.0,0.0,0.0,0.0,0.0,0.0,1.5374,1.6718,1.7283,1.8355,1.9961,2.1131,2.2572,2.4329,2.5026,2.5271,2.5053,2.2453,2.0934,2.0338,1.9711,1.9121,1.8539,1.9141,1.9369,1.942,2.0295,2.0214,0.0,0.0,0.0,0.0,0.0,0.0,0.0,0.0,2.0673,2.1562,2.1178,2.1975,2.2774,2.1556,2.1095,2.1236,2.2542,2.4317,2.6217,2.7905,0.0,0.0,0.0,0.0,0.0,0.0,0.0,0.0,0.0,0.0,0.0,0.0,0.0,0.0,0.0,0.0,0.0,0.0,0.0,0.0,0.0,0.0,0.0,0.0,0.0,0.0,0.0,0.0,0.0,0.0,0.0,4.8378,4.8083,4.7861,4.7653,4.7452,4.7548,4.7438,4.7229,4.6878,4.656,4.6139,4.6249,4.6464,4.6623,4.6658,4.6769,4.7136,4.7042,4.694,4.694,4.694,4.6953,4.7081,0.0,0.0,0.0,0.0,0.0,0.0,0.0,0.0,0.0,0.0,0.0,0.0,0.0,0.0,0.0,0.0,0.0,0.0,1.397,1.4284,1.5209,1.6958,1.7661,1.8652,2.0146,2.1108,2.2428,2.403,2.3837,2.3692,2.3597,2.1513,2.0538,2.0527,1.9312,1.8921,1.9103,1.8817,1.8786,1.8988,1.9551,1.956,0.0,0.0,0.0,0.0,0.0,0.0,0.0,0.0,1.9991,2.0808,2.0493,2.147,2.2468,2.1341,2.1413,2.1946,2.2468,2.4323,2.6469,0.0,0.0,0.0,0.0,0.0,0.0,0.0,0.0,0.0,0.0,0.0,0.0,0.0,0.0,0.0,0.0,0.0,0.0,0.0,0.0,0.0,0.0,0.0,0.0,0.0,0.0,0.0,0.0,0.0,0.0,0.0,0.0,4.7726,4.7184,4.7081,4.6769,4.635,4.6665,4.6665,4.656,4.656,4.6245,4.5901,4.5795,4.6035,4.6561,4.6402,4.6664,4.7276,4.717,4.7205,4.7205,4.7205,4.7087,4.7087,0.0,0.0,0.0,0.0,0.0,0.0,0.0,0.0,1.067,1.0085,1.1607,0.0,0.0,0.0,0.0,0.0,0.0,0.0,1.3287,1.3555,1.4599,1.662,1.6635,1.7849,2.0607,2.0962,2.1433,2.1983,2.2077,2.2404,2.2985,2.0756,2.0585,2.203,1.9613,1.9151,2.0161,1.8338,1.7993,1.8588,1.8149,1.8301,1.8836,0.0,0.0,0.0,0.0,0.0,0.0,0.0,1.9741,1.9941,2.1155,2.167,2.1787,2.1626,2.2694,2.3891,2.3891,2.4898,2.6526,0.0,0.0,0.0,0.0,0.0,0.0,0.0,0.0,0.0,0.0,0.0,0.0,0.0,0.0,0.0,0.0,0.0,0.0,0.0,0.0,0.0,0.0,0.0,0.0,0.0,0.0,0.0,0.0,0.0,0.0,0.0,0.0,0.0,4.6901,4.6533,4.6218,4.6007,4.5715,4.5715,4.6007,4.5715,4.5609,4.5609,4.5287,4.584,4.6784,4.6221,4.6437,4.7205,4.7205,4.7205,4.7205,4.7205,4.6993,4.673,0.0,0.0,0.0,0.0,0.0,0.0,0.0,0.0,1.0143,1.0183,1.0798,0.0,0.0,0.0,0.0,0.0,0.0,0.0,1.3559,1.4002,1.4699,1.5736,1.6347,1.6859,1.7227,1.7533,1.8933,2.1433,2.0789,2.0235,1.9698,1.935,1.9183,1.9195,1.922,1.8874,1.8302,1.7948,1.7997,1.8361,1.8782,1.8882,1.8827,0.0,0.0,0.0,0.0,0.0,0.0,0.0,0.0,0.0,2.0116,2.1269,2.2377,2.1902,2.2406,2.3219,2.3775,2.5756,0.0,2.9694,0.0,0.0,0.0,0.0,0.0,0.0,0.0,0.0,0.0,0.0,0.0,0.0,0.0,0.0,0.0,0.0,0.0,0.0,0.0,0.0,0.0,0.0,0.0,0.0,0.0,0.0,0.0,0.0,0.0,0.0,0.0,0.0,4.7184,4.6637,4.6218,4.6007,4.5502,4.5502,4.5715,4.5609,4.5502,4.5287,4.518,4.5257,4.5407,4.5546,4.5974,4.6541,4.6541,4.6541,4.6541,4.6541,4.6541,4.6421,0.0,0.0,0.0,0.0,0.0,0.0,0.0,0.0,0.927,0.9391,0.9942,1.0371,0.0,0.0,0.0,0.0,0.0,0.0,0.0,1.3383,1.3986,1.5019,1.5284,1.5428,1.5564,1.5984,1.7116,1.9033,1.8808,1.8331,1.7608,1.8577,1.9068,1.9189,1.9737,1.9611,1.8993,1.8491,1.8221,1.811,1.8723,1.8759,1.8517,0.0,0.0,0.0,0.0,0.0,0.0,0.0,0.0,0.0,1.9563,2.0582,2.1831,2.2422,2.3194,2.4206,2.5871,2.7915,0.0,3.2507,3.5514,3.8706,0.0,0.0,0.0,0.0,0.0,0.0,0.0,0.0,0.0,0.0,0.0,0.0,0.0,0.0,0.0,0.0,0.0,0.0,0.0,0.0,0.0,0.0,0.0,0.0,0.0,0.0,0.0,0.0,0.0,0.0,4.6977,4.6323,4.6007,4.5795,4.5287,4.5072,4.5261,4.5261,4.518,4.4964,4.5201,4.5088,4.4727,4.5525,4.5933,4.5999,4.6225,4.6301,4.6301,4.618,4.6059,4.6059,0.0,0.0,0.8523,0.8495,0.0,0.0,0.0,0.0,0.8267,0.8045,0.9066,0.982,0.0,0.0,0.0,0.0,0.0,0.0,0.0,0.0,1.2697,1.433,1.3813,1.3948,1.498,1.5579,1.5768,1.5452,1.636,1.6725,1.656,1.8303,1.9744,2.0957,2.0758,2.0778,2.086,1.932,1.833,1.7841,1.8205,1.8245,1.8028,1.8297,0.0,0.0,0.0,0.0,0.0,0.0,0.0,0.0,1.945,1.985,2.0651,2.2975,2.4534,2.61,2.9068,0.0,0.0,3.6541,3.859,0.0,0.0,0.0,0.0,0.0,0.0,0.0,0.0,0.0,0.0,0.0,0.0,0.0,0.0,0.0,0.0,0.0,0.0,0.0,0.0,0.0,0.0,0.0,0.0,0.0,0.0,0.0,0.0,0.0,0.0,0.0,4.6587,4.5928,4.5609,0.0,4.5046,4.4722,4.4613,4.4722,4.4722,4.4639,4.5213,4.5141,4.4709,4.5847,4.5933,4.5472,4.6024,4.6225,4.625,4.5939,4.5817,4.5696,0.0,0.0,0.8184,0.8184,0.0,0.0,0.0,0.0,0.0,0.0,0.0,0.0,0.0,0.0,0.0,0.0,0.0,0.0,0.0,0.0,1.2279,1.3422,1.3836,1.3756,1.3259,1.3533,1.3682,1.3679,1.4449,1.5504,1.6834,1.8368,1.9378,1.9871,2.0167,1.9629,1.8419,1.7382,1.6997,1.7167,1.8526,1.8654,1.8098,1.8986,1.8879,0.0,0.0,0.0,0.0,0.0,0.0,0.0,1.9581,2.0258,2.1058,2.2277,2.4292,2.6584,2.8307,3.0954,0.0,0.0,4.1615,4.5079,0.0,0.0,0.0,0.0,0.0,0.0,0.0,0.0,0.0,0.0,0.0,0.0,0.0,0.0,0.0,0.0,0.0,0.0,0.0,0.0,0.0,0.0,0.0,0.0,0.0,0.0,0.0,0.0,0.0,4.6873,4.6796,4.6245,4.5795,0.0,4.5287,4.4856,4.4422,4.4613,4.4613,4.4422,4.4358,4.4335,4.4407,4.4636,4.4763,4.4869,4.5447,4.5673,4.5723,4.5789,4.5817,4.5696,0.0,0.0,0.0,0.0,0.0,0.0,0.0,0.0,0.0,0.0,0.0,0.0,0.0,0.0,0.0,0.0,0.0,0.0,0.0,0.0,1.153,1.2418,1.3693,1.3689,1.2112,1.2582,1.2873,1.2912,1.3044,1.4346,1.6718,1.8,1.9087,1.9998,2.0046,1.9429,1.82,1.756,1.7247,1.7183,1.8365,1.8558,1.8233,1.8515,1.8314,1.7963,1.7855,0.0,0.0,0.0,0.0,0.0,0.0,0.0,2.0506,2.2614,2.4133,2.5986,2.9894,0.0,0.0,4.0516,0.0,4.6933,4.7493,0.0,0.0,0.0,0.0,0.0,0.0,0.0,0.0,0.0,0.0,0.0,0.0,0.0,0.0,0.0,0.0,0.0,0.0,0.0,0.0,0.0,0.0,0.0,0.0,4.6528,4.655,0.0,4.6769,4.6528,4.6048,4.5872,4.5555,4.497,4.5155,4.4856,4.4313,4.4313,4.4203,4.4119,4.401,4.3943,4.3863,4.4029,4.4105,4.4061,4.4636,4.4718,4.465,4.5221,4.5179,4.4962,0.0,0.0,0.0,0.0,0.0,0.0,0.0,0.0,0.0,0.0,0.0,0.0,0.0,0.0,0.0,0.0,0.0,0.0,0.0,0.0,0.0,1.1567,1.3238,1.3345,1.1513,1.2157,1.2574,1.2664,1.2204,0.0,0.0,0.0,1.8596,2.0088,1.9712,1.9159,1.8539,1.8053,1.7555,1.7162,1.7781,1.8008,1.7978,1.7474,1.7396,1.7545,1.7518,1.7733,1.8028,1.8135,0.0,0.0,0.0,0.0,1.9691,2.2819,2.3837,2.5259,3.1024,0.0,3.7309,4.3518,4.632,0.0,4.8385,0.0,0.0,0.0,0.0,0.0,0.0,0.0,0.0,0.0,0.0,0.0,0.0,0.0,0.0,0.0,0.0,0.0,0.0,0.0,0.0,0.0,0.0,0.0,4.6317,4.5872,4.5851,4.6578,4.6292,4.5894,4.523,4.5475,4.5183,4.4283,4.457,4.4535,4.4203,4.3874,4.3789,4.3789,4.3679,4.3543,4.3209,4.3463,4.3348,4.3168,4.3714,4.3795,4.361,4.4413,4.4252,4.382,0.0,0.0,0.0,0.0,0.0,0.0,0.0,0.0,0.0,0.0,0.589,0.5978,0.0,0.6738,0.7181,0.8244,0.8261,0.8545,0.9355,0.0,0.0,1.1086,1.203,1.2265,1.1669,1.1719,1.1948,1.2469,1.2367,0.0,0.0,0.0,0.0,1.8595,0.0,1.7517,1.7111,1.6354,1.6033,1.6049,1.6608,1.6683,1.6491,1.6533,1.6665,1.6849,1.6901,1.7394,1.7988,1.8028,1.8214,0.0,0.0,0.0,1.9429,2.1325,2.3178,2.5259,2.7931,0.0,4.0294,0.0,4.7015,4.894,0.0,0.0,0.0,0.0,0.0,0.0,0.0,0.0,0.0,0.0,0.0,0.0,0.0,0.0,0.0,0.0,0.0,0.0,0.0,0.0,0.0,0.0,0.0,0.0,4.4746,4.4551,4.4675,4.5331,4.5254,4.5364,4.5582,4.5555,4.5077,4.3992,4.3321,4.3304,4.3899,4.3321,4.3184,4.3406,4.2961,4.2625,4.2625,4.2386,4.2322,4.2372,4.2799,4.302,4.2953,4.302,4.2975,4.2856,0.0,0.0,0.0,0.0,0.0,0.0,0.0,0.0,0.0,0.0,0.0,0.5698,0.5827,0.6176,0.6571,0.7001,0.7366,0.7879,0.8704,0.9806,1.0494,1.0659,1.1773,1.2042,1.1219,1.1524,1.1881,1.221,0.0,0.0,0.0,1.5998,1.7187,0.0,0.0,0.0,0.0,1.5662,1.5215,1.5586,1.5536,1.6286,1.74,1.6462,1.6648,1.735,1.7042,1.7023,1.7236,1.7679,1.8055,1.84,1.8634,0.0,0.0,0.0,2.2354,2.4687,2.991,3.5399,4.0475,0.0,4.6192,4.7829,4.9057,0.0,0.0,0.0,0.0,0.0,0.0,0.0,0.0,0.0,0.0,0.0,0.0,0.0,0.0,0.0,0.0,0.0,0.0,0.0,0.0,0.0,0.0,4.4109,4.4358,4.4092,4.4176,4.4609,4.4353,4.4093,4.391,4.4546,4.4598,4.4141,4.3271,4.2806,4.2645,4.2501,4.265,4.2849,4.2513,4.2174,4.1948,4.1492,4.1287,4.1287,4.1528,4.1509,4.1465,4.1875,4.1947,4.1757,0.0,0.0,0.0,0.0,0.0,0.0,0.0,0.0,0.0,0.0,0.0,0.5449,0.5222,0.0,0.0,0.0,0.6751,0.7442,0.8137,0.9118,0.9748,0.9896,1.124,1.1546,1.0631,1.1147,1.1571,0.0,0.0,0.0,1.6019,1.5692,1.7368,0.0,1.8274,1.7388,0.0,0.0,0.0,0.0,1.5108,1.6195,1.7946,0.0,0.0,0.0,1.776,1.7418,1.7365,1.7611,1.7895,1.8202,1.8439,1.8673,0.0,0.0,0.0,0.0,0.0,0.0,3.8366,4.2425,4.4665,4.6264,0.0,0.0,0.0,0.0,0.0,0.0,0.0,0.0,0.0,0.0,0.0,0.0,0.0,0.0,0.0,0.0,0.0,0.0,0.0,0.0,0.0,0.0,0.0,4.3958,4.3944,4.365,4.3625,4.3814,4.3433,4.2992,4.2574,4.3206,4.3617,4.3862,4.2982,4.2301,4.1916,4.1889,4.2086,4.2199,4.1948,4.172,4.1378,4.0803,4.0571,4.0571,4.0571,4.0455,4.027,4.0764,4.081,4.0739,0.0,0.0,0.0,0.0,0.0,0.0,0.0,0.0,0.0,0.0,0.0,0.4854,0.4911,0.5521,0.5875,0.5821,0.6398,0.695,0.7507,0.8015,0.8374,0.8501,0.966,0.0,1.0139,1.0354,1.0708,0.0,0.0,0.0,1.6092,1.6322,1.7933,2.0628,1.8885,1.7908,1.7473,0.0,0.0,0.0,1.5939,1.6268,1.7024,0.0,0.0,0.0,0.0,0.0,1.9436,1.8131,1.7814,1.8068,1.84,1.8517,1.886,0.0,0.0,0.0,0.0,3.0533,0.0,3.8926,4.2432,0.0,0.0,0.0,0.0,0.0,0.0,0.0,0.0,0.0,0.0,0.0,0.0,0.0,0.0,0.0,0.0,0.0,0.0,0.0,0.0,0.0,0.0,0.0,0.0,4.3546,4.3314,4.2831,4.2636,4.2722,4.2417,4.2345,4.2631,4.1839,4.1821,4.2729,4.1767,4.1793,4.2488,4.1923,4.1492,4.1287,4.1287,4.1057,4.0687,4.0339,4.0223,4.0223,4.0223,4.0223,4.0106,3.9567,3.959,3.9731,0.0,0.0,0.0,0.0,0.0,0.0,0.0,0.0,0.0,0.0,0.0,0.0,0.0,0.5153,0.5419,0.5178,0.5821,0.6441,0.6813,0.779,0.8294,0.8284,0.9387,0.9869,0.9516,0.9838,0.0,0.0,0.0,1.2505,1.5968,1.5509,1.6732,1.9382,1.8025,1.7565,1.7642,1.5656,0.0,0.0,1.5963,1.7155,1.8705,0.0,0.0,0.0,0.0,0.0,0.0,1.9593,1.9306,1.9037,1.9193,1.9128,0.0,0.0,0.0,0.0,0.0,0.0,0.0,3.5915,3.9199,4.2088,4.4104,0.0,0.0,0.0,0.0,0.0,0.0,0.0,0.0,0.0,0.0,0.0,0.0,0.0,0.0,0.0,0.0,0.0,0.0,0.0,0.0,0.0,0.0,0.0,4.2803,4.2289,4.2001,4.2013,4.1611,4.1465,4.1827,4.1119,4.1078,4.1497,4.0992,4.0531,4.0362,4.0272,3.9907,3.9259,3.9588,3.9941,4.013,3.9779,3.9638,3.9638,3.9638,3.9638,3.9544,3.8953,3.9072,3.9308,0.0,0.0,0.0,0.0,0.0,0.4573,0.4859,0.4643,0.447,0.4577,0.0,0.0,0.0,0.0,0.5242,0.4981,0.5361,0.5793,0.6244,0.7043,0.7653,0.7936,0.8825,0.9285,0.9184,0.0,0.0,0.0,0.0,0.0,0.0,1.4747,1.5847,1.8093,1.7026,1.7167,0.0,0.0,0.0,1.5909,0.0,1.8209,1.9703,0.0,0.0,0.0,0.0,0.0,0.0,0.0,2.0951,2.0549,2.0332,0.0,0.0,0.0,0.0,0.0,2.5786,0.0,0.0,0.0,0.0,3.8439,4.2168,0.0,0.0,0.0,0.0,0.0,0.0,0.0,0.0,0.0,0.0,0.0,0.0,0.0,0.0,0.0,0.0,0.0,0.0,0.0,0.0,0.0,0.0,0.0,4.2807,4.2001,4.1398,4.1198,4.0795,4.067,4.0745,4.04,4.0145,4.0193,4.0096,3.9706,3.9179,3.9028,3.8663,3.8273,3.8505,3.885,3.9336,3.9239,3.9167,3.9167,3.8866,3.8794,3.893,3.8297,3.8461,3.8834,0.0,0.0,0.3167,0.254,0.2962,0.3486,0.3667,0.4254,0.4623,0.4603,0.0,0.0,0.0,0.0,0.0,0.5297,0.5016,0.5121,0.5731,0.5837,0.6299,0.7328,0.7894,0.8495,0.9115,0.0,0.0,0.0,0.0,0.0,0.0,0.0,1.5256,1.6925,1.5966,1.6699,1.8523,0.0,1.6758,1.733,0.0,1.9239,1.9898,0.0,0.0,0.0,2.4129,2.3764,0.0,2.2786,2.2641,2.2432,0.0,0.0,0.0,0.0,0.0,0.0,0.0,0.0,0.0,0.0,0.0,0.0,4.1716,0.0,0.0,0.0,0.0,0.0,0.0,0.0,0.0,0.0,0.0,0.0,0.0,0.0,0.0,0.0,0.0,0.0,0.0,0.0,0.0,0.0,0.0,4.367,4.3372,4.2013,4.0896,4.0083,4.0058,3.9853,3.9233,3.9438,3.9258,3.8719,3.8966,3.9267,3.9423,3.8227,3.8022,3.8504,3.7807,3.7947,3.8596,3.8726,3.8789,3.8721,3.7893,3.791,3.8268,3.7444,3.7695,3.8238,0.0,0.3208,0.2772,0.2808,0.3178,0.3576,0.3866,0.3788,0.3766,0.0,0.0,0.0,0.0,0.0,0.4838,0.5127,0.5362,0.5539,0.5578,0.6588,0.7038,0.6768,0.751,0.7796,0.7529,0.0,0.0,0.0,0.0,0.0,0.0,0.0,0.0,0.0,1.5058,1.5463,1.6573,1.5372,0.0,0.0,1.8555,1.9969,0.0,0.0,0.0,0.0,0.0,2.6133,2.576,0.0,2.5127,2.3151,0.0,0.0,0.0,0.0,0.0,0.0,2.312,0.0,0.0,0.0,0.0,0.0,3.3891,3.617,3.8661,0.0,0.0,0.0,0.0,0.0,0.0,0.0,0.0,0.0,0.0,0.0,0.0,0.0,0.0,0.0,0.0,0.0,0.0,0.0,4.36,4.277,4.2567,4.1409,4.0491,4.0083,3.9499,3.9094,3.8662,3.78,3.746,3.7637,3.7416,3.7629,3.8032,3.7311,3.6974,3.7133,3.7176,3.7219,3.7402,3.8258,3.8253,3.7915,3.7663,3.7345,3.6955,3.6846,3.7,3.7198,0.3135,0.2726,0.2459,0.2698,0.3017,0.3339,0.366,0.3612,0.3655,0.0,0.0,0.0,0.0,0.0,0.0,0.4781,0.5062,0.5291,0.5505,0.6163,0.6534,0.6493,0.713,0.7559,0.7749,0.0,0.0,0.0,0.0,0.0,0.0,0.0,0.0,0.0,1.3723,1.4274,0.0,0.0,0.0,0.0,1.8985,0.0,0.0,2.4302,2.5906,0.0,0.0,0.0,2.7498,2.8703,2.7406,0.0,0.0,0.0,0.0,0.0,0.0,0.0,0.0,0.0,0.0,0.0,0.0,0.0,3.2129,3.3803,3.5781,0.0,0.0,0.0,0.0,0.0,0.0,0.0,0.0,0.0,0.0,0.0,0.0,0.0,0.0,0.0,0.0,0.0,0.0,4.4376,4.3594,4.2657,4.1673,4.0926,4.0132,3.9243,3.8841,3.8363,3.7811,3.686,3.6573,3.6892,3.6567,3.6673,3.7035,3.6385,3.6184,3.6275,3.6226,3.6356,3.6622,3.7399,3.7651,3.7361,3.7148,3.6604,3.6092,3.6025,3.6145,3.6383,0.0,0.2156,0.227,0.2396,0.2636,0.2918,0.3275,0.3636,0.3925,0.0,0.0,0.0,0.0,0.0,0.0,0.0,0.4442,0.4719,0.5402,0.5206,0.5449,0.6301,0.6732,0.7489,0.8586,0.7997,0.0,0.0,0.0,0.0,0.0,0.0,0.0,0.0,1.2253,1.3156,1.4314,0.0,0.0,1.6929,1.9421,2.1174,0.0,0.0,2.6714,0.0,2.8743,2.8978,2.8793,3.0087,2.9293,0.0,0.0,0.0,0.0,0.0,2.3293,0.0,0.0,0.0,0.0,0.0,0.0,0.0,3.3112,3.3281,3.3383,0.0,0.0,0.0,0.0,0.0,0.0,0.0,0.0,0.0,0.0,0.0,0.0,0.0,0.0,0.0,0.0,4.4318,4.4383,4.4332,4.3809,4.2628,4.0971,4.0325,3.9511,3.8103,3.7902,3.7531,3.6715,3.6411,3.6264,3.6285,3.6074,3.6156,3.6498,3.5735,3.5424,3.5599,3.5303,3.5496,3.5998,3.6435,3.6728,3.6942,3.6416,3.5876,3.5306,3.4976,3.5176,3.56,0.2465,0.2509,0.2545,0.2639,0.2672,0.2887,0.33,0.352,0.3711,0.3856,0.3732,0.0,0.0,0.0,0.0,0.0,0.4781,0.4923,0.5006,0.5598,0.5778,0.5394,0.6278,0.6767,0.6723,0.7083,0.7655,0.0,0.0,0.0,0.0,0.0,0.0,0.0,1.1663,1.2292,1.2822,0.0,0.0,1.7333,1.8186,0.0,2.4084,2.5364,2.7428,2.9603,3.0302,3.0372,3.0146,0.0,3.0142,2.9998,0.0,0.0,0.0,0.0,0.0,0.0,0.0,0.0,0.0,0.0,0.0,0.0,2.7002,2.8054,2.9602,0.0,0.0,0.0,0.0,0.0,0.0,0.0,0.0,0.0,0.0,0.0,0.0,0.0,0.0,0.0,0.0,4.192,4.219,4.197,4.1081,4.0433,4.0265,3.8605,3.7706,3.7746,3.6898,3.6302,3.6207,3.5718,3.5666,3.5945,3.552,3.5517,3.5999,3.5357,3.5135,3.5135,3.5172,3.5496,3.5976,3.583,3.5734,3.5895,3.6048,3.5328,3.4159,3.4517,3.47,3.506,0.2307,0.2556,0.2702,0.2675,0.2692,0.281,0.3051,0.3077,0.312,0.3254,0.3237,0.0,0.0,0.0,0.0,0.0,0.0,0.0,0.0,0.5107,0.5208,0.4884,0.5665,0.6225,0.6455,0.6706,0.7228,0.8059,0.0,0.0,0.0,0.0,0.0,0.0,0.0,0.0,0.0,0.0,1.5348,1.7518,1.949,0.0,2.5519,2.6767,2.8602,3.0649,3.0802,3.1245,3.1462,3.036,3.0163,0.0,0.0,2.7789,2.7405,0.0,2.5932,2.6897,0.0,0.0,0.0,2.6523,0.0,0.0,0.0,2.7284,2.8137,0.0,0.0,0.0,0.0,0.0,0.0,0.0,0.0,0.0,0.0,0.0,0.0,0.0,0.0,0.0,0.0,4.084,4.0965,4.087,4.0287,3.9672,3.9362,3.8079,3.7006,3.6435,3.5741,3.5277,3.5041,3.4792,3.4855,3.5258,3.4978,3.5039,3.5423,3.5091,3.4869,3.478,3.5128,3.525,3.5374,3.5496,3.522,3.4699,3.5189,3.4846,3.4094,3.4205,3.4482,3.4918,0.2047,0.2391,0.2592,0.2338,0.2466,0.2609,0.2518,0.2479,0.2509,0.2805,0.0,0.0,0.0,0.0,0.0,0.0,0.0,0.0,0.0,0.0,0.4581,0.4653,0.518,0.5846,0.6533,0.6532,0.6994,0.7873,0.0,0.0,0.0,0.0,0.0,0.0,0.0,0.0,0.0,0.0,0.0,1.8176,0.0,2.3799,2.5769,2.7532,2.9098,3.0384,3.0754,3.156,3.2302,3.0869,0.0,3.0085,2.9404,2.8846,0.0,0.0,0.0,0.0,0.0,0.0,0.0,0.0,0.0,2.6553,0.0,0.0,0.0,0.0,0.0,0.0,0.0,0.0,0.0,0.0,0.0,0.0,0.0,0.0,0.0,0.0,0.0,0.0,0.0,3.9532,3.9622,4.026,3.9449,3.8818,3.8485,3.7697,3.6675,3.5283,3.4949,3.4661,3.417,3.4244,3.4439,3.4849,3.4724,3.4801,3.498,3.498,3.4758,3.4444,3.4793,3.4897,3.4683,3.507,3.4763,3.4148,3.4526,3.461,3.4428,3.4155,3.4366,3.4758,0.1984,0.2074,0.2002,0.1378,0.1796,0.2089,0.1618,0.1631,0.2073,0.0,0.0,0.0,0.0,0.0,0.0,0.0,0.0,0.0,0.4577,0.0,0.0,0.4774,0.5214,0.5649,0.5896,0.622,0.6639,0.7052,0.6872,0.0,0.0,0.0,0.0,0.0,1.0516,0.0,0.0,0.0,1.6889,0.0,2.1768,2.2691,0.0,2.5408,2.6979,2.8317,3.0001,3.1294,3.1967,0.0,3.1521,3.1675,0.0,3.0114,0.0,0.0,0.0,0.0,0.0,0.0,0.0,0.0,2.8579,0.0,0.0,0.0,0.0,0.0,0.0,0.0,0.0,0.0,0.0,0.0,0.0,0.0,0.0,0.0,0.0,0.0,0.0,0.0,0.0,0.0,3.6625,3.9244,3.6589,3.5864,3.8282,3.6805,3.5615,3.5189,3.5106,3.4789,3.4289,3.4899,3.5308,3.5353,3.509,3.4936,3.498,3.4646,3.4423,3.4199,3.4151,3.4275,3.4295,3.4107,3.424,3.459,3.4993,3.4784,3.4113,3.4286,3.4595,3.4799,0.1527,0.1621,0.1464,0.0824,0.0939,0.1133,0.107,0.1181,0.0,0.0,0.0,0.0,0.0,0.0,0.0,0.0,0.0,0.4229,0.0,0.0,0.0,0.4239,0.4725,0.5057,0.5144,0.5622,0.5965,0.6191,0.6465,0.0,0.0,0.0,0.0,0.0,1.1627,0.0,1.4161,0.0,1.7686,0.0,0.0,0.0,0.0,2.5884,2.7767,2.8366,2.9352,3.0306,3.0796,0.0,3.0097,0.0,0.0,0.0,0.0,0.0,0.0,0.0,0.0,0.0,0.0,0.0,0.0,0.0,0.0,0.0,2.5169,0.0,0.0,0.0,0.0,0.0,0.0,0.0,0.0,0.0,0.0,0.0,0.0,0.0,0.0,0.0,0.0,0.0,0.0,0.0,0.0,3.4514,3.6451,3.5622,3.5184,3.5178,3.4863,3.4464,3.405,3.4531,3.4647,3.4647,3.4515,3.4423,3.4423,3.4311,3.4086,3.3883,3.4554,3.4482,3.3747,3.4316,3.4191,3.3752,3.4407,3.4533,3.4228,3.4044,3.4288,3.4528,0.0982,0.1052,0.0928,0.0387,0.0358,0.0525,0.0833,0.107,0.0,0.0,0.0,0.0,0.2458,0.2802,0.0,0.0,0.0,0.4227,0.0,0.0,0.4616,0.0,0.0,0.0,0.0,0.522,0.5472,0.5649,0.6058,0.0,0.0,0.0,0.0,0.0,0.0,1.3954,1.5651,0.0,0.0,1.922,2.1212,2.2282,2.3097,2.656,2.8142,2.8538,2.8932,2.9393,2.9784,2.9068,2.9075,0.0,2.9797,0.0,0.0,0.0,0.0,0.0,2.8276,0.0,0.0,0.0,0.0,0.0,0.0,0.0,0.0,0.0,0.0,0.0,0.0,0.0,0.0,0.0,0.0,0.0,0.0,0.0,0.0,0.0,0.0,0.0,0.0,0.0,0.0,3.392,3.2808,3.2876,3.4703,3.4775,3.4737,3.4682,3.4547,3.4387,3.4039,3.4183,3.4317,3.4317,3.4248,3.4199,3.4086,3.4237,3.4054,3.3756,3.4657,3.4403,3.3413,3.4279,3.3981,3.3112,3.3658,3.3833,3.3828,3.3653,3.3937,3.4278,0.0396,0.0337,0.0,0.0,0.0239,0.0522,0.0924,0.0,0.0,0.0,0.0,0.0,0.0,0.0,0.0,0.0,0.0,0.4185,0.5002,0.0,0.4984,0.0,0.0,0.5088,0.0,0.0,0.5276,0.5624,0.5555,0.0,0.0,0.0,0.0,0.0,0.0,1.3589,1.4913,1.6816,1.9531,2.264,2.3184,2.4925,2.7285,0.0,2.7187,2.8092,2.8839,0.0,0.0,2.8805,2.9219,0.0,0.0,0.0,0.0,0.0,0.0,0.0,0.0,0.0,0.0,2.6342,0.0,0.0,0.0,0.0,2.4874,0.0,0.0,0.0,0.0,0.0,0.0,0.0,0.0,0.0,0.0,0.0,0.0,0.0,0.0,0.0,0.0,0.0,0.0,3.1981,3.0507,3.0691,3.3632,3.4188,3.4094,3.333,3.44,3.4692,3.4206,3.4361,3.4513,3.4513,3.4513,3.4311,3.4108,3.4582,3.4432,3.3759,3.3962,3.3912,3.3575,3.3314,3.3248,3.3287,3.2991,3.2661,3.244,3.304,3.3565,3.3862,0.0915,0.0,0.0,0.0,0.0,0.0,0.0,0.0442,0.0,0.0,0.0,0.0,0.0,0.0,0.3199,0.0,0.0,0.4516,0.4713,0.4772,0.0,0.0,0.0,0.4944,0.0,0.0,0.5336,0.5474,0.575,0.0,0.0,0.0,0.0,0.0,0.0,1.4337,0.0,0.0,0.0,0.0,0.0,2.4816,2.6713,0.0,0.0,2.7641,2.7998,2.8301,0.0,2.8741,2.888,2.9103,2.9281,2.9141,2.9086,2.9334,2.9811,0.0,0.0,0.0,3.148,2.7637,0.0,0.0,0.0,0.0,0.0,0.0,0.0,0.0,0.0,0.0,0.0,0.0,0.0,0.0,0.0,0.0,0.0,0.0,0.0,0.0,0.0,0.0,0.0,2.9224,2.8893,2.9729,0.0,3.2901,3.3106,3.2953,3.3457,3.3748,3.3682,3.3746,3.3985,3.4534,3.4311,3.4086,3.3749,3.3919,3.3675,3.3176,3.3726,3.3694,3.3276,3.353,3.3401,3.2936,3.2884,3.2708,3.2302,3.2267,3.2373,3.2508,0.1086,0.0419,0.0,0.0,0.0,0.0,0.0,0.0,0.0,0.0,0.1596,0.0,0.2846,0.0,0.3138,0.0,0.434,0.4519,0.4568,0.4804,0.0,0.4804,0.4908,0.0,0.0,0.5267,0.5352,0.0,0.0,0.6288,0.0,0.0,0.0,0.0,0.0,1.4664,1.6513,0.0,2.1355,0.0,0.0,2.5197,0.0,0.0,2.7442,2.694,0.0,2.7831,2.7998,2.8179,2.8488,2.8765,2.8898,2.8813,2.8701,2.9128,2.9648,2.992,2.9669,3.0813,0.0,2.8174,2.7659,0.0,2.4086,0.0,0.0,0.0,0.0,0.0,0.0,0.0,0.0,0.0,0.0,0.0,0.0,2.0329,0.0,0.0,0.0,0.0,0.0,0.0,2.5756,2.7387,2.729,2.8156,0.0,0.0,3.2006,3.2112,3.2634,3.3009,3.3116,3.3289,3.3636,3.4161,3.4112,3.3974,3.3636,3.3671,3.3529,3.3166,3.3735,3.3659,3.3374,3.3309,3.3136,3.2777,3.2416,3.22,3.1757,3.1596,3.155,3.1645,0.0852,0.0295,0.0,0.0,-0.0706,0.0,0.0,0.0,-0.0145,0.0,0.142,0.2042,0.2845,0.2561,0.2821,0.4201,0.4309,0.0,0.4701,0.4927,0.0,0.0,0.5179,0.5366,0.572,0.5402,0.0,0.0,0.0,0.0,0.0,0.0,0.0,0.0,1.1966,0.0,1.6888,1.9417,2.1564,2.352,2.5001,2.5994,2.6456,2.7051,2.6783,2.6268,2.7547,2.762,2.7295,2.721,2.7822,2.8588,2.813,2.8396,2.9068,2.9346,2.9942,3.0422,2.9702,3.0125,3.0259,2.8074,0.0,0.0,0.0,0.0,2.632,0.0,0.0,0.0,0.0,0.0,0.0,0.0,0.0,0.0,0.0,0.0,0.0,0.0,0.0,0.0,0.0,2.2877,2.349,2.6271,2.5698,0.0,0.0,0.0,3.0756,3.0765,3.1949,3.2599,3.262,3.3095,3.3353,3.3375,3.3892,3.3904,3.3565,3.3665,3.3637,3.3516,3.37,3.3773,3.3796,3.2804,3.2549,3.2785,3.1763,3.1139,3.0736,3.1076,3.1049,3.1181,-0.0709,-0.0994,-0.1106,0.0,-0.1012,-0.1235,0.0,0.0,0.0,0.0,0.1158,0.1872,0.2822,0.2491,0.2727,0.3908,0.3964,0.0,0.0,0.0,0.0,0.5582,0.5225,0.5427,0.6184,0.5442,0.0,0.6447,0.0,0.0,0.719,0.0,0.0,0.0,0.0,0.0,1.5842,1.8599,2.1529,2.4233,2.4627,2.5024,0.0,0.0,2.5909,2.5779,2.6812,2.6976,2.6764,2.6927,2.7138,2.741,2.7191,2.7556,2.791,2.8007,2.8775,2.9669,2.9636,3.0177,3.0507,2.9576,2.8826,2.7965,0.0,0.0,0.0,0.0,0.0,0.0,0.0,0.0,0.0,0.0,0.0,0.0,0.0,0.0,0.0,0.0,0.0,0.0,2.0641,2.1659,2.2678,2.3334,2.3668,2.4944,0.0,0.0,0.0,2.9452,3.0512,3.1127,3.1486,3.1951,3.2462,3.3044,3.365,3.3686,3.336,3.3305,3.3155,3.2863,3.2734,3.2652,3.2804,3.2294,3.191,3.1763,3.1249,3.0627,2.9976,2.9833,2.9869,3.0158,-0.0867,0.0,0.0,-0.1546,0.0,0.0,-0.1455,0.0,0.0,-0.0342,0.0511,0.0,0.1929,0.2145,0.2573,0.3265,0.3439,0.0,0.3827,0.0,0.0,0.464,0.4508,0.4825,0.5806,0.5246,0.0,0.6247,0.0,0.0,0.6629,0.0,0.0,0.0,0.0,1.2427,1.4911,1.8496,2.1251,2.325,2.379,0.0,0.0,2.512,2.516,2.5083,2.5915,2.6207,2.615,2.6428,2.6506,2.6613,2.66,2.6821,2.712,2.7317,2.8066,2.8983,2.9086,2.9725,3.0244,2.9901,2.9402,2.8709,2.7298,2.7108,2.6885,0.0,0.0,0.0,0.0,0.0,0.0,0.0,0.0,0.0,0.0,0.0,0.0,0.0,0.0,0.0,1.8923,2.0299,2.1531,2.205,2.2411,2.347,0.0,0.0,0.0,2.857,2.9408,3.0203,3.087,3.1428,3.21,3.2784,3.336,3.3679,3.3561,3.3214,3.2973,3.2649,3.2525,3.2401,3.2422,3.2038,3.1653,3.1377,3.0732,3.0006,2.9221,2.8902,2.9186,2.9758,-0.0539,0.0,0.0,0.0,0.0,0.0,0.0,-0.1639,0.0,-0.1332,0.0,0.061,0.0834,0.1611,0.2236,0.2615,0.0,0.2961,0.2722,0.3186,0.346,0.3471,0.3662,0.4175,0.5046,0.4802,0.0,0.0,0.0,0.5323,0.5587,0.0,0.0,0.0,0.0,0.0,0.0,1.8482,2.0749,2.1707,2.2711,2.3509,2.4108,2.4579,2.4659,2.4622,2.5074,2.5312,2.5508,2.5774,2.5867,2.5859,2.6013,2.6306,2.6604,2.6923,2.76,2.8237,2.8341,2.883,2.9343,2.9323,2.9533,2.9291,2.7398,2.7294,2.7387,2.6625,2.5872,2.5827,0.0,0.0,0.0,0.0,0.0,0.0,0.0,0.0,0.0,0.0,0.0,0.0,0.0,1.9041,2.0226,2.1437,2.1203,2.1681,0.0,0.0,0.0,2.7988,2.8728,0.0,3.0549,0.0,3.181,3.2488,3.3105,3.3554,3.3813,3.3336,3.2868,3.2603,3.2603,3.2459,3.2166,3.1726,3.1433,3.09,2.9812,2.906,2.8559,2.8169,2.8662,2.9573,0.0,0.0,0.0,0.0,0.0,-0.1533,-0.1436,-0.1386,-0.1272,-0.0891,-0.0271,0.0556,0.1645,0.1267,0.1479,0.262,0.2521,0.0,0.0,0.0,0.0,0.3857,0.3919,0.4313,0.516,0.4628,0.4756,0.0,0.5092,0.5105,0.5284,0.0,0.0,0.0,0.0,0.0,1.6282,1.7978,0.0,2.1677,2.2006,2.2688,2.3665,2.3756,2.4204,2.4702,2.4602,2.4499,2.4449,2.4697,2.4683,2.4647,2.4619,2.5301,2.6169,2.6169,2.6824,2.763,2.7951,2.7902,2.7853,2.8048,2.8349,2.8285,2.6996,2.7442,2.7693,2.6411,2.6651,2.683,2.5764,0.0,0.0,0.0,0.0,0.0,0.0,0.0,0.0,0.0,0.0,0.0,0.0,0.0,0.0,0.0,0.0,0.0,0.0,0.0,0.0,0.0,2.8188,0.0,0.0,0.0,3.067,3.1358,3.2255,3.2734,3.2894,3.2871,3.2738,3.2435,3.1907,3.1451,3.1102,3.0391,2.9736,2.9042,2.8,2.791,2.8227,2.731,2.7594,2.8474,0.0,0.0,0.0,0.0,0.0,0.0,0.0,-0.173,0.0,-0.15,-0.0745,-0.0281,-0.0289,0.0195,0.0594,0.0907,0.1009,0.111,0.1312,0.2017,0.2633,0.3068,0.3115,0.0,0.4667,0.4254,0.4347,0.5119,0.4546,0.4466,0.0,0.0,0.0,0.0,0.0,1.1262,0.0,0.0,0.0,2.028,2.1086,2.2022,2.3111,2.2945,2.3334,2.3844,2.3808,2.341,2.3082,2.4204,2.4061,2.3626,2.414,2.4545,2.4792,2.5004,2.5756,2.6518,2.6406,2.6714,2.6989,2.6989,2.6929,2.6805,2.6305,2.6564,2.6719,2.5859,2.6443,2.6601,2.4966,2.3103,0.0,0.0,0.0,0.0,0.0,0.0,0.0,0.0,0.0,0.0,0.0,0.0,0.0,0.0,0.0,0.0,0.0,0.0,0.0,0.0,0.0,0.0,0.0,0.0,0.0,3.1344,3.1738,3.2144,3.2745,3.2392,3.2213,3.2166,3.1782,3.1267,3.0537,2.9379,2.8697,2.8332,2.771,2.7437,2.7371,2.7041,2.7123,2.7388,0.0,-0.2819,0.0,0.0,-0.308,0.0,-0.3138,-0.2273,-0.1738,-0.1961,-0.1147,-0.085,-0.1929,-0.0881,-0.0298,-0.0807,-0.0404,0.0,0.0303,0.0913,0.1534,0.2175,0.2258,0.2897,0.4047,0.3857,0.4014,0.0,0.4086,0.3942,0.0,0.0,0.0,0.0,0.0,0.0,0.0,0.0,1.6852,1.8626,2.0052,2.1185,2.2177,2.2132,2.2393,2.2708,2.2815,2.2323,2.1941,2.3325,2.3338,2.2929,2.3708,2.3968,2.3888,2.3909,2.4645,2.5265,2.4878,2.5379,2.5991,2.5664,2.5432,2.5308,2.519,2.5252,2.5303,2.4956,2.5564,2.5703,2.4173,2.2624,0.0,0.0,0.0,0.0,0.0,0.0,0.0,0.0,0.0,0.0,0.0,0.0,0.0,0.0,0.0,0.0,0.0,0.0,0.0,0.0,0.0,2.7083,2.8901,0.0,2.9794,0.0,3.1194,3.1577,3.2273,3.1951,3.1841,3.1798,3.1744,3.0993,2.976,2.8559,2.8009,2.7849,2.7371,2.6968,2.6624,2.6771,2.6722,2.6624,0.0,0.0,0.0,0.0,0.0,0.0,0.0,-0.2511,-0.1568,-0.167,-0.1077,-0.0688,-0.0702,-0.1107,-0.131,-0.1111,-0.0707,-0.0404,-0.0404,-0.0103,0.0622,0.1659,0.1998,0.2549,0.3412,0.4057,0.4069,0.0,0.0,0.3826,0.0,0.0,0.0,0.0,0.0,0.0,0.0,1.3609,1.5599,1.7741,1.8709,1.964,2.0453,2.1082,2.139,2.1618,2.1941,2.1723,2.1329,2.1385,2.1884,2.2568,2.3211,2.3794,2.4199,2.3628,2.3905,2.4321,2.3606,2.4008,2.4407,2.4064,2.4264,2.4253,2.3627,2.3791,2.3936,2.3609,2.3954,2.3999,2.2834,2.2963,2.2871,0.0,0.0,0.0,0.0,0.0,0.0,0.0,0.0,0.0,0.0,0.0,0.0,0.0,0.0,0.0,0.0,0.0,0.0,2.3839,0.0,2.5781,2.7179,2.8252,0.0,3.0097,3.0753,3.0983,3.0819,3.156,3.1671,3.1369,3.1103,3.0063,2.8363,2.795,2.7353,2.6678,2.61,2.62,2.6631,2.6024,2.6184,2.6615,0.0,0.0,0.0,0.0,0.0,0.0,0.0,-0.288,-0.2196,-0.1899,-0.1499,-0.1102,-0.0706,-0.1428,-0.1848,-0.1439,-0.1452,-0.146,-0.1252,-0.0525,0.0424,0.1391,0.1922,0.2582,0.3186,0.3281,0.3273,0.0,0.0,0.0,0.0,0.0,0.0,0.0,0.0,0.8261,1.0497,1.2393,1.4388,1.6417,1.76,1.8685,1.9603,1.9549,1.9822,2.0236,2.0157,2.0047,1.9886,2.0426,2.0894,2.1261,2.1496,2.1822,2.2088,2.185,2.222,2.2641,2.2266,2.2536,2.2922,2.2706,2.265,2.256,2.2412,2.2666,2.2877,2.2603,2.2845,2.301,2.2973,2.2416,2.1999,0.0,0.0,0.0,0.0,0.0,0.0,0.0,0.0,0.0,0.0,0.0,0.0,0.0,0.0,0.0,0.0,0.0,0.0,2.2948,0.0,2.6001,2.6962,2.7977,2.889,2.9686,2.9736,2.9942,3.0325,3.04,3.0562,3.0683,3.0319,2.9559,2.842,2.7428,2.6885,2.6504,2.5878,2.5802,2.6009,2.5486,2.5423,2.5313,-0.5275,0.0,-0.5175,0.0,-0.4884,-0.433,-0.4007,-0.3327,-0.2732,-0.2341,-0.2138,-0.1934,-0.1222,-0.175,-0.2079,-0.1883,-0.201,-0.2023,-0.1917,-0.1071,-0.0324,0.0437,0.1194,0.0,0.2709,0.2605,0.2662,0.3107,0.2866,0.0,0.0,0.0,0.0,0.0,0.5503,0.6947,0.8962,1.1077,1.2943,1.4541,1.6065,1.7334,1.8134,1.7944,1.8096,1.8499,1.8335,1.8287,1.8343,1.8906,1.9259,1.9584,2.0223,2.0538,2.0758,2.0327,2.0695,2.1125,2.0772,2.1139,2.1634,2.1526,2.1417,2.1415,2.1628,2.1666,2.1739,2.1791,2.1829,2.2028,2.2484,2.1662,2.1156,2.2309,0.0,0.0,0.0,0.0,0.0,0.0,1.9239,1.8303,1.8047,0.0,0.0,0.0,0.0,0.0,0.0,0.0,0.0,0.0,0.0,0.0,0.0,2.7823,2.8707,2.9213,2.8975,2.9122,2.9536,2.9404,2.9578,2.9996,2.9725,2.9116,2.8123,2.7226,2.6562,2.6232,2.5721,2.5502,2.5518,2.5124,2.4843,2.4626,-0.6771,-0.6444,-0.6239,-0.6697,-0.5231,-0.4228,-0.4734,-0.3833,-0.3149,-0.2897,-0.3213,-0.3003,-0.2177,-0.2177,-0.2193,-0.2233,-0.1917,-0.1917,-0.2558,-0.2057,-0.1639,0.0,0.0,0.0565,0.1839,0.2372,0.2711,0.2758,0.0,0.0,0.2547,0.0,0.3085,0.4131,0.4709,0.59,0.7442,0.969,1.102,1.1791,1.3963,1.4993,1.5467,1.6034,1.6379,1.6574,1.6642,1.66,1.6658,1.6398,1.6712,1.7681,1.9918,2.0896,2.0929,1.9736,1.9785,2.0055,1.9062,1.9744,2.0644,2.0332,2.0693,2.1137,2.1137,2.0846,2.0588,2.0885,2.0925,2.0925,2.0925,2.0909,2.0782,2.0432,0.0,0.0,0.0,0.0,0.0,0.0,1.8411,1.787,1.8078,0.0,0.0,0.0,0.0,0.0,0.0,0.0,0.0,2.255,2.4035,0.0,2.5968,2.7581,2.8473,2.8517,2.8498,2.8379,2.8037,2.841,2.8818,2.9208,2.9208,2.8355,2.7142,2.7125,2.6537,2.5536,2.525,2.525,2.5518,2.4872,2.4872,2.4952,-0.7337,-0.7143,-0.6767,-0.6636,-0.5848,-0.5133,-0.4928,-0.4519,-0.4116,-0.4037,-0.435,-0.4393,-0.4072,-0.3331,-0.2909,0.0,-0.2848,-0.2758,0.0,-0.3216,-0.2905,-0.1808,-0.135,-0.0796,0.0117,0.0796,0.125,0.1169,0.0,0.0,0.0,0.2482,0.2748,0.2985,0.3999,0.514,0.6396,0.7999,0.9196,1.0318,1.1777,1.2998,1.4063,1.4645,1.5099,1.5451,1.5726,1.6113,1.6379,1.6184,1.6551,1.7195,1.7754,1.8472,1.8888,1.8277,1.8536,1.8892,1.8783,1.9043,1.9442,1.9566,1.9714,1.9903,2.012,2.0223,2.0357,2.0574,2.088,2.1015,2.1008,2.0977,2.0955,2.1001,2.0743,0.0,0.0,0.0,0.0,0.0,1.8321,1.7844,0.0,1.7105,0.0,0.0,0.0,0.0,0.0,0.0,0.0,0.0,2.4517,0.0,2.6113,2.7419,2.8134,2.814,2.814,2.814,2.8037,2.841,2.8535,2.8429,2.8459,2.8088,2.7356,2.6753,2.629,2.5839,2.5107,2.4782,2.4906,2.4143,2.4018,2.4003,-0.8091,-0.8062,-0.7859,-0.7446,-0.685,-0.6342,-0.5732,-0.5324,-0.5043,-0.4906,-0.5231,-0.5303,-0.5271,-0.4519,0.0,-0.4082,-0.3675,-0.3583,-0.381,-0.3924,-0.3613,-0.2754,-0.2487,-0.1942,-0.1069,0.0,0.0,-0.036,0.0114,0.0772,0.1317,0.1886,0.2254,0.2415,0.3541,0.4535,0.5364,0.6546,0.7729,0.8784,1.0157,1.1294,1.2421,1.3333,1.3851,1.4256,1.4671,1.4939,1.5203,1.5237,1.5503,1.5754,1.561,1.6194,1.7016,1.7191,1.7712,1.819,1.8065,1.8177,1.8512,1.8624,1.8793,1.9001,1.9292,1.975,2.0039,2.0128,2.0208,2.0338,2.024,2.0287,2.0393,2.0354,2.0097,1.9898,2.0059,0.0,0.0,0.0,0.0,0.0,0.0,1.7281,0.0,0.0,0.0,0.0,0.0,0.0,0.0,2.1873,2.4827,0.0,2.6495,2.7388,2.7779,2.7779,2.7659,2.7659,2.7779,2.8026,2.7905,2.7678,2.7531,2.7125,2.666,2.5918,2.5542,2.521,2.4487,2.4363,2.4363,2.3604,2.3479,2.3604,-0.881,-0.9015,0.0,0.0,-0.8144,0.0,-0.6942,-0.6458,-0.6037,-0.5712,-0.596,-0.6148,-0.5913,-0.5931,-0.5712,-0.5154,0.0,0.0,0.0,-0.4145,-0.3839,-0.4128,-0.3503,-0.2868,-0.205,-0.1958,-0.1971,-0.1849,-0.0839,-0.0235,-0.0,0.104,0.1733,0.2195,0.3286,0.3894,0.4359,0.553,0.635,0.6935,0.8691,0.9792,1.0686,1.1717,1.2399,1.2658,1.3491,1.3545,1.3213,1.3849,1.3993,1.3824,1.3844,1.4436,1.5289,1.6172,1.7092,1.769,1.6875,1.7219,1.7919,1.7563,1.7865,1.8468,1.8643,1.9258,1.964,1.9348,1.9292,1.9194,1.8874,1.9034,1.9149,1.8898,1.8788,1.8657,1.8321,0.0,0.0,0.0,0.0,0.0,0.0,1.7262,1.79,0.0,0.0,0.0,0.0,0.0,2.0745,2.3065,2.4861,2.6171,2.6938,2.7292,2.7401,2.7401,2.7177,2.7177,2.7401,2.7056,2.6952,2.6952,2.6327,2.5717,2.5103,2.4734,2.4363,2.4115,2.3728,2.3728,2.3976,2.3355,2.323,2.3479,0.0,0.0,-0.9168,-0.8996,-0.8302,-0.7693,-0.7591,-0.737,-0.7148,-0.7112,-0.7517,-0.7636,-0.747,-0.7271,-0.716,-0.6937,-0.6042,-0.5373,-0.5262,-0.5262,-0.4964,-0.4134,-0.4183,-0.3899,-0.3495,-0.3027,-0.2566,-0.1941,-0.1219,-0.0854,-0.0729,0.0,0.0729,0.1335,0.207,0.2909,0.3956,0.3953,0.4163,0.4705,0.5966,0.7512,0.8989,0.9843,1.0933,1.1849,1.2322,1.2826,1.3154,1.2854,1.3083,1.3565,1.3469,1.392,1.4475,1.5045,1.5832,1.6563,1.6563,1.6915,1.7265,1.7499,1.7664,1.7652,1.7486,1.7918,1.8404,1.857,1.8787,1.8858,1.8671,1.8687,1.855,1.8212,1.8119,1.8168,1.8193,1.8267,0.0,0.0,1.7523,1.761,1.7139,1.7355,1.7486,0.0,0.0,0.0,0.0,1.9913,2.137,2.3349,2.4969,2.6248,2.7038,2.6849,2.6675,2.6432,2.6311,2.6205,2.6083,2.5978,2.5855,2.5594,2.5103,2.498,2.5103,2.4487,2.4363,2.4363,2.3852,2.3479,2.323,2.2856,2.2606,2.248,-0.9387,-0.9616,-0.9681,-0.9447,-0.9112,-0.8758,-0.8657,-0.8221,-0.8117,-0.8361,-0.8342,-0.836,-0.8244,-0.8048,-0.8048,-0.8048,-0.6937,-0.6154,-0.6042,-0.6047,-0.5643,-0.4936,-0.4859,-0.47,-0.4216,-0.3855,-0.3151,-0.2172,-0.1838,-0.1604,-0.1481,-0.1111,-0.0494,0.0247,0.074,0.1467,0.2168,0.2411,0.2876,0.345,0.4225,0.5636,0.7346,0.8265,0.9276,1.0378,1.0891,1.1561,1.2049,1.2041,1.2168,1.2551,1.2482,1.279,1.3252,1.3508,1.4651,1.572,1.5623,1.6065,1.6644,1.6773,1.7126,1.7208,1.6704,1.7137,1.7701,1.7701,1.8169,1.8352,1.7901,1.8131,1.8061,1.7509,1.7442,1.7438,1.7485,1.7569,0.0,1.7316,1.7612,1.7782,1.7442,1.7825,1.801,1.775,0.0,0.0,1.9117,2.0278,2.1647,2.3199,2.4614,2.5629,2.6077,2.6122,2.6083,2.6067,2.6067,2.5961,2.5839,2.5733,2.5365,2.5103,2.461,2.4363,2.4363,2.3867,2.3728,2.3852,2.3479,2.323,2.3106,2.2731,2.248,2.2355,-0.9625,-1.0029,-1.0268,-1.002,-1.0021,-0.992,-0.9723,-0.9145,-0.8873,-0.9272,-0.9025,-0.8835,-0.8789,-0.8706,-0.8706,-0.8706,-0.7709,-0.7043,-0.6932,-0.673,-0.6336,-0.6079,-0.5786,-0.5414,-0.4934,-0.4467,-0.3766,-0.2903,-0.2697,-0.2467,-0.2221,-0.2096,-0.1727,-0.1111,-0.0617,-0.0367,-0.0,0.0966,0.181,0.2531,0.2819,0.3981,0.5674,0.6515,0.7444,0.8469,0.9082,0.9777,1.0329,1.0915,1.1095,1.1172,1.1193,1.1502,1.1799,1.2051,1.3448,1.4831,1.452,1.5028,1.5709,1.5872,1.6228,1.6453,1.5946,1.6571,1.7056,1.6891,1.7232,1.7542,1.7053,1.7378,1.7393,1.6626,1.6508,1.6526,1.6494,0.0,1.676,1.7052,1.7558,1.7805,1.7495,1.8218,1.866,1.8386,1.922,1.985,0.0,2.08,2.181,2.2824,2.3985,2.472,2.5004,2.5327,2.5594,2.5823,2.5823,2.5823,2.57,2.5472,2.5103,2.4734,2.4239,2.3728,2.3479,2.323,2.3106,2.2981,2.2981,2.2981,2.2856,2.2606,2.2355,2.2355,-1.0384,-1.0332,-1.0422,-1.0349,-1.0134,-1.0019,-0.992,-0.9946,-0.9916,-0.9711,-1.0079,-1.0361,-1.0014,-0.9816,-0.9596,-0.9596,-0.8927,-0.8484,-0.8263,-0.7809,-0.7312,-0.6759,-0.6834,-0.6476,-0.5658,-0.4858,-0.4279,-0.4177,-0.3328,-0.3086,-0.3209,-0.2714,-0.2467,-0.2344,-0.1849,-0.1713,-0.169,-0.0611,0.0122,0.0483,0.1367,0.2264,0.3154,0.384,0.5019,0.6293,0.6593,0.7491,0.869,0.8586,0.9437,1.052,1.029,1.0514,1.0988,1.1135,1.1622,1.2449,1.3391,1.3825,1.4211,1.4993,1.5044,1.4872,1.481,1.5272,1.5718,1.5753,1.6065,1.6328,1.6276,1.6148,1.5904,1.5124,1.5306,1.5503,1.5105,0.0,1.6676,1.6765,1.7103,1.7365,1.758,1.7636,1.8023,1.8709,1.9374,1.9904,2.0144,2.1346,2.2008,2.2349,2.352,2.4492,2.5024,2.4826,2.461,2.4348,2.4348,2.4224,2.3976,2.3976,2.3728,2.3355,2.3355,2.323,2.3106,2.3106,2.2981,2.2731,2.2731,2.2355,2.1866,2.1727,2.1614,2.1362,-1.169,-1.1595,-1.152,-1.1226,-1.1034,-1.0825,-1.0824,-1.068,-1.0569,-1.0759,-1.0949,-1.0932,-1.0562,-1.0468,-1.0468,-1.0257,-0.9919,-0.9809,-1.0139,-0.9174,-0.8243,-0.7675,-0.7795,-0.745,-0.6616,-0.5989,-0.5667,-0.5421,-0.5053,-0.4684,-0.4192,-0.3943,-0.3715,-0.3371,-0.312,-0.2985,-0.2843,-0.1493,-0.0866,-0.0733,-0.0,0.0748,0.1497,0.1646,0.2787,0.4276,0.4404,0.5405,0.6781,0.6916,0.7744,0.862,0.9016,0.9228,0.9545,1.0077,1.0899,1.2109,1.3283,1.3398,1.337,1.3948,1.3789,1.3462,1.349,1.3965,1.453,1.455,1.5116,1.5548,1.5557,1.5358,1.5188,1.4733,1.4616,0.0,0.0,1.5451,1.6099,1.6796,1.6845,1.7129,1.7906,1.803,1.832,1.901,1.965,2.0205,2.0493,2.1244,2.1881,2.2403,2.3308,2.4039,2.461,2.4239,2.41,2.4115,2.4115,2.3976,2.3852,2.3728,2.3479,2.3355,2.323,2.3106,2.3106,2.2856,2.2731,2.2606,2.2606,2.2355,2.1853,2.2104,2.1866,2.1362,-1.287,-1.2853,-1.273,-1.2226,-1.1987,-1.1922,-1.1865,-1.1381,-1.1253,-1.186,-1.1714,-1.1362,-1.1109,-1.1278,-1.1304,-1.1084,-1.0794,-1.0929,-1.1704,-1.0529,-0.9581,-0.8863,-0.8684,-0.8231,-0.7491,-0.7099,-0.6775,-0.6526,-0.6403,-0.5908,-0.5172,-0.519,-0.486,-0.4413,-0.4428,-0.4181,-0.3802,-0.2535,-0.2015,-0.1869,-0.1371,-0.0748,0.0,-0.0,0.088,0.2244,0.2523,0.3527,0.4755,0.5301,0.5974,0.6924,0.7707,0.8034,0.8202,0.869,0.9786,1.123,1.2786,1.2699,1.2335,1.2979,1.2812,1.2499,1.2323,1.3021,1.3565,1.3592,1.4162,1.4759,1.4759,1.4665,1.4448,1.4168,0.0,0.0,0.0,1.4911,1.5534,1.6609,1.6712,1.7074,1.7863,1.8133,1.8395,1.9163,1.9689,2.0212,2.0578,2.0997,2.1638,2.2494,2.3237,2.3728,2.3991,2.3604,2.3604,2.3852,2.3728,2.3728,2.3728,2.3355,2.323,2.323,2.2981,2.2856,2.2856,2.2606,2.248,2.2355,2.2355,2.2104,2.1853,2.2104,2.1978,2.1488,-1.3523,-1.3459,-1.3356,-1.3059,-1.3049,-1.2936,-1.271,-1.2412,-1.2284,-1.2499,-1.223,-1.2112,-1.2309,-1.2284,-1.2181,-1.2181,-1.1776,-1.1757,-1.21,-1.1936,-1.1378,-1.0517,-0.9387,-0.8569,-0.8343,-0.7373,-0.6893,-0.6898,-0.628,-0.5908,-0.5794,-0.5998,-0.5788,-0.5423,-0.55,-0.5404,-0.5148,-0.4374,-0.3601,-0.2955,-0.27,-0.2186,-0.1414,-0.1415,-0.0772,0.0257,0.1158,0.2075,0.2877,0.3359,0.4714,0.6007,0.6337,0.6771,0.7107,0.6715,0.7299,0.861,1.0904,1.1135,1.09,1.1905,1.2017,1.1916,1.1849,1.2636,1.3279,1.3277,1.3564,1.3933,1.4172,1.3849,1.326,1.2688,0.0,0.0,1.3335,1.4494,1.5467,1.6009,1.6601,1.6897,1.7067,1.7244,1.7841,1.8716,1.9347,1.976,2.0283,2.102,2.1797,2.2076,2.3091,2.3604,2.3604,2.3355,2.3106,2.3106,2.2856,2.2731,2.2731,2.2355,2.223,2.223,2.223,2.2104,2.2104,2.2104,2.1978,2.1614,2.1614,2.1488,2.1235,2.1235,2.1235,2.1109,-1.4778,-1.4756,-1.4605,-1.4145,-1.3904,-1.3746,-1.3491,-1.3174,-1.2985,-1.3067,-1.3106,-1.2988,-1.2726,-1.2936,-1.2956,-1.2843,-1.268,-1.2841,-1.3298,-1.3026,-1.2451,-1.143,-1.0443,-0.9665,-0.9335,-0.8799,-0.8436,-0.8122,-0.7872,-0.7505,-0.7138,-0.7178,-0.6984,-0.6549,-0.6589,-0.6256,-0.5925,-0.5408,-0.4766,-0.3991,-0.3608,-0.3224,-0.2836,-0.258,-0.2064,-0.1289,-0.0774,-0.0,0.078,0.1958,0.2894,0.3715,0.4793,0.5489,0.6038,0.6519,0.6647,0.6876,0.8309,0.9142,0.9929,1.1062,1.0854,1.0608,1.1128,1.1487,1.1929,1.2051,1.2234,1.2638,1.3134,1.2764,1.256,1.2696,0.0,1.2702,1.3231,1.3914,1.4672,1.5293,1.5655,1.6247,1.6952,1.7168,1.761,1.8632,1.912,1.9549,2.0055,2.0916,2.1362,2.1488,2.1686,2.2047,2.2606,2.248,2.248,2.248,2.2355,2.223,2.223,2.2104,2.2104,2.2104,2.2104,2.2104,2.2104,2.1614,2.1488,2.1614,2.1362,2.1235,2.1109,2.1614,2.1488,2.1109,-1.5897,-1.6016,-1.5849,-1.5352,-1.5094,-1.4931,-1.4734,-1.4339,-1.4166,-1.4232,-1.4147,-1.392,-1.3618,-1.3768,-1.3774,-1.3614,-1.3577,-1.3616,-1.4195,-1.4045,-1.3361,-1.2234,-1.1378,-1.0826,-1.045,-1.0088,-0.9744,-0.9417,-0.9205,-0.8793,-0.8295,-0.8335,-0.803,-0.7607,-0.7638,-0.7463,-0.7043,-0.6519,-0.6,-0.5349,-0.4701,-0.431,-0.405,-0.3791,-0.3269,-0.2615,-0.2353,-0.1699,-0.0916,0.0397,0.1193,0.1857,0.3216,0.4303,0.5232,0.595,0.5848,0.5594,0.637,0.7272,0.8392,0.945,0.9557,0.9437,0.9949,1.0406,1.0805,1.0837,1.1073,1.15,1.1931,1.1744,1.1638,1.2318,1.2038,1.2064,1.2803,1.3159,1.3618,1.4411,1.4834,1.5388,1.6255,1.6592,1.6992,1.7932,1.8186,1.8601,1.9435,1.9991,2.0242,2.0333,2.0151,2.0388,2.1074,2.1589,2.1895,2.2104,2.1978,2.1978,2.1992,2.174,2.174,2.174,2.1614,2.1614,2.1614,2.1109,2.0982,2.1109,2.0856,2.0729,2.0856,2.1362,2.1235,2.0729,-1.6736,-1.6948,-1.6961,-1.643,-1.6524,-1.6617,-1.6299,-1.5873,-1.566,-1.6247,-1.5298,-1.48,-1.5299,-1.4767,-1.4521,-1.4761,-1.441,-1.4301,-1.466,-1.4862,-1.4518,-1.3333,-1.2363,-1.18,-1.1775,-1.0834,-1.0418,-1.0623,-0.9949,-0.943,-0.9175,-0.9184,-0.9124,-0.8753,-0.888,-0.9001,-0.8984,-0.7912,-0.725,-0.6987,-0.618,-0.551,-0.4839,-0.4839,-0.4437,-0.3768,-0.3631,-0.2959,-0.2017,-0.1075,-0.0134,0.0806,0.1882,0.3094,0.4294,0.4628,0.4525,0.4533,0.5234,0.5665,0.6007,0.7219,0.8046,0.8551,0.8551,0.94,1.0049,0.9883,1.019,1.0493,1.0694,1.055,1.0499,1.0932,1.1028,1.1264,1.1856,1.2117,1.2499,1.3251,1.3922,1.4586,1.4983,1.5165,1.5805,1.6797,1.6549,1.6897,1.8148,1.8297,1.852,1.865,1.865,1.865,1.865,2.0296,2.1438,2.2104,2.1727,2.1614,2.1614,2.0856,2.0729,2.1109,2.0729,2.0602,2.0602,2.0602,2.0361,2.0106,2.0106,2.0106,2.0106,2.0106,2.0106,2.0106,-1.7674,-1.7582,-1.7371,-1.7265,-1.6948,-1.663,-1.6617,-1.6473,-1.6417,-1.6272,-1.6204,-1.5988,-1.5909,-1.5743,-1.5642,-1.5718,-1.5459,-1.555,-1.5718,-1.5905,-1.5782,-1.534,-1.4375,-1.3447,-1.2926,-1.2312,-1.1956,-1.1861,-1.1136,-1.0713,-1.0699,-1.0243,-0.9813,-0.9657,-0.9435,-0.9264,-0.9117,-0.8451,-0.8056,-0.7655,-0.6982,-0.6581,-0.6309,-0.5981,-0.5597,-0.5235,-0.492,-0.427,-0.3499,-0.242,-0.1748,-0.0941,0.1075,0.1882,0.242,0.3613,0.3887,0.3875,0.4134,0.4415,0.5099,0.6846,0.7229,0.7536,0.8557,0.877,0.8836,0.9137,0.9322,0.9509,0.9707,0.9451,0.9438,1.0002,0.9995,1.003,1.073,1.1164,1.1665,1.213,1.2666,1.3321,1.3897,1.3968,1.4433,1.5421,1.5805,1.6209,1.6534,1.7247,1.7497,1.7405,1.7816,1.8034,1.8411,1.9234,1.9878,2.0335,2.0208,2.0348,2.0475,2.0361,2.0361,2.0361,2.0094,1.9966,2.0234,1.9711,1.9724,2.0106,1.9839,1.9839,2.0106,2.0106,2.0106,1.9979,-1.8408,-1.8318,-1.8213,-1.8003,-1.7687,-1.7516,-1.7516,-1.7486,-1.7463,-1.735,-1.7129,-1.7044,-1.7125,-1.6646,-1.634,-1.6544,-1.6462,-1.6409,-1.6673,-1.6637,-1.668,-1.6816,-1.6105,-1.5267,-1.4171,-1.3497,-1.302,-1.2863,-1.2218,-1.1764,-1.1637,-1.0863,-1.0534,-1.0364,-1.0104,-0.9789,-0.9649,-0.9389,-0.8989,-0.8723,-0.8051,-0.7809,-0.7704,-0.7199,-0.6827,-0.6488,-0.6004,-0.5475,-0.4842,-0.39,-0.3228,-0.242,-0.0806,0.0,0.0673,0.2017,0.269,0.3076,0.3379,0.3518,0.3927,0.5333,0.5986,0.6575,0.7384,0.7473,0.7419,0.7754,0.7854,0.7948,0.8392,0.8256,0.8381,0.9255,0.8958,0.9069,0.9738,0.9971,1.028,1.0868,1.1283,1.1799,1.2545,1.2724,1.3066,1.3929,1.4799,1.5217,1.5299,1.5834,1.6258,1.6301,1.6441,1.6686,1.7025,1.7396,1.8291,1.9456,1.9711,1.9711,1.9724,1.9724,1.9724,1.9724,1.9328,1.934,1.9468,1.92,1.92,1.9328,1.92,1.92,1.9328,1.9328,1.92,1.8944,-1.9034,-1.9153,-1.9182,-1.8569,-1.8688,-1.8907,-1.8992,-1.8739,-1.8755,-1.9004,-1.8307,-1.8008,-1.8558,-1.7596,-1.7032,-1.7517,-1.7334,-1.7207,-1.736,-1.7451,-1.7449,-1.7702,-1.7618,-1.6954,-1.5704,-1.4699,-1.4015,-1.3871,-1.3135,-1.2588,-1.233,-1.1545,-1.1156,-1.1156,-1.0774,-1.0719,-1.0724,-1.0452,-1.0054,-0.9782,-0.9395,-0.9203,-0.8894,-0.8526,-0.8143,-0.7801,-0.704,-0.6468,-0.5789,-0.5117,-0.4442,-0.3633,-0.3228,-0.2287,-0.1076,0.0134,0.1076,0.2008,0.2735,0.2744,0.2626,0.3192,0.4354,0.5321,0.5512,0.5784,0.6023,0.6078,0.6122,0.641,0.6965,0.6951,0.7207,0.8231,0.8012,0.8106,0.8846,0.8539,0.8605,0.9488,0.9908,1.0341,1.1009,1.1495,1.1897,1.25,1.3453,1.414,1.4324,1.441,1.4731,1.5102,1.4913,1.4905,1.4974,1.5306,1.6592,1.8816,1.9468,1.9468,1.8944,1.8944,1.8944,1.8944,1.8571,1.8431,1.8536,1.878,1.8512,1.7976,1.8396,1.8267,1.8011,1.8022,1.7787,1.7529,-1.9864,-1.9583,-1.936,-1.9502,-1.9227,-1.9113,-1.9874,-1.9679,-1.9752,-2.0345,-1.9747,-1.9443,-1.9866,-1.9171,-1.8784,-1.891,-1.8742,-1.8613,-1.8383,-1.8581,-1.8605,-1.8361,-1.8337,-1.8102,-1.7389,-1.6426,-1.5803,-1.5914,-1.4642,-1.4083,-1.4214,-1.3291,-1.2767,-1.2382,-1.2119,-1.1747,-1.1512,-1.1115,-1.0982,-1.0857,-1.0705,-1.0502,-1.0535,-1.0483,-0.9924,-0.9047,-0.8977,-0.7844,-0.6421,-0.5873,-0.5427,-0.4977,-0.4705,-0.39,-0.2825,-0.1882,-0.0941,-0.0268,0.0527,0.0663,0.0801,0.1705,0.2374,0.3324,0.4613,0.4435,0.4412,0.549,0.5465,0.5558,0.6182,0.5921,0.5793,0.6562,0.6293,0.6285,0.669,0.7165,0.7566,0.8221,0.8753,0.9354,1.0161,1.0796,1.1233,1.1356,1.2197,1.2621,1.2656,1.3368,1.377,1.3695,1.4498,1.4702,1.4499,1.5209,1.6049,1.6613,1.7141,1.74,1.7518,1.7518,1.7518,1.7389,1.7141,1.7161,1.7494,1.7241,1.7256,1.7485,1.7805,1.7886,1.7771,1.7965,1.7905,1.7787,-2.03,-2.0016,-1.982,-2.0145,-1.9881,-1.9808,-2.084,-2.071,-2.0644,-2.1117,-2.0858,-2.0482,-2.0537,-2.0064,-1.9794,-1.9678,-1.9709,-1.96,-1.9499,-1.9524,-1.9524,-1.9524,-1.9256,-1.9078,-1.8816,-1.8267,-1.7489,-1.6234,-1.5923,-1.5385,-1.467,-1.4358,-1.3822,-1.3095,-1.3054,-1.2829,-1.2429,-1.2239,-1.2231,-1.2037,-1.1932,-1.1862,-1.1869,-1.1544,-1.1158,-1.0599,-1.0052,-0.8729,-0.7406,-0.7128,-0.6656,-0.6183,-0.6046,-0.551,-0.4839,-0.3763,-0.3092,-0.228,-0.0926,-0.0799,-0.0804,0.0132,0.0799,0.161,0.3197,0.3307,0.3426,0.4248,0.4229,0.4341,0.5129,0.4866,0.4735,0.5653,0.549,0.5325,0.5801,0.631,0.6841,0.7284,0.8012,0.877,0.9478,0.9862,1.0246,1.055,1.1126,1.1631,1.1752,1.2448,1.2786,1.2742,1.3323,1.3645,1.3576,1.4327,1.4688,1.48,1.5834,1.6224,1.5964,1.6353,1.6302,1.5941,1.608,1.6074,1.6097,1.6233,1.6359,1.6621,1.6992,1.7114,1.6968,1.7227,1.7141,1.7001,-2.0938,-2.0681,-2.0589,-2.0997,-2.0728,-2.084,-2.182,-2.1695,-2.1554,-2.2035,-2.1761,-2.139,-2.1094,-2.0767,-2.0577,-2.046,-2.0473,-2.0433,-2.0541,-2.0307,-2.0178,-2.045,-2.0141,-1.9911,-1.9711,-1.9936,-1.8909,-1.6546,-1.7065,-1.6676,-1.5035,-1.5252,-1.4827,-1.3928,-1.3961,-1.3906,-1.3511,-1.3687,-1.3543,-1.3427,-1.3344,-1.3141,-1.3141,-1.262,-1.2278,-1.2078,-1.0994,-0.9745,-0.8654,-0.8497,-0.7873,-0.7254,-0.7254,-0.6987,-0.6451,-0.551,-0.4973,-0.4158,-0.2121,-0.2133,-0.228,-0.1459,-0.0801,-0.0135,0.0942,0.1749,0.2286,0.2554,0.269,0.3094,0.3905,0.3905,0.4037,0.4842,0.4793,0.4738,0.5202,0.5591,0.5984,0.636,0.7374,0.814,0.8799,0.8893,0.9215,0.9632,1.0225,1.0745,1.0997,1.1355,1.161,1.1894,1.2043,1.2203,1.2389,1.2923,1.307,1.3104,1.452,1.5043,1.467,1.5183,1.5067,1.4491,1.5003,1.4993,1.4749,1.538,1.5492,1.5413,1.6202,1.6233,1.5923,1.6224,1.6234,1.5844,-2.2215,-2.1786,-2.1558,-2.2209,-2.1866,-2.1865,-2.3099,-2.2837,-2.2751,-2.361,-2.3051,-2.2559,-2.2754,-2.2256,-2.1756,-2.142,-2.142,-2.1209,-2.0667,-2.054,-2.0412,-2.0157,-2.0067,-2.0055,-1.9979,-2.0282,-1.9887,-1.8638,-1.8181,-1.7884,-1.7738,-1.6439,-1.5964,-1.5992,-1.5623,-1.5376,-1.4985,-1.4919,-1.4855,-1.4846,-1.4639,-1.4579,-1.4597,-1.4621,-1.4173,-1.3364,-1.3066,-1.1783,-1.0147,-0.9075,-0.8553,-0.8323,-0.8323,-0.765,-0.6853,-0.6309,-0.5912,-0.5245,-0.4158,-0.3895,-0.39,-0.3356,-0.2821,-0.2556,-0.242,-0.1346,0.0,0.0806,0.1076,0.1481,0.3098,0.3369,0.3232,0.3228,0.3895,0.4158,0.3613,0.4459,0.5014,0.5088,0.6209,0.7112,0.7337,0.7961,0.8397,0.861,0.9391,0.9823,0.9949,1.0202,1.0468,1.051,1.1024,1.1111,1.0781,1.169,1.1896,1.1512,1.2041,1.2824,1.3613,1.3341,1.3248,1.3337,1.3465,1.3518,1.3674,1.4156,1.4166,1.4213,1.5142,1.5352,1.5317,1.5903,1.6104,1.5974,-2.2754,-2.2368,-2.2261,-2.2969,-2.2735,-2.2836,-2.4007,-2.3743,-2.3746,-2.433,-2.4009,-2.3578,-2.3091,-2.2606,-2.2355,-2.2104,-2.1992,-2.1809,-2.1719,-2.151,-2.1394,-2.1491,-2.1252,-2.0941,-2.0615,-2.1045,-2.0874,-2.0084,-1.9711,-1.902,-1.805,-1.8106,-1.7716,-1.6892,-1.7162,-1.6943,-1.6274,-1.6501,-1.652,-1.6157,-1.5952,-1.5682,-1.5468,-1.5388,-1.4991,-1.4364,-1.4014,-1.2879,-1.1267,-1.079,-0.9936,-0.9227,-0.9092,-0.8778,-0.8456,-0.7784,-0.7517,-0.6982,-0.5774,-0.5376,-0.4977,-0.3902,-0.3631,-0.3629,-0.3497,-0.2959,-0.2018,-0.0807,-0.0269,0.0539,0.1885,0.175,0.1612,0.2397,0.2545,0.2946,0.3692,0.3751,0.4049,0.4926,0.5377,0.5862,0.6558,0.6614,0.6841,0.7657,0.8258,0.8608,0.8869,0.9118,0.9282,0.9227,0.9871,1.0071,0.9952,1.1009,1.1264,1.085,1.1112,1.1818,1.2561,1.2457,1.2322,1.2163,1.2439,1.249,1.2369,1.297,1.3199,1.343,1.4266,1.461,1.4669,1.4763,1.4791,1.4791]}]]